GFSSGP_500_rhum_000.txt.gz
RH
3 3 4 5 3 2 22 2 4 12 48 50 46 44 40 40 41 78 62 66 78 78 75 83 74 88 75 81 80 80 83 81 91 95 95 68 96 86 95 96 95 89 83 78 52 48 53 70 64
6 5 7 5 3 4 56 5 9 20 26 42 47 50 44 39 41 47 62 76 89 89 87 86 83 80 84 81 84 89 85 86 97 87 96 98 98 95 97 96 97 96 91 83 68 60 71 78 72
8 8 7 5 2 29 76 16 21 23 28 48 58 57 56 51 50 52 51 58 65 70 74 73 78 84 86 85 76 71 58 70 84 56 67 74 84 86 87 95 94 97 96 97 95 92 72 73 73
10 7 4 4 4 4 5 9 15 40 52 63 69 64 63 62 58 59 58 66 77 79 71 70 86 86 90 84 81 80 80 68 64 57 71 65 89 95 80 98 81 94 76 81 87 95 94 77 89
10 6 4 4 4 4 6 10 19 49 66 86 94 94 88 82 80 81 81 75 76 80 80 86 74 70 66 60 61 74 74 72 66 58 61 60 68 84 95 96 97 83 77 81 100 85 79 72 92
12 6 4 4 5 6 8 10 23 55 74 86 92 93 90 81 86 79 56 67 76 78 77 71 64 68 67 61 53 46 50 55 52 57 53 54 60 64 80 98 99 100 86 80 88 94 76 69 70
16 8 4 5 6 8 8 8 10 12 18 23 48 91 98 92 86 81 79 78 63 34 36 52 60 50 46 47 49 42 48 58 53 54 42 42 43 53 64 70 89 82 82 86 80 73 78 75 77
14 6 6 7 8 10 10 10 10 12 17 22 21 53 87 94 95 89 74 50 33 21 18 18 21 26 28 26 29 33 32 40 36 16 12 10 32 63 52 71 75 83 88 84 84 78 74 77 74
13 10 10 10 10 9 9 9 9 11 14 18 19 27 51 62 54 32 19 18 12 10 8 11 15 19 25 24 20 13 8 5 11 9 1 4 5 26 78 68 86 88 77 78 84 74 80 86 74
20 18 17 16 16 12 9 6 6 8 9 11 11 11 11 12 12 10 8 6 5 3 4 9 15 15 10 7 7 7 5 8 11 13 12 8 11 25 47 88 97 100 99 90 88 84 86 91 85
28 28 25 23 22 23 17 15 16 23 19 12 11 11 10 11 14 28 41 33 27 34 21 10 12 12 11 11 12 13 13 14 16 16 17 21 18 19 33 69 97 97 97 92 91 98 99 97 78
32 30 27 34 38 36 43 44 37 33 36 51 50 41 46 55 50 45 43 33 29 33 39 37 27 27 29 36 43 43 40 35 32 33 35 43 49 58 64 73 89 95 98 96 97 96 95 97 94
5 8 7 6 5 6 6 6 6 6 6 8 13 18 15 19 22 22 23 24 28 26 27 28 22 16 11 6 2 1 1 1 1 2 3 2 6 14 26 41 61 92 97 97 98 98 99 94 98
5 5 5 5 6 5 5 4 4 4 4 5 5 5 5 5 5 5 6 7 7 6 6 6 5 6 6 7 7 7 8 8 8 8 9 8 8 8 7 5 7 20 74 96 96 97 98 98 99
9 9 9 9 9 8 8 7 8 7 6 5 5 5 6 6 7 7 7 7 7 7 7 8 8 8 9 10 11 12 11 11 11 10 10 12 13 13 13 12 11 10 12 30 22 74 97 98 98
14 15 14 14 15 16 15 12 10 10 13 14 14 16 16 14 13 12 11 9 8 9 9 10 11 12 12 13 14 17 17 17 16 14 14 12 13 14 13 14 16 16 14 16 15 15 22 39 53
18 16 17 19 21 22 22 24 18 15 13 17 17 18 19 19 20 22 22 21 21 20 19 18 17 17 16 18 20 20 21 22 23 21 19 20 18 16 17 16 15 17 19 20 20 18 20 18 20
25 25 22 19 20 23 24 27 24 24 26 21 26 25 23 24 25 26 28 28 28 30 28 27 27 26 28 29 30 29 27 25 22 20 19 20 20 20 22 24 23 19 18 20 22 21 18 19 19
33 28 28 24 24 26 28 34 33 31 29 34 36 34 35 37 36 38 39 37 36 35 36 38 38 39 41 42 41 38 34 31 29 23 21 19 17 18 23 24 25 24 20 22 23 22 20 19 19
32 32 26 26 24 25 33 34 34 35 40 41 42 44 40 40 42 43 44 45 45 41 37 33 33 33 34 36 39 38 37 36 31 32 34 36 38 40 37 36 33 29 26 21 22 20 23 24 21
34 33 31 28 30 29 34 46 38 33 35 38 39 38 41 44 43 40 42 42 39 36 33 34 35 39 44 46 48 49 48 50 49 53 56 52 58 56 58 54 47 42 40 35 28 19 21 22 23
33 33 32 36 38 38 37 40 35 33 28 29 33 37 40 42 41 38 35 32 32 32 34 39 44 46 52 62 66 69 67 72 76 78 72 74 73 67 63 68 67 55 49 48 49 48 35 26 26
33 32 29 28 26 30 30 31 32 28 31 26 28 31 30 29 29 32 34 34 32 32 33 34 35 39 41 48 57 64 73 79 80 86 88 88 91 83 80 78 89 80 72 70 72 74 67 58 50
35 36 33 32 24 26 28 31 29 26 28 27 27 24 24 24 27 29 30 31 32 33 34 36 39 40 44 50 58 72 81 86 97 100 99 98 96 86 84 88 89 94 93 87 80 73 68 68 66
38 39 35 30 25 26 28 30 36 27 28 30 30 28 28 26 24 25 28 33 36 40 44 49 53 56 57 62 70 76 90 99 100 100 100 100 98 92 95 99 100 96 86 78 67 58 52 57 67
38 39 43 39 32 24 28 30 49 30 30 31 35 36 39 40 39 36 38 41 40 43 48 52 62 69 71 78 79 83 99 100 100 100 100 100 100 98 97 98 96 85 72 66 65 61 56 57 54
40 38 38 36 32 27 25 26 43 46 42 42 40 40 45 48 50 50 49 50 48 54 64 70 73 84 97 100 100 100 100 100 99 98 100 95 87 86 89 89 87 78 75 74 70 65 57 48 41
45 43 43 42 38 28 26 32 39 59 47 48 44 47 48 52 50 48 50 52 54 65 75 81 91 99 100 100 100 100 100 100 100 100 100 94 84 85 86 83 77 80 76 65 56 48 39 31 24
44 52 52 48 46 43 40 26 53 67 51 49 50 49 50 52 53 56 57 56 65 77 85 87 96 100 100 97 100 100 100 100 100 100 100 99 92 87 81 85 85 74 63 54 41 32 23 16 14
54 54 55 58 56 47 48 18 58 60 70 59 52 52 55 53 54 53 55 65 76 82 86 92 98 99 100 100 100 100 100 100 100 100 100 97 89 86 84 85 72 61 47 38 29 23 18 10 7

GFSSGP_500_rhum_003.txt.gz
RH
3 4 4 4 4 6 56 66 60 52 59 15 30 62 59 72 80 90 94 88 77 76 78 77 80 76 74 92 67 88 89 83 79 78 67 76 80 98 96 96 90 80 97 94 88 95 96 86 60
6 7 6 6 5 61 53 74 50 70 6 26 48 54 51 40 40 43 60 65 64 73 75 78 73 66 50 71 73 80 65 75 76 86 76 75 81 94 96 96 96 88 97 92 96 93 94 96 97
8 10 7 6 38 62 90 92 48 8 11 46 55 58 59 45 47 46 49 57 61 62 64 69 74 64 68 67 63 63 72 70 82 78 89 84 81 87 78 88 94 96 94 99 97 95 94 84 84
13 9 6 8 62 50 79 17 8 25 26 31 51 43 59 60 59 58 56 57 62 65 65 53 51 52 56 61 61 56 68 60 61 63 74 66 64 68 75 75 66 53 89 96 96 96 96 97 94
12 8 30 53 12 3 4 5 10 45 56 39 71 77 64 66 66 66 59 60 54 49 48 50 52 53 64 63 63 68 72 62 60 66 60 57 49 50 53 48 43 61 95 98 96 89 95 96 75
12 9 50 53 4 4 4 6 9 16 21 59 97 40 47 76 80 77 76 69 66 50 47 50 41 40 44 52 66 62 57 49 42 43 48 43 48 46 39 39 43 42 53 92 80 77 63 76 80
13 55 52 40 3 5 5 6 6 8 10 23 57 100 40 61 62 62 65 67 63 54 50 51 27 16 20 39 41 42 42 40 33 30 38 60 53 44 31 26 36 62 64 71 89 71 65 70 78
16 23 40 48 55 5 7 6 7 9 10 14 16 76 16 12 18 20 32 33 46 49 28 14 13 14 14 18 19 21 25 34 45 35 21 24 27 21 5 0 0 8 64 64 72 100 88 70 75
12 53 49 14 49 7 8 7 6 6 6 7 8 10 9 8 9 10 14 14 12 8 7 3 1 2 8 14 18 16 10 8 10 10 6 4 4 3 1 0 0 11 30 69 73 94 98 88 79
53 61 24 22 22 19 15 11 6 6 5 8 8 8 9 9 10 10 11 14 26 19 7 6 7 6 6 7 6 8 11 13 15 13 14 14 14 14 14 13 14 13 15 30 52 94 90 96 99
27 30 30 29 28 30 28 28 33 39 45 43 42 36 26 22 23 30 36 33 36 31 12 24 40 42 24 15 19 22 28 31 34 34 34 32 32 35 39 41 50 51 44 50 57 88 94 94 93
11 11 12 4 5 5 5 5 6 6 7 10 21 31 43 46 48 48 38 30 33 40 34 30 26 19 22 28 21 7 4 3 3 1 2 4 4 5 4 3 14 28 46 43 57 89 98 90 96
5 5 4 4 3 4 4 4 4 4 5 5 4 4 4 4 4 4 6 7 8 8 8 8 6 5 5 5 5 6 6 6 6 5 4 4 4 4 4 4 4 5 6 10 14 82 98 99 98
8 8 9 10 8 8 8 8 8 7 5 5 5 5 5 5 6 6 6 6 6 7 7 7 7 7 7 7 8 8 8 8 8 7 6 6 5 5 5 5 5 6 7 9 13 27 84 95 97
13 13 14 14 14 11 10 9 10 11 13 14 14 16 18 16 14 13 13 12 11 11 10 9 10 10 11 12 12 12 14 14 14 12 10 8 8 9 10 9 8 7 8 9 10 12 18 37 83
17 18 26 20 21 21 20 19 16 17 17 18 20 23 24 21 21 20 22 23 23 25 27 27 26 24 24 23 22 22 21 21 22 23 23 23 19 18 18 20 18 18 17 17 17 19 16 17 19
32 42 28 19 20 22 23 25 25 27 25 24 25 26 24 24 23 26 29 32 31 28 27 27 29 30 30 29 28 31 30 28 29 28 26 24 23 23 23 27 29 34 34 29 29 27 24 20 18
35 29 25 24 23 23 25 27 29 29 33 36 36 33 33 33 31 30 33 33 32 32 30 28 29 29 30 34 36 35 33 36 36 32 30 30 29 30 31 32 38 43 46 43 38 37 32 30 25
34 30 25 24 26 31 33 30 32 31 30 30 32 32 33 32 31 27 26 22 26 20 21 18 21 22 26 24 29 28 33 35 36 37 37 41 41 42 42 45 44 41 43 46 54 51 45 41 35
34 32 30 28 25 27 32 28 23 24 18 17 18 18 21 22 24 22 21 20 19 19 19 20 22 18 20 20 22 24 24 27 31 32 30 40 41 53 63 57 52 48 48 50 48 47 53 53 47
30 31 31 33 31 27 31 57 26 21 18 18 16 14 14 15 16 16 16 16 19 21 21 23 22 25 26 30 31 33 35 38 38 39 40 40 49 61 68 81 87 77 67 66 61 60 56 51 52
28 30 30 34 29 26 27 31 25 20 21 21 20 20 21 20 20 22 23 24 26 27 27 28 29 30 32 38 47 49 58 74 82 75 68 70 70 62 63 62 66 72 84 83 67 60 65 66 64
30 29 28 29 30 27 25 23 79 23 21 25 28 31 32 34 37 37 33 30 29 29 31 35 37 39 42 46 58 66 75 96 96 97 94 96 96 94 90 92 90 84 87 85 87 78 79 96 83
32 30 31 30 30 30 28 29 33 64 33 28 32 31 34 39 44 44 43 47 50 47 46 47 46 50 50 61 71 78 82 94 100 98 98 100 100 100 100 100 100 100 98 100 100 99 100 100 100
32 32 34 36 33 43 33 33 38 40 37 42 39 38 39 38 40 42 41 45 48 47 48 51 54 54 60 60 71 81 90 100 100 97 100 100 100 100 100 100 100 100 100 99 100 100 99 100 100
31 33 37 37 38 36 39 38 49 43 51 52 44 41 38 33 42 44 46 49 53 55 56 60 58 59 69 74 76 89 94 95 91 94 100 100 100 100 100 100 100 100 100 99 99 97 88 84 80
34 36 37 36 37 32 30 32 32 48 65 66 55 42 42 46 50 50 51 54 58 58 59 63 62 72 79 80 82 88 89 92 100 98 100 100 98 98 98 99 99 99 100 100 97 92 86 84 78
46 44 40 40 43 40 44 48 47 71 98 100 80 67 57 52 55 58 56 60 63 75 81 73 78 89 93 88 86 93 90 99 97 97 99 100 100 100 100 100 98 100 99 94 89 82 78 70 60
45 50 52 53 60 50 44 49 63 79 88 87 84 73 64 58 59 61 65 68 73 76 81 88 98 96 89 95 95 90 95 92 89 100 100 100 100 100 99 99 98 91 85 82 74 63 54 46 35
49 53 54 56 58 57 61 30 71 64 73 72 67 65 66 71 66 70 74 76 79 81 94 96 93 92 100 98 87 86 89 83 97 100 100 100 100 100 99 94 86 86 74 62 52 40 20 17 18

GFSSGP_500_rhum_006.txt.gz
RH
2 2 3 4 4 8 32 58 55 67 64 43 24 34 32 21 46 57 70 88 81 75 78 80 85 80 77 87 82 74 82 63 67 92 64 58 60 64 81 86 98 97 95 88 94 98 97 84 56
2 3 4 6 6 66 67 62 73 70 42 16 18 66 20 15 46 78 97 74 54 71 74 76 71 69 62 63 59 48 56 64 74 77 67 74 71 67 72 93 91 93 96 97 94 96 98 97 94
5 8 7 6 54 76 94 85 82 57 41 8 9 13 34 76 26 29 42 43 48 63 62 67 67 67 64 57 57 54 46 48 60 75 84 89 70 80 91 81 73 63 69 90 96 98 96 97 97
12 8 6 50 63 72 72 78 68 46 4 13 78 29 24 50 37 26 37 43 45 48 52 53 49 45 43 43 48 55 58 63 56 66 76 56 66 75 78 64 58 43 33 33 79 94 96 95 96
11 8 29 59 74 69 48 46 38 29 45 8 28 18 78 30 35 39 45 46 48 45 46 48 42 51 50 48 42 52 68 74 74 70 61 51 41 52 49 49 49 42 36 33 37 60 73 96 96
13 52 56 58 35 5 3 4 12 11 6 6 14 80 53 52 33 48 39 35 35 64 65 68 71 58 39 31 20 29 43 41 40 39 37 38 33 23 48 47 43 32 27 23 21 30 39 57 75
36 66 63 66 27 4 3 4 6 6 5 6 7 14 93 52 19 12 12 16 38 59 66 51 30 30 27 13 14 11 12 16 21 24 27 33 28 19 20 23 30 26 15 4 1 2 29 65 94
38 53 52 55 62 18 5 6 6 6 5 5 6 20 24 54 8 8 7 7 8 7 7 6 5 6 3 2 3 5 8 12 14 10 7 8 10 8 6 4 5 6 3 1 2 4 12 41 66
51 54 51 41 58 30 15 9 13 6 7 6 6 6 7 8 9 9 9 8 7 7 8 7 5 4 4 13 6 5 7 6 8 11 13 16 17 13 11 9 8 9 8 7 8 12 13 15 35
62 67 39 27 27 24 25 21 21 17 24 29 28 31 31 28 25 21 18 19 17 17 24 28 21 28 36 36 38 19 15 21 27 30 27 28 30 32 30 26 23 19 22 22 23 28 35 35 42
26 24 25 18 16 21 18 16 12 13 22 10 6 6 15 18 19 28 28 30 25 23 28 36 37 33 22 16 23 30 18 10 9 8 8 9 10 10 9 11 8 5 10 10 10 20 30 36 36
4 4 4 4 4 4 4 4 4 4 5 4 4 3 4 4 4 4 5 6 6 7 11 12 9 6 5 5 5 6 8 7 7 7 6 5 4 4 5 5 4 4 5 5 5 7 8 9 14
6 6 6 5 5 6 5 5 5 5 5 5 7 9 8 8 8 7 6 6 6 6 7 7 7 7 7 7 7 8 10 10 10 10 9 9 8 7 8 7 7 7 7 7 8 10 11 11 13
10 10 9 8 7 8 7 8 10 11 12 14 15 16 17 18 16 14 14 14 14 15 16 15 14 13 13 12 13 14 14 13 13 14 15 15 16 13 10 8 8 9 8 8 10 14 17 16 13
15 12 12 12 12 12 12 12 13 16 14 16 15 18 18 20 22 21 22 23 22 21 21 21 21 23 24 25 24 22 23 21 22 23 24 22 22 21 20 19 16 16 18 18 20 18 20 18 18
18 24 64 20 17 17 18 20 24 22 23 24 24 21 20 21 20 20 22 23 22 23 23 23 24 25 28 26 28 26 26 26 24 29 33 34 34 35 35 34 33 31 31 34 38 34 29 28 22
72 38 26 24 21 20 20 23 26 28 29 24 23 24 23 21 24 26 29 26 28 29 25 24 24 22 26 24 24 23 22 23 25 30 30 33 36 39 41 40 41 43 43 43 48 49 50 52 48
33 28 24 22 23 26 24 26 24 21 18 16 18 15 13 18 14 11 21 21 18 14 15 14 15 16 18 18 20 20 22 24 26 27 26 33 36 38 40 44 50 51 48 45 45 50 52 55 55
28 24 22 22 23 26 26 25 22 21 21 15 12 12 12 11 12 11 10 12 12 13 14 15 15 15 16 18 20 22 25 27 29 32 29 33 33 36 41 50 49 55 62 66 61 57 57 58 58
26 24 24 27 22 21 28 23 22 19 14 13 14 14 14 14 14 14 14 15 17 18 20 21 23 23 23 25 23 26 28 30 32 38 43 44 53 59 70 75 67 67 71 77 78 74 68 69 70
27 28 27 26 25 18 25 27 13 18 14 14 17 16 16 18 18 20 26 31 33 38 41 44 44 43 41 40 42 39 40 47 48 51 56 54 56 64 83 84 84 80 79 83 87 84 76 70 79
26 25 26 27 28 26 22 34 61 23 17 19 22 25 28 30 31 36 38 38 40 42 46 52 56 53 50 48 52 64 58 55 63 73 75 77 70 74 73 74 71 64 69 80 87 88 84 75 75
24 23 24 26 27 29 27 27 54 52 46 34 29 31 37 43 39 42 45 45 49 52 54 58 60 60 60 60 57 58 77 73 84 94 93 92 93 90 87 82 79 87 91 90 95 100 100 95 80
23 22 24 23 28 32 31 35 39 64 79 44 49 58 44 41 46 53 56 57 61 54 54 61 65 66 67 68 69 68 68 83 88 92 94 94 92 98 100 98 100 100 100 100 98 98 98 100 100
22 24 24 27 35 37 48 35 43 53 70 71 76 61 51 47 53 40 37 41 54 53 58 61 61 64 70 76 81 77 80 84 92 93 88 83 79 88 94 98 95 98 100 99 100 98 98 97 98
28 33 34 34 34 34 40 44 46 66 84 81 72 71 57 42 42 40 41 44 46 49 60 69 65 65 69 67 71 79 84 87 92 92 83 78 92 98 100 100 100 100 100 98 100 100 99 99 99
36 35 38 37 40 36 36 46 55 81 99 99 94 88 62 67 54 46 45 48 47 58 63 68 69 74 80 92 92 92 94 92 89 86 76 82 88 99 100 100 100 100 100 100 100 100 100 100 100
37 38 39 40 39 41 43 52 55 90 94 94 99 99 80 70 55 53 53 58 61 77 76 72 73 84 96 100 100 100 99 93 80 70 73 81 94 100 100 100 100 100 100 100 100 99 95 87 83
40 43 50 48 58 57 45 42 73 74 65 66 64 66 68 71 67 61 65 68 68 79 78 76 75 84 88 94 95 99 97 80 60 70 85 100 100 100 100 100 100 100 100 100 97 85 81 75 64
47 55 60 64 53 56 46 29 60 67 76 73 82 78 69 66 65 70 81 84 76 77 82 84 75 74 79 83 94 87 83 58 53 70 92 100 100 100 100 100 100 100 100 87 82 78 70 60 49

GFSSGP_500_rhum_009.txt.gz
RH
1 1 2 3 7 21 54 66 74 65 60 55 54 47 40 40 54 76 89 88 95 93 82 91 96 100 96 94 91 88 85 85 63 85 57 52 74 77 65 71 76 86 92 97 91 94 97 95 94
1 4 6 6 46 46 66 78 67 60 60 64 60 43 24 17 45 69 99 94 92 93 82 83 89 87 77 74 63 60 67 52 48 44 48 56 78 78 84 92 79 97 86 80 78 91 91 98 97
5 6 11 61 64 90 90 78 80 72 63 63 64 34 3 20 68 78 75 78 63 71 84 74 69 74 82 75 70 55 52 46 43 43 51 64 67 87 100 74 72 83 77 61 44 44 74 86 96
10 8 45 56 78 82 78 88 80 66 67 38 34 4 14 43 75 61 40 32 32 37 45 56 70 71 66 54 48 43 34 36 38 49 57 58 69 82 66 54 42 44 46 41 36 34 38 53 93
8 33 61 65 70 65 61 52 72 70 65 20 5 6 24 58 89 30 36 33 34 34 40 47 52 52 53 47 58 34 22 24 36 43 56 65 59 49 43 37 33 25 35 39 37 30 22 12 20
46 52 59 66 52 27 19 36 18 21 18 5 9 16 33 52 72 39 29 25 49 49 51 57 52 60 61 49 27 19 25 14 15 21 28 33 32 29 26 30 24 13 15 18 24 22 11 3 1
57 68 68 68 62 24 4 3 3 4 5 8 6 6 9 82 63 33 38 12 8 9 13 12 12 19 17 9 9 8 9 6 6 9 10 12 11 10 10 10 7 5 4 6 6 8 3 1 0
52 54 55 57 37 13 13 11 10 8 9 10 11 10 8 18 21 10 9 9 8 6 5 5 5 5 7 5 4 6 7 4 6 7 6 7 7 11 14 11 9 9 7 9 10 10 11 7 8
48 52 50 25 17 15 17 14 17 17 20 18 23 24 22 28 30 30 30 24 21 12 15 14 19 16 11 16 27 30 35 22 7 11 20 24 25 28 29 26 23 22 22 20 20 20 21 25 27
30 26 37 25 23 22 15 16 5 8 7 4 11 6 6 6 6 7 11 11 30 34 30 27 28 26 20 12 13 24 32 39 20 12 4 4 4 5 6 7 6 5 5 4 5 5 6 6 10
12 19 9 7 7 5 4 4 3 4 4 5 3 4 4 4 3 3 3 3 3 4 4 4 5 4 4 4 4 4 4 5 6 6 6 6 5 5 5 5 6 5 5 5 5 6 8 8 6
3 4 3 4 4 4 4 4 4 4 6 8 9 10 11 10 9 8 7 6 6 6 7 7 6 6 6 6 6 6 6 7 8 8 7 8 7 7 7 6 7 10 10 9 7 8 7 9 8
8 6 3 4 6 6 7 8 9 10 11 13 13 15 16 16 16 16 15 16 16 15 16 16 16 16 15 14 13 13 14 14 14 14 14 14 15 14 14 14 14 13 13 14 15 20 22 20 22
8 7 6 5 5 7 11 11 12 12 10 15 14 18 18 18 15 18 20 21 22 23 24 25 25 26 26 28 27 27 28 28 29 29 28 29 28 29 32 32 34 35 31 32 32 34 33 31 28
14 13 11 12 13 14 16 15 18 18 20 20 19 24 20 18 19 19 19 24 24 25 25 26 26 29 25 27 27 23 29 27 26 29 30 26 28 28 30 30 31 31 33 32 33 36 39 41 42
17 14 12 14 15 17 19 19 20 12 12 13 19 21 22 24 18 14 16 18 19 15 17 17 14 14 14 15 16 16 18 18 19 22 25 25 27 30 30 31 32 31 35 43 51 50 40 38 43
13 17 19 19 18 17 19 22 20 16 14 10 10 9 9 9 11 13 17 15 13 12 13 14 15 16 17 18 18 18 18 20 20 23 27 28 29 30 30 33 36 37 38 42 56 62 69 66 49
26 25 20 19 18 19 17 19 19 17 15 10 10 10 8 7 7 7 8 10 12 13 16 19 22 28 34 38 39 34 31 28 27 27 27 35 38 39 38 42 52 55 53 53 63 68 69 70 75
21 21 19 16 17 22 13 13 14 15 16 12 13 16 15 16 15 16 17 18 23 30 33 34 35 37 41 45 49 48 41 40 40 42 37 34 42 51 53 52 54 58 64 70 81 77 70 70 74
20 19 20 23 22 16 19 17 14 18 20 16 18 23 27 33 37 33 30 33 38 38 40 46 47 53 60 61 57 56 53 51 50 50 52 52 52 49 48 64 64 66 69 76 79 76 74 68 65
17 21 20 20 22 23 19 23 19 14 18 31 34 27 28 34 40 49 48 47 44 47 57 58 57 58 59 59 62 62 59 58 61 59 61 62 57 57 56 58 64 71 74 77 77 79 77 74 76
23 20 21 21 21 24 23 29 32 33 29 26 25 31 33 35 35 37 44 46 45 49 56 67 69 67 64 58 54 59 74 74 72 81 91 81 76 80 81 75 68 70 71 67 68 70 80 82 85
17 20 21 23 26 27 25 25 44 53 45 46 41 46 58 71 52 50 56 50 54 61 75 73 70 78 73 73 73 72 74 80 86 96 97 97 89 83 75 72 68 64 59 59 64 72 87 100 100
16 17 21 22 24 28 31 34 44 46 54 59 68 80 90 84 49 46 43 43 45 42 47 59 60 63 68 75 77 77 74 78 85 97 96 96 90 88 81 70 60 61 70 91 98 99 98 100 95
17 18 22 27 32 30 37 38 53 67 88 99 98 92 90 70 60 53 46 39 40 46 50 53 58 59 64 63 62 67 68 67 72 80 87 97 96 84 68 77 90 100 100 100 100 100 100 97 100
23 26 28 31 26 25 38 45 54 55 58 70 80 93 81 80 67 54 50 53 56 57 60 60 73 58 72 86 82 79 76 75 72 74 78 77 74 55 62 87 100 100 100 100 100 99 100 100 100
28 32 33 34 37 38 42 47 63 61 78 94 82 92 93 79 70 58 64 69 67 63 65 74 74 65 75 81 85 84 84 91 89 82 73 68 48 44 56 95 100 100 100 100 100 100 100 99 98
40 38 41 45 40 37 36 35 52 81 77 91 94 88 75 72 69 82 88 78 68 76 80 67 69 74 76 77 79 84 88 91 85 75 66 48 48 65 83 100 100 100 100 100 100 100 100 98 96
41 40 52 55 60 53 53 43 71 92 81 76 77 85 64 84 93 90 83 70 71 66 66 72 70 74 70 68 74 89 96 93 78 65 51 48 75 90 100 100 100 100 100 100 100 100 98 97 97
52 57 64 64 62 61 77 41 75 84 88 87 86 81 83 89 93 76 78 77 69 71 64 69 74 80 70 70 79 86 91 76 61 58 50 71 93 100 100 100 100 100 100 100 100 100 100 97 88

GFSSGP_500_rhum_012.txt.gz
RH
1 1 1 2 4 5 10 41 48 28 42 48 64 60 60 59 59 52 52 78 82 88 93 97 97 97 96 94 94 94 93 89 91 86 77 58 57 58 71 99 89 88 78 84 87 92 91 81 93
1 1 4 13 20 21 36 42 62 61 68 63 60 59 56 55 55 46 44 66 68 86 90 88 86 92 96 97 90 74 73 72 69 51 49 45 41 44 71 82 86 89 90 81 76 84 61 53 50
3 5 6 34 40 36 43 47 77 65 57 61 61 58 58 58 52 24 63 80 78 83 80 79 88 86 76 75 82 88 81 68 56 45 30 27 33 52 65 70 78 85 59 50 54 55 55 49 37
9 9 16 25 49 31 44 44 52 60 66 68 62 66 55 21 12 26 61 74 81 62 47 37 46 58 68 70 71 66 55 49 38 20 26 32 28 43 54 72 72 62 46 36 40 29 36 44 31
9 29 46 25 36 35 78 70 56 48 52 66 68 54 7 10 22 34 72 50 38 27 33 44 46 45 42 40 38 40 30 27 12 19 16 28 33 45 56 54 52 47 34 24 23 18 32 38 22
44 28 29 29 24 50 50 13 10 15 4 5 6 5 6 7 28 52 48 35 24 25 13 17 30 22 16 20 22 21 11 8 17 19 10 8 13 21 28 23 20 19 16 14 8 6 7 10 15
33 34 33 24 25 49 25 4 4 4 5 6 6 7 7 7 21 24 12 9 16 7 5 6 7 6 5 5 6 6 5 4 3 3 5 8 9 8 7 7 8 8 7 8 13 9 7 9 8
22 22 17 17 20 18 15 13 13 13 14 15 17 17 16 13 22 28 23 18 19 11 9 8 9 8 12 12 9 7 6 9 26 19 5 5 8 16 23 24 25 25 21 20 17 16 18 22 25
17 11 13 17 18 18 15 16 17 15 12 10 9 12 15 16 20 24 15 24 32 29 28 27 26 26 30 27 24 24 28 28 33 34 22 19 14 9 6 7 6 5 6 5 6 7 8 6 5
14 13 15 13 4 3 2 2 2 3 3 2 3 3 3 3 3 3 3 5 17 14 4 4 6 6 6 5 5 6 6 6 5 4 4 4 4 4 4 4 4 4 4 4 5 6 7 7 8
4 4 4 4 4 4 3 4 4 6 7 10 11 12 12 11 10 9 8 7 6 7 8 7 7 6 6 7 7 7 7 7 7 8 8 9 9 8 8 7 7 8 8 8 8 9 8 8 8
3 3 4 5 5 6 7 7 6 7 8 8 9 11 13 15 16 16 16 16 16 18 18 17 16 15 14 14 13 13 13 13 13 14 14 14 14 15 16 16 17 18 19 20 21 20 21 21 18
4 4 3 4 6 9 9 11 11 10 8 8 8 9 11 13 14 14 14 16 20 23 24 24 24 23 21 20 22 24 23 24 26 24 23 24 24 24 25 28 30 29 28 28 30 28 27 27 28
5 5 5 6 7 11 12 16 20 18 16 15 13 14 11 13 16 16 17 18 16 18 20 20 19 19 18 20 19 19 19 20 19 20 21 23 23 24 25 27 27 28 29 31 32 32 31 29 29
10 12 11 12 13 13 12 14 14 19 23 24 19 18 16 14 15 17 17 19 17 16 17 18 18 17 18 19 19 20 21 21 23 23 24 23 24 25 26 28 30 32 34 38 42 44 46 53 62
14 14 12 12 12 14 14 15 15 12 14 12 13 11 12 16 16 18 21 20 15 14 16 16 17 18 21 24 29 35 41 45 46 45 42 38 36 36 36 39 37 35 36 39 41 48 51 50 49
15 8 9 8 12 10 11 14 11 6 7 8 8 11 11 11 13 13 14 16 18 19 20 22 28 32 35 37 39 41 44 48 52 52 50 46 42 42 43 44 46 44 46 51 49 50 54 56 59
17 16 15 15 15 9 10 11 10 10 15 11 10 7 8 10 13 14 13 15 20 23 25 30 34 35 38 45 47 52 54 52 51 51 52 51 51 50 49 48 51 55 56 61 62 64 66 69 69
17 17 16 14 11 18 14 13 13 18 14 16 13 12 12 15 17 21 24 28 34 38 40 44 49 52 54 55 57 58 58 58 56 51 49 54 60 64 63 61 62 64 66 68 72 75 79 79 72
18 19 18 20 18 14 19 17 18 19 22 24 25 25 27 32 39 37 39 50 51 53 62 70 77 80 82 76 72 67 63 64 62 62 60 58 59 65 71 77 74 73 75 79 82 81 78 76 74
18 20 21 18 21 16 17 19 22 21 24 27 31 33 38 47 54 44 40 48 59 60 62 69 73 82 86 69 62 61 64 64 66 65 65 63 60 65 70 71 72 65 56 60 67 71 68 66 64
19 19 19 20 20 22 21 28 30 28 28 31 34 38 41 52 49 46 41 46 48 48 55 60 64 67 62 58 53 54 55 59 67 66 67 69 69 68 66 60 56 54 54 56 57 56 47 44 58
14 16 16 19 21 27 31 32 32 29 36 44 41 48 51 44 45 48 46 43 48 56 60 64 64 62 55 50 51 51 52 54 56 69 71 72 68 68 70 67 66 65 65 58 50 42 35 34 54
10 16 18 21 26 33 35 35 38 36 40 42 47 54 49 47 48 54 61 62 63 70 75 74 67 60 57 56 59 61 69 69 70 77 80 82 77 77 82 80 75 67 58 47 38 34 35 40 57
13 16 19 23 26 32 35 41 38 40 48 63 69 67 64 59 48 60 71 70 76 78 75 74 69 64 65 70 73 85 85 79 76 77 77 78 68 64 71 74 68 55 50 45 53 59 75 87 76
23 22 22 25 24 31 44 51 40 51 63 65 59 58 59 52 53 68 76 79 90 90 75 69 72 74 79 78 75 76 79 81 87 84 80 78 80 76 72 66 62 56 64 100 99 100 98 93 94
25 26 31 32 33 31 37 47 56 64 76 65 72 72 78 70 78 83 90 92 87 74 74 70 71 70 70 65 60 61 73 82 86 87 85 88 85 71 67 66 57 76 100 100 100 100 100 100 100
42 39 35 34 38 36 32 36 50 70 80 92 97 73 65 80 91 88 83 80 79 71 67 69 71 64 59 54 54 52 54 68 81 80 78 81 78 76 61 48 64 99 100 100 100 100 100 100 100
40 39 34 37 51 45 46 35 64 70 72 69 68 77 85 90 95 85 72 75 72 68 68 64 59 53 49 46 43 42 46 51 63 82 89 82 70 49 36 51 85 100 100 100 100 100 100 100 100
53 53 52 48 44 45 55 40 66 63 73 68 81 82 83 74 72 64 70 80 77 70 68 65 61 56 49 44 40 35 34 47 76 81 72 60 38 30 36 66 100 100 100 100 100 100 100 98 99

GFSSGP_500_rhum_015.txt.gz
RH
2 1 1 1 3 2 4 8 9 16 35 54 60 69 67 64 64 64 64 63 56 49 51 88 88 98 99 93 97 98 98 89 76 61 51 50 47 46 41 39 39 51 60 82 75 70 45 59 75
1 1 2 2 3 4 6 5 18 41 57 61 70 74 72 71 71 67 62 57 51 38 32 73 69 88 94 83 86 84 78 83 79 69 76 67 54 32 23 30 36 70 74 68 75 55 40 38 44
1 1 2 3 3 3 6 9 28 28 38 54 70 72 70 70 68 62 69 68 58 58 77 75 78 92 94 86 82 78 69 68 71 69 65 50 25 26 34 45 59 73 71 73 64 50 39 32 31
4 5 5 5 6 15 41 37 24 37 46 56 58 60 66 68 69 48 17 18 35 56 78 57 62 60 48 58 52 50 45 47 53 44 34 21 23 16 35 53 71 75 71 67 58 53 38 25 24
6 7 6 7 19 47 55 43 34 37 47 40 29 24 49 62 11 6 21 41 92 67 54 45 36 29 19 20 19 24 23 26 21 12 8 16 22 13 17 41 46 48 52 52 46 36 24 14 15
5 8 16 21 28 36 13 8 5 3 4 4 5 5 5 6 6 24 44 57 59 46 34 23 12 7 8 7 6 5 5 5 5 5 5 5 5 6 9 14 19 22 19 18 19 13 7 4 4
6 10 24 30 30 30 16 8 7 7 8 9 10 13 14 14 13 20 27 14 11 14 12 8 7 6 7 8 9 7 7 6 6 5 13 13 6 8 7 8 10 12 17 20 21 19 19 18 17
13 18 24 34 16 15 15 14 13 13 18 18 18 19 21 22 22 25 29 33 25 20 21 15 14 21 25 28 28 22 22 25 28 27 34 35 20 18 21 24 28 29 22 9 6 5 4 5 4
26 26 14 12 13 14 14 12 4 2 3 3 3 3 3 3 4 4 6 12 23 22 11 11 12 16 18 7 5 5 6 6 8 11 14 10 4 5 5 5 5 5 5 5 5 5 5 5 5
11 7 4 3 3 2 2 2 4 6 7 6 8 8 9 9 9 10 8 7 7 7 7 7 6 5 5 6 7 8 7 7 7 7 6 6 6 6 7 8 8 8 8 9 10 10 11 10 10
3 2 3 4 4 4 5 6 7 8 10 9 9 9 9 10 11 12 15 16 16 15 14 12 12 12 12 14 15 16 16 15 15 15 16 16 17 18 18 18 19 20 22 23 23 24 24 24 24
4 5 5 6 7 8 8 8 8 8 8 8 8 9 10 11 11 10 11 16 20 21 17 12 16 20 20 22 24 26 27 26 26 25 23 23 23 21 20 22 26 27 28 27 28 31 31 33 36
3 4 4 6 9 10 10 9 10 12 12 12 12 12 10 12 14 14 14 15 15 14 10 10 12 14 15 16 17 18 19 20 20 20 20 21 21 21 22 23 24 25 25 26 27 29 30 30 28
4 6 8 8 10 11 13 10 9 8 8 9 8 8 8 10 11 12 15 18 18 16 19 19 17 16 17 17 18 21 24 30 37 42 45 47 48 45 39 31 27 27 27 28 29 31 32 33 34
12 11 11 14 14 14 13 10 9 11 12 13 12 8 7 7 9 10 12 14 14 16 18 20 19 19 24 31 35 38 36 36 37 39 43 48 49 47 48 48 46 43 42 43 44 41 38 38 37
15 15 14 14 14 12 9 8 6 9 13 11 10 12 11 10 11 14 18 22 25 27 29 36 44 49 50 47 45 42 41 46 51 54 54 51 48 48 49 50 50 50 50 50 49 50 54 52 50
15 14 13 15 13 14 13 10 8 11 14 10 10 11 11 12 14 16 20 25 29 31 34 40 46 49 46 46 49 53 55 53 52 52 54 54 52 50 48 48 48 49 55 59 60 61 61 64 64
15 14 11 12 16 12 13 11 12 14 10 10 12 15 14 14 18 20 20 23 25 33 43 48 58 60 58 58 59 60 57 58 60 59 55 51 51 52 54 54 52 51 50 55 60 65 69 76 79
20 19 18 14 13 18 16 15 16 16 16 17 20 21 23 28 33 28 26 30 34 53 62 64 62 60 64 68 70 66 60 58 60 57 53 57 62 63 59 57 55 54 56 60 66 69 72 76 79
18 18 17 17 14 12 16 18 18 17 17 17 20 22 28 33 33 31 36 40 44 60 59 58 59 66 68 65 61 62 62 62 58 56 51 47 46 51 60 67 70 69 68 72 77 84 87 87 86
14 17 18 19 20 16 20 22 22 20 20 22 24 28 32 37 40 43 47 52 65 67 61 60 65 67 62 56 55 57 62 61 58 58 53 50 48 52 58 65 70 71 68 65 62 60 60 66 70
14 16 16 16 17 19 23 28 28 28 28 28 32 38 42 39 37 40 48 54 55 54 59 66 75 70 67 63 58 51 56 54 50 47 50 56 60 59 58 59 61 61 59 56 54 53 51 54 62
14 11 15 17 20 22 25 30 31 30 31 33 40 45 40 36 38 41 39 41 52 58 73 84 82 72 64 66 65 66 62 60 55 57 57 54 53 53 53 58 61 60 62 61 62 62 60 60 62
12 15 21 21 22 24 28 28 27 29 33 38 50 53 40 39 47 50 58 67 71 68 67 65 67 67 71 71 71 64 62 57 53 50 48 49 51 54 57 66 76 79 83 79 72 68 65 65 63
12 13 18 22 26 28 22 23 23 24 30 48 51 44 42 46 49 49 56 62 60 65 70 71 71 70 65 60 58 56 52 51 48 47 46 46 47 48 52 67 74 80 84 80 76 74 69 64 57
16 18 25 26 26 24 27 30 32 33 50 54 45 46 49 46 45 54 57 59 69 72 68 70 67 59 56 56 56 54 55 54 52 50 48 47 44 40 42 60 70 72 69 63 56 62 45 78 100
17 21 26 28 27 25 33 49 41 43 50 50 47 44 46 49 55 61 64 69 66 70 70 58 57 60 53 50 52 56 59 61 58 52 47 41 40 43 52 66 70 62 47 36 44 67 72 87 100
21 28 29 31 34 30 32 44 47 50 43 41 42 44 52 62 67 66 69 73 80 70 50 49 57 61 52 53 68 74 70 66 54 45 44 44 47 50 54 59 58 44 28 36 83 100 100 100 100
36 34 35 36 38 39 35 31 42 43 44 48 61 65 63 64 63 63 66 71 72 56 49 46 49 57 69 68 67 80 70 47 44 47 53 59 56 51 46 51 43 17 18 47 93 100 100 100 100
48 41 39 37 35 36 40 37 62 53 50 54 52 54 55 56 57 57 50 48 46 47 49 47 56 65 69 72 76 78 74 53 34 34 36 40 30 37 53 25 17 19 45 91 100 100 100 100 100

GFSSGP_500_rhum_018.txt.gz
RH
2 2 4 3 4 4 4 3 4 5 11 20 32 43 51 62 65 65 66 69 69 69 77 82 83 87 84 82 89 88 83 71 80 89 74 84 72 59 41 24 18 20 31 54 88 66 65 64 62
2 2 2 2 3 2 3 4 5 12 22 28 44 60 70 75 75 75 76 72 78 76 61 62 79 79 72 67 74 88 87 77 49 57 64 57 45 38 42 25 24 40 46 80 58 50 54 67 77
1 1 1 1 2 2 2 3 16 31 40 57 64 64 70 74 75 77 87 71 44 27 46 72 71 80 82 89 85 74 58 66 70 56 46 46 42 34 32 35 50 89 82 42 64 71 76 67 59
1 1 2 3 3 4 4 7 14 26 42 43 55 60 65 66 68 70 69 18 11 40 60 71 72 75 71 68 55 56 49 40 40 35 24 21 22 17 19 27 37 21 41 62 62 70 69 62 50
2 2 3 4 4 8 21 26 32 36 26 24 15 8 5 7 22 18 5 10 44 74 73 76 67 51 40 49 28 14 7 5 5 6 7 6 6 8 11 8 7 12 17 27 35 33 37 35 28
4 5 7 7 9 33 42 30 8 4 4 4 4 5 7 9 12 12 17 38 26 36 47 44 39 18 8 6 6 6 8 8 8 8 5 4 6 11 9 6 8 8 10 11 9 10 11 10 7
8 8 11 19 34 34 17 9 9 10 11 12 13 15 17 17 20 22 23 27 31 12 13 18 19 14 12 14 18 18 12 12 17 23 26 24 32 35 22 15 16 17 20 23 25 24 21 16 18
20 20 28 40 38 28 9 10 10 9 6 6 5 9 8 5 4 6 10 14 19 19 18 20 20 20 16 11 4 4 4 5 5 5 5 5 5 6 4 4 4 5 6 8 5 5 5 4 4
36 37 36 31 24 8 4 3 3 3 4 4 4 4 4 4 4 6 7 6 5 6 6 5 4 4 5 5 6 8 8 9 10 10 10 9 9 9 10 10 9 9 9 9 10 10 10 10 9
24 18 15 9 3 2 3 5 7 8 8 8 8 8 8 10 11 11 13 14 15 15 14 13 13 12 11 12 13 15 17 18 18 19 19 19 19 18 18 18 19 20 20 20 20 21 22 21 21
6 4 2 2 4 5 6 8 9 10 9 8 9 10 10 11 12 12 14 13 12 10 12 18 20 18 17 17 17 17 17 18 19 20 20 19 20 20 20 20 21 20 21 21 21 22 22 23 23
3 4 5 6 7 7 7 7 9 8 10 9 9 10 10 11 10 11 12 11 11 12 18 21 21 22 20 17 17 18 18 18 20 22 26 31 36 40 43 45 42 35 27 24 24 25 28 29 30
5 5 6 8 9 9 8 9 8 10 10 10 11 10 10 10 9 9 12 12 10 12 15 16 14 14 15 16 17 20 26 34 40 44 44 45 46 49 55 59 59 57 55 53 46 37 32 31 30
4 6 8 10 11 12 10 12 10 8 8 7 6 7 8 8 7 8 9 9 10 10 11 11 12 13 16 21 28 34 38 41 41 41 42 47 50 52 54 53 52 52 53 54 55 54 51 48 47
9 10 13 14 14 12 13 12 12 12 11 9 7 8 9 8 7 7 7 8 9 11 14 16 23 30 36 38 37 40 40 39 38 42 46 47 47 48 49 48 47 46 46 48 49 50 52 54 56
15 12 14 12 13 14 11 13 9 12 14 10 12 11 11 13 14 14 15 18 24 26 28 30 36 44 49 52 53 50 45 40 38 40 43 43 46 46 47 47 45 44 46 50 51 51 51 51 53
15 14 14 14 13 12 13 11 10 13 12 11 13 13 14 16 14 15 16 19 23 28 33 39 50 59 57 53 47 42 38 38 40 41 44 49 50 50 50 46 46 44 44 45 46 48 52 55 54
16 14 13 12 13 11 14 15 16 16 16 15 16 16 18 21 23 23 23 24 25 29 37 42 48 50 52 52 50 50 55 57 60 63 64 62 61 59 54 50 48 47 46 45 46 51 54 57 57
18 16 15 12 12 14 14 13 14 17 17 17 17 17 20 25 30 32 29 29 34 40 48 57 60 60 52 51 56 53 60 64 65 64 63 64 63 62 59 58 56 53 52 52 54 57 60 64 67
16 19 18 16 14 15 16 15 16 18 18 20 24 28 31 32 34 31 32 40 47 48 66 75 69 60 58 59 62 54 60 62 63 61 64 63 61 57 52 50 50 52 50 49 50 56 66 74 79
12 13 14 15 14 15 19 20 20 24 27 30 31 33 31 28 26 24 35 41 52 62 66 74 74 71 60 52 50 59 58 55 58 58 55 54 49 45 42 41 42 43 45 45 51 55 57 65 70
10 8 9 10 14 16 17 17 22 25 26 27 27 26 24 23 27 34 44 50 59 57 56 63 62 59 58 64 81 74 65 63 56 51 50 50 52 50 49 48 46 46 46 45 46 46 47 54 62
13 12 10 9 14 17 23 21 19 20 23 25 22 21 26 29 35 41 44 51 53 56 61 60 65 70 82 87 74 67 61 61 54 57 57 57 55 55 54 53 51 47 44 40 37 33 32 32 42
14 14 16 14 19 19 23 22 16 19 20 23 31 33 32 35 39 44 51 59 62 61 61 65 61 59 66 66 57 51 55 58 54 51 48 49 53 56 61 58 52 44 42 43 44 45 46 52 59
22 17 14 13 16 23 22 19 18 20 24 31 34 33 39 41 49 53 51 47 51 54 52 46 42 52 57 52 40 35 39 53 61 60 53 56 55 49 48 44 38 29 30 40 47 52 54 60 62
30 26 17 17 18 22 24 25 24 27 35 34 29 35 39 48 52 50 51 53 53 48 43 41 36 37 48 50 46 45 50 61 60 58 58 57 63 60 48 32 9 7 11 20 35 52 59 58 42
29 24 21 21 23 24 27 32 27 35 32 30 34 40 47 46 46 49 49 46 43 36 30 27 26 32 45 57 63 68 68 58 77 100 95 74 69 65 39 44 28 10 7 12 17 27 53 34 30
27 26 24 23 25 22 25 36 42 34 34 38 48 45 43 43 38 34 35 32 28 28 31 36 37 43 51 62 53 53 64 90 100 100 86 66 100 96 87 88 81 34 45 27 22 39 26 20 36
34 32 32 32 33 32 29 32 51 49 48 49 48 44 38 33 32 34 36 36 40 42 46 49 49 52 55 54 47 45 50 54 58 44 29 25 26 35 72 76 28 36 53 20 26 25 35 41 97
38 35 34 31 30 34 44 42 54 52 50 50 44 38 35 35 41 51 52 48 45 45 47 51 52 50 48 48 54 56 74 63 37 18 56 58 12 12 18 11 19 12 21 37 65 80 100 100 100

GFSSGP_500_rhum_021.txt.gz
RH
10 8 6 5 4 4 4 4 4 4 5 11 19 24 41 56 54 56 63 67 68 70 67 63 50 41 38 26 47 54 57 56 59 37 39 41 44 32 30 31 37 32 23 32 38 69 86 64 48
6 5 4 2 2 2 2 2 2 3 7 18 33 48 57 59 59 66 72 73 72 72 40 29 41 57 68 74 69 67 52 64 64 52 50 40 34 22 21 23 24 28 40 62 60 58 54 58 58
5 3 2 1 2 2 2 3 5 7 14 24 40 48 46 50 57 64 68 70 62 26 15 41 70 92 90 67 62 45 32 48 55 37 18 10 11 10 11 22 39 47 42 37 30 58 46 57 55
1 1 1 2 2 3 4 7 7 16 37 43 47 45 46 36 20 24 45 28 10 15 38 60 85 70 65 50 38 27 14 10 8 5 5 4 7 5 8 8 10 12 10 8 9 20 31 34 34
1 1 2 4 7 12 13 12 21 25 29 35 16 12 7 5 6 7 7 6 19 23 38 54 44 45 23 10 7 7 9 13 13 12 11 11 7 4 16 22 22 6 6 7 8 8 9 9 10
2 4 6 9 10 12 17 34 35 14 6 6 7 7 9 11 14 17 18 18 24 25 19 14 20 20 18 16 19 21 17 9 12 14 18 21 20 23 26 25 17 14 16 16 17 20 22 24 23
8 9 12 13 13 19 21 12 8 8 9 11 10 10 12 13 10 8 12 16 19 22 24 20 18 17 21 18 13 5 4 5 5 6 6 6 6 6 5 5 4 5 5 6 6 7 7 5 4
19 27 25 23 21 23 13 8 6 3 3 3 3 3 3 3 5 6 8 8 8 5 4 3 3 4 4 4 5 8 10 11 14 14 15 16 16 15 15 15 14 14 13 12 10 10 10 10 9
42 30 17 20 21 10 3 3 4 5 5 5 5 5 5 5 4 7 6 7 7 7 9 11 12 13 14 15 16 18 19 21 20 19 18 19 21 22 22 22 21 21 21 21 21 20 20 20 20
29 18 14 15 6 3 4 6 6 8 8 9 9 8 8 7 7 7 8 9 10 12 13 15 15 18 21 24 24 23 21 19 18 18 19 21 23 25 28 30 32 33 30 24 22 21 20 21 21
16 14 8 3 4 6 6 7 7 8 9 9 9 10 11 11 12 11 10 11 11 11 13 16 19 20 23 23 21 20 19 19 20 22 27 32 34 35 38 40 43 47 54 56 54 51 44 33 28
4 3 3 5 6 6 7 7 7 7 8 10 12 14 16 15 12 12 13 14 14 19 21 22 22 20 18 17 17 18 19 20 25 31 36 37 36 36 39 42 46 49 50 50 51 52 54 54 53
5 6 6 7 7 9 10 10 9 8 9 10 12 12 15 12 12 12 10 9 9 11 12 13 12 14 17 18 20 23 25 24 26 29 32 33 36 44 49 49 49 49 49 50 51 53 53 53 55
5 7 9 9 9 9 9 9 11 10 9 9 9 10 10 8 9 9 9 8 8 8 8 9 12 16 17 18 21 23 25 30 36 40 42 43 44 46 48 50 52 53 53 50 48 47 50 54 56
7 9 9 9 6 8 10 10 12 12 10 9 10 8 9 11 12 12 11 9 9 9 10 13 20 26 30 36 40 45 46 45 42 36 38 42 45 44 46 48 50 52 53 50 47 48 47 46 47
11 11 12 9 9 11 10 10 12 15 15 10 10 10 12 12 12 13 14 14 16 20 22 27 36 43 46 49 49 47 45 41 38 37 41 46 48 47 45 44 46 48 50 51 50 50 50 48 46
15 18 15 16 14 13 11 10 10 12 11 11 12 13 12 13 16 20 24 27 27 30 36 43 48 48 43 42 39 39 37 38 42 48 56 58 56 51 50 50 51 49 51 52 52 53 50 51 50
19 17 14 13 14 14 16 14 17 16 14 15 17 19 20 21 23 26 27 28 28 30 34 33 35 32 30 30 34 38 42 48 55 64 64 56 53 50 48 47 44 40 40 44 45 46 47 48 49
18 16 14 13 14 14 13 13 13 15 18 21 23 27 30 29 28 30 34 36 35 34 36 38 39 39 36 40 48 56 62 66 70 64 60 53 49 43 37 33 35 37 38 42 43 42 44 46 49
15 16 16 16 16 18 16 16 17 19 21 25 28 29 29 28 31 34 36 36 36 41 44 50 52 51 53 63 68 67 61 59 58 50 47 46 45 44 40 39 41 45 46 47 48 48 45 46 47
11 11 12 13 13 14 14 14 18 20 19 19 26 28 29 33 37 35 34 34 43 51 60 66 71 78 77 68 58 55 50 42 38 43 48 48 49 54 54 54 52 51 51 50 52 54 55 51 49
11 11 9 8 8 10 12 15 16 18 19 24 27 27 28 30 35 35 37 50 56 58 61 57 54 55 58 55 51 50 46 46 55 53 43 42 56 57 61 65 66 62 54 44 51 53 50 44 37
12 12 11 10 9 9 15 16 14 20 24 28 24 25 29 30 34 41 45 45 47 47 48 51 56 55 48 46 44 41 41 48 52 55 52 48 52 58 58 54 50 47 44 41 43 44 40 26 10
22 16 15 15 13 11 16 17 17 20 22 25 24 26 35 39 43 42 40 43 47 48 48 50 46 45 42 35 34 34 31 33 41 52 61 67 77 71 74 70 59 66 80 59 52 57 42 27 38
21 22 21 19 17 15 16 19 22 24 26 22 23 30 34 38 40 41 47 49 50 50 46 43 43 37 34 34 35 36 37 38 38 41 48 68 61 48 52 57 49 45 34 29 15 13 12 27 37
24 26 27 24 19 17 18 22 22 24 25 27 29 33 38 42 49 52 49 44 39 36 33 36 30 32 34 35 37 39 44 49 58 64 65 63 59 53 48 42 36 23 16 13 11 6 5 5 10
33 30 29 28 25 26 26 22 26 34 32 30 36 43 47 50 47 45 39 34 32 30 29 34 39 42 44 48 52 56 59 65 68 65 64 62 58 29 21 25 25 14 10 9 9 8 7 6 7
31 28 28 30 27 27 29 31 36 40 44 40 42 44 45 44 37 34 34 33 35 39 45 51 52 54 56 56 55 57 63 64 62 63 62 42 24 26 26 42 29 12 10 9 8 9 7 13 25
36 36 35 33 31 30 26 30 46 46 47 44 42 41 39 36 38 43 46 48 50 53 55 52 51 48 49 53 52 44 44 51 37 13 10 9 10 11 14 17 12 9 10 25 32 21 42 64 95
29 29 30 31 29 30 37 34 47 49 50 47 48 49 52 52 53 53 52 52 51 50 48 46 50 56 58 51 40 31 24 23 17 10 11 15 16 14 10 8 9 16 42 77 99 100 100 100 100

GFSSGP_500_rhum_024.txt.gz
RH
24 17 12 7 5 4 4 4 4 4 3 4 7 10 16 22 31 38 43 45 53 56 59 61 49 27 15 25 40 41 48 32 28 32 31 29 33 36 34 23 22 24 18 22 38 57 60 62 75
13 12 7 3 3 3 3 2 2 2 3 6 10 15 25 33 42 49 52 56 56 58 49 26 15 15 20 35 48 30 18 11 11 18 22 21 18 17 15 11 16 26 36 40 51 36 35 59 50
7 4 3 2 2 3 2 3 3 3 4 6 10 20 28 33 36 35 29 30 38 39 13 12 36 47 56 53 29 16 9 7 6 8 8 6 5 8 12 10 23 14 8 12 18 17 11 40 51
2 2 1 2 2 2 3 3 4 5 7 9 16 21 26 32 25 6 7 16 17 7 18 18 17 24 29 32 13 8 10 13 16 14 14 12 10 8 5 15 27 26 14 5 6 26 8 8 12
1 1 2 2 3 5 5 6 9 14 18 27 26 9 5 6 7 10 13 13 14 22 23 16 14 18 19 20 19 20 18 11 8 10 15 21 23 19 23 27 25 15 14 14 14 14 14 14 15
2 3 4 5 6 7 10 16 21 24 12 7 6 7 8 10 12 13 14 16 16 19 23 23 22 19 17 18 15 8 4 5 5 6 8 8 7 6 5 5 5 5 5 6 6 6 7 8 7
4 8 14 12 11 13 19 16 13 8 8 8 8 9 8 6 5 6 6 8 12 16 13 6 4 3 4 4 5 7 9 11 12 11 11 11 11 11 12 12 12 12 12 12 12 12 12 11 10
8 14 19 17 19 28 15 9 6 3 3 3 4 3 3 4 4 4 4 4 4 4 5 5 6 7 9 9 11 13 11 11 13 13 14 14 15 15 16 16 16 15 15 15 14 15 15 16 16
30 21 21 21 19 8 4 3 4 4 5 5 5 5 5 5 6 6 5 6 6 6 7 8 9 10 10 11 13 13 14 15 16 17 18 20 23 27 30 33 35 38 40 43 38 29 22 18 17
20 24 20 12 4 3 4 5 6 7 8 8 7 5 6 7 7 7 7 8 10 10 10 12 12 12 12 13 14 15 16 17 18 20 22 28 34 37 39 41 43 46 48 52 54 57 57 52 41
16 14 6 4 3 6 7 7 8 8 9 8 8 8 7 7 7 8 10 9 8 10 9 10 12 12 12 14 15 16 16 18 21 24 25 29 33 35 36 40 44 46 49 51 52 56 56 55 54
11 4 3 3 5 6 6 7 8 8 8 7 7 7 6 6 7 8 8 11 10 8 9 10 11 11 15 16 18 20 24 26 28 29 31 34 40 43 43 43 44 47 48 50 51 51 51 50 49
4 4 4 6 6 8 9 10 10 11 10 10 9 7 7 7 8 7 9 8 7 8 9 9 11 16 20 22 24 25 28 32 37 40 42 42 41 41 46 49 50 48 48 50 51 51 50 49 46
6 7 8 9 9 10 10 9 9 9 9 9 9 10 9 9 8 8 8 8 9 11 13 15 19 23 28 31 32 32 35 42 44 44 42 42 43 45 46 49 51 51 50 50 50 52 53 52 48
7 8 10 11 11 10 11 9 10 9 8 8 9 10 9 8 8 9 11 14 17 20 23 26 27 29 32 37 42 48 50 53 53 47 42 40 42 47 52 53 52 50 50 52 50 50 50 50 50
11 10 9 10 10 10 11 11 14 13 10 9 11 12 14 14 14 14 16 21 26 31 35 41 43 43 45 48 55 59 56 48 41 35 35 39 45 51 56 56 53 50 48 46 44 42 42 43 43
10 13 12 11 11 12 10 11 14 17 14 14 15 17 17 18 18 22 26 31 37 40 41 35 31 32 30 34 40 41 40 38 44 49 50 53 54 51 51 47 43 35 34 34 33 33 33 34 39
18 19 18 16 14 14 12 11 12 11 14 15 18 20 22 24 26 28 32 36 39 37 33 29 30 34 39 46 50 48 49 52 54 55 57 56 50 44 36 30 28 25 26 29 27 28 31 40 44
17 17 15 15 16 13 12 14 15 16 16 20 24 26 28 33 33 35 40 40 40 38 38 37 42 47 54 55 52 50 54 60 56 57 54 46 39 37 31 28 26 26 23 29 37 38 34 38 46
14 14 16 16 17 17 17 17 17 19 19 20 21 27 31 32 35 36 38 41 41 42 44 46 50 52 57 59 58 62 66 63 62 50 41 34 32 32 34 34 33 33 32 38 55 60 52 46 53
11 10 10 10 10 13 14 14 16 17 18 20 24 27 30 33 35 34 39 44 45 46 48 50 57 59 65 67 60 55 52 47 33 32 33 35 32 40 46 51 58 61 57 56 56 58 59 51 46
9 10 10 11 12 10 10 13 14 16 18 21 25 25 25 27 30 37 40 46 49 50 52 60 60 59 56 53 48 42 34 30 33 35 37 41 40 45 46 47 55 61 74 82 67 50 52 62 52
18 17 14 13 13 13 12 18 11 16 22 24 26 25 25 24 30 37 40 42 43 46 50 51 50 47 39 31 31 32 37 42 38 42 44 62 63 59 62 65 58 52 51 49 50 49 51 49 35
20 20 20 20 20 21 16 18 11 21 26 27 27 26 25 31 37 41 42 42 46 50 49 46 37 29 30 33 37 37 43 49 48 46 49 54 60 62 60 58 58 56 57 58 55 43 18 10 10
18 22 22 22 24 27 25 21 16 25 29 29 26 24 32 36 42 43 48 52 53 52 48 38 35 36 36 38 43 48 48 49 54 59 61 58 53 48 49 52 51 45 29 16 8 7 8 10 10
26 27 27 27 27 27 28 25 24 29 31 30 29 32 38 47 51 53 55 54 50 42 39 42 43 44 46 50 55 62 69 66 60 53 49 42 34 28 22 19 18 16 12 8 9 11 11 11 10
33 29 33 32 29 28 30 28 30 37 35 34 36 45 49 52 53 52 49 44 44 47 44 42 46 53 59 66 66 62 55 49 48 47 42 32 23 21 20 17 14 13 17 16 13 10 8 8 9
40 37 36 37 34 33 33 32 36 40 45 44 46 52 52 49 51 49 49 49 45 42 43 48 53 56 57 52 45 44 47 42 35 33 32 27 18 16 16 19 19 18 14 11 10 10 13 17 19
28 29 29 30 31 30 26 30 44 43 43 43 45 54 58 57 55 51 48 45 43 46 49 45 43 44 45 46 43 40 35 34 32 28 22 18 22 23 20 18 18 11 12 13 14 23 41 88 99
47 49 46 46 43 45 46 37 44 44 47 49 53 59 58 53 48 47 47 45 42 41 40 40 41 44 45 45 52 46 41 36 26 24 28 37 32 30 12 13 13 14 18 26 42 81 100 100 100

GFSSGP_500_rhum_027.txt.gz
RH
43 33 23 8 8 8 57 74 13 5 4 4 3 3 5 13 16 45 85 42 39 41 39 31 32 24 16 20 34 39 22 13 8 10 11 24 31 47 12 18 14 13 16 29 33 40 45 26 36
30 19 9 4 5 77 100 20 66 11 3 3 3 5 11 22 26 34 36 36 27 18 20 25 12 16 25 40 34 20 9 8 9 10 11 10 7 7 6 12 9 12 20 20 17 31 26 23 12
15 7 4 2 72 86 100 68 23 3 3 3 4 10 16 22 22 20 18 15 8 13 13 12 17 12 16 23 27 14 11 14 15 15 13 12 10 7 5 5 12 17 18 20 6 7 27 43 14
4 2 2 2 86 70 46 27 3 4 3 4 7 10 17 13 9 9 8 7 8 8 14 18 14 16 19 18 18 19 19 11 6 6 7 13 18 18 15 20 27 28 20 15 14 16 11 8 8
1 1 25 76 44 25 28 4 5 60 22 10 24 12 6 6 6 7 9 11 14 15 19 18 15 12 12 13 12 8 4 4 6 7 7 5 5 6 5 4 4 4 4 4 5 6 7 10 16
2 12 79 95 29 5 4 6 10 38 19 11 7 6 7 7 8 10 10 11 12 11 10 5 4 4 4 5 5 5 6 7 10 10 10 9 8 8 8 9 10 10 10 10 10 10 10 10 7
3 91 95 93 7 8 11 13 15 12 9 7 8 7 5 5 4 4 4 4 4 4 4 4 5 4 5 7 7 8 9 9 10 11 12 13 14 15 17 18 19 18 16 14 13 12 12 12 13
22 92 94 47 36 20 17 13 9 8 5 4 5 3 4 3 4 4 4 4 4 5 5 6 6 7 8 8 9 10 11 12 13 14 16 17 19 23 27 30 32 34 35 36 38 40 40 31 18
9 49 67 58 35 18 8 5 3 4 3 3 3 3 4 5 5 5 5 6 6 6 7 7 7 8 9 10 11 12 12 13 13 14 16 18 22 27 32 33 35 34 35 37 39 42 47 50 48
58 58 56 23 12 4 4 4 5 5 5 5 4 5 5 5 6 6 6 6 7 7 7 8 8 10 10 11 10 10 11 12 14 18 23 27 30 32 32 36 38 42 47 50 51 51 51 50 48
48 63 18 9 3 4 6 7 7 6 6 6 6 6 6 6 7 7 6 7 6 7 7 8 9 9 9 9 9 13 19 24 25 27 31 36 40 42 40 37 35 38 42 42 47 50 51 52 54
21 9 4 3 5 7 8 8 7 8 7 7 6 6 5 5 5 6 7 7 8 8 8 8 8 9 10 13 17 24 30 32 33 34 37 42 43 42 39 37 37 42 44 46 45 44 46 48 49
4 3 3 4 6 7 7 8 8 7 7 8 7 6 7 7 6 7 7 7 6 7 9 12 14 19 23 24 27 30 34 40 42 43 46 47 47 46 43 41 44 46 48 51 50 49 46 46 47
3 4 5 6 6 6 7 9 10 9 8 8 8 8 7 8 9 8 8 9 11 14 19 24 27 29 29 28 29 31 40 44 49 49 48 50 49 49 48 44 43 44 52 54 52 49 47 45 44
7 8 9 10 10 11 12 11 12 9 8 9 8 9 12 12 12 11 14 17 20 25 28 32 32 33 32 34 40 45 49 50 49 49 45 44 45 46 49 48 50 50 48 46 44 39 34 32 30
12 12 30 12 12 12 14 89 10 8 7 7 11 12 15 15 17 18 18 21 24 26 31 33 31 32 37 43 54 57 50 53 54 53 50 47 48 48 46 44 37 31 30 28 25 22 20 21 24
16 78 41 16 11 11 11 75 7 10 9 11 15 17 17 18 18 19 22 25 28 33 38 42 43 41 35 35 42 46 52 55 51 49 48 48 47 43 41 38 35 32 31 36 38 41 34 33 39
63 40 20 19 11 11 13 12 11 12 14 16 16 18 20 22 22 22 28 32 38 38 46 47 50 43 48 44 54 54 55 52 51 48 45 48 44 42 36 31 31 33 31 36 43 42 42 41 40
19 18 18 18 17 16 13 11 12 13 13 14 16 20 24 27 30 30 34 34 36 41 43 48 45 49 52 55 60 62 57 53 57 62 59 61 52 43 35 34 34 35 37 37 39 43 44 45 59
16 16 15 16 16 17 17 16 17 16 17 17 19 20 23 27 31 34 35 38 41 47 51 53 53 58 65 65 65 68 65 65 65 54 49 39 31 35 37 40 41 40 39 40 42 42 43 43 46
14 13 12 12 11 12 12 12 12 14 15 17 18 22 25 26 27 29 33 39 45 52 57 63 66 67 66 69 67 68 67 58 48 36 36 38 45 49 62 55 49 51 54 49 48 48 49 47 48
12 14 13 14 14 52 13 80 40 15 12 16 20 25 26 26 26 30 35 41 48 55 61 58 54 56 64 66 57 49 43 38 39 38 44 50 56 59 59 54 49 51 54 48 46 44 38 35 29
20 20 20 20 20 20 20 18 87 33 20 18 25 30 32 34 36 36 37 42 47 49 48 54 58 60 53 44 41 41 41 43 47 54 52 57 59 55 53 49 49 46 44 38 32 26 21 20 20
16 18 20 21 22 24 41 26 94 75 26 24 29 35 38 37 33 35 40 42 48 56 58 58 56 47 42 48 48 50 54 57 54 53 57 52 51 50 44 38 35 34 34 34 31 24 19 16 15
14 16 24 25 26 62 45 31 60 28 29 31 34 35 32 32 36 40 47 55 54 56 55 51 45 49 45 43 47 51 49 49 46 46 52 52 41 37 37 41 42 36 30 26 22 24 24 22 19
24 27 27 31 36 64 29 35 51 35 40 38 34 35 37 42 48 52 56 56 54 53 50 54 50 47 45 44 45 46 43 44 52 51 47 45 50 47 57 58 57 44 38 31 18 13 10 9 9
34 36 37 37 33 32 38 37 38 35 36 38 38 39 44 48 54 54 57 56 54 49 47 44 43 41 41 44 44 44 47 48 51 54 60 63 67 76 84 76 57 38 17 10 13 13 10 10 10
30 30 31 30 30 30 80 80 100 48 38 37 40 43 44 50 54 60 59 56 54 54 52 48 47 48 47 46 45 50 59 61 52 49 54 74 89 79 66 50 33 11 8 12 12 12 13 15 19
36 36 41 44 47 47 42 48 49 50 50 49 48 56 58 60 61 63 64 64 61 52 43 44 45 49 49 46 49 52 51 50 50 57 66 70 69 64 47 23 13 9 12 14 18 26 44 56 86
41 42 42 43 46 43 49 43 49 58 60 62 62 60 62 68 70 63 57 54 48 44 48 54 52 50 49 50 53 53 52 66 73 66 71 87 63 38 20 24 12 13 20 40 62 74 80 85 92

GFSSGP_500_rhum_030.txt.gz
RH
42 30 16 11 12 10 49 97 94 71 68 12 5 4 4 4 14 42 49 81 75 28 27 27 30 24 16 22 37 36 16 9 6 7 10 11 11 9 10 9 11 12 7 14 23 23 32 38 34
12 10 13 8 10 41 97 86 95 32 20 8 3 3 4 5 6 14 20 20 20 20 18 19 14 14 13 18 21 15 11 13 14 13 12 11 10 7 4 4 6 12 14 12 10 6 10 15 22
52 51 17 12 69 84 96 97 69 36 26 3 3 2 3 4 4 12 19 19 12 7 9 8 13 14 13 14 14 13 11 6 4 4 4 6 9 11 12 15 17 21 25 26 21 11 9 9 21
18 7 17 43 97 94 99 93 54 53 10 5 4 5 6 6 7 8 9 6 7 8 10 12 14 9 6 5 6 4 4 4 6 6 6 4 5 6 7 5 4 4 4 4 5 6 7 9 11
19 2 15 87 96 97 97 72 66 17 66 32 14 5 7 6 6 6 7 7 8 10 10 7 3 2 3 3 4 4 5 6 8 9 9 8 7 6 7 8 8 8 8 8 8 8 8 8 6
2 9 65 99 82 91 78 52 17 92 83 17 8 6 6 5 5 6 6 6 6 4 3 3 4 6 6 6 6 7 7 8 10 11 12 13 14 16 17 19 20 21 21 20 18 14 11 10 10
14 37 82 96 74 52 13 7 19 34 21 8 7 4 4 4 3 3 4 4 3 4 4 5 6 6 7 7 8 9 10 10 12 13 14 16 18 20 23 26 29 31 32 32 32 33 34 32 27
25 94 99 96 96 53 14 13 12 10 5 7 6 3 3 3 3 3 4 4 5 5 5 6 6 7 8 9 10 11 12 12 12 13 14 15 18 20 24 28 32 33 33 33 37 42 43 43 44
52 98 98 90 90 46 19 12 6 3 2 3 3 3 4 4 4 5 5 5 6 6 6 7 8 9 9 10 10 10 10 10 11 12 14 17 20 26 34 37 38 41 41 40 40 41 42 46 48
64 64 70 66 52 20 8 4 4 4 3 3 3 4 5 6 6 6 6 6 6 6 7 7 7 7 8 8 8 10 10 14 18 22 26 30 32 38 36 42 40 40 36 35 43 43 44 44 44
73 66 63 47 29 4 4 4 5 5 3 4 4 5 6 6 6 5 5 5 6 6 6 7 7 7 9 12 16 19 20 23 28 33 36 38 36 38 40 41 40 39 39 37 41 45 47 45 43
72 70 60 20 5 3 5 6 6 6 6 6 7 7 7 6 6 6 6 6 5 6 6 8 11 15 20 24 24 23 26 30 35 41 46 41 41 39 37 34 30 28 28 32 33 36 41 44 45
26 30 13 4 5 6 6 6 7 6 7 8 7 6 7 7 6 6 6 6 7 9 11 15 18 24 27 27 26 29 33 39 43 42 41 44 45 46 43 42 45 46 47 47 47 44 40 39 37
5 4 3 5 6 6 7 7 8 8 8 7 8 7 7 7 6 7 9 11 13 15 15 16 23 29 30 33 36 38 46 44 49 43 43 48 54 56 52 50 50 47 45 44 40 32 27 24 26
4 5 6 6 6 7 8 8 13 8 9 8 10 9 9 11 15 12 15 16 17 16 20 25 29 31 31 34 43 45 47 48 46 44 48 52 52 49 49 48 48 45 39 32 27 25 24 24 24
7 9 22 18 11 10 13 48 24 10 13 11 10 13 20 16 13 14 14 18 19 25 28 28 24 23 34 36 42 44 38 45 47 51 50 45 50 50 50 44 39 31 24 24 25 27 27 27 26
17 87 86 47 14 13 13 84 83 16 12 15 20 19 16 21 16 19 16 24 27 29 29 30 24 24 34 45 50 51 55 57 50 47 43 44 50 46 44 32 30 26 24 26 29 30 32 32 33
96 69 70 32 12 12 14 34 14 16 14 16 19 21 15 17 23 18 20 29 28 29 31 32 39 37 60 65 53 65 59 55 50 52 49 54 50 36 30 29 27 27 27 31 36 35 34 34 35
58 34 40 43 12 16 15 20 10 17 14 13 13 17 19 18 22 23 24 28 23 27 29 48 48 64 60 59 65 60 58 51 52 56 47 46 30 33 33 32 34 35 35 39 40 38 37 37 37
37 26 34 17 17 18 18 25 13 19 17 15 13 14 19 22 24 26 28 29 28 36 44 57 65 68 71 67 64 63 58 61 63 58 38 37 38 38 38 40 40 41 42 42 41 36 30 27 29
22 20 16 18 13 15 17 30 11 12 15 16 10 10 16 20 26 30 34 38 42 51 60 66 58 63 75 62 50 58 64 58 47 46 46 44 42 41 44 44 42 36 36 37 36 34 32 31 31
14 12 12 13 15 24 34 41 78 27 29 24 20 16 22 24 27 32 36 39 47 55 56 53 49 50 56 64 64 58 49 50 52 49 45 45 51 52 47 43 42 42 45 41 40 39 40 41 38
16 20 20 21 21 24 29 30 90 54 34 28 37 37 29 32 35 39 43 46 50 49 47 50 56 56 52 56 52 51 50 48 49 50 46 43 39 39 42 48 50 50 56 65 58 50 52 64 64
19 16 15 14 16 19 28 57 99 98 88 37 40 35 32 38 39 42 46 40 39 45 53 60 59 56 51 48 49 47 46 44 42 41 40 41 45 48 51 53 52 48 50 54 68 89 79 59 50
22 22 24 44 78 88 99 88 96 73 100 77 46 40 40 41 44 44 41 42 44 48 52 59 59 55 51 50 46 41 42 43 44 46 45 47 51 54 53 53 54 58 65 68 61 55 50 36 16
25 30 29 31 40 46 44 59 62 58 90 99 63 48 44 45 44 43 44 45 47 52 60 60 57 59 56 51 45 45 46 50 51 47 48 55 63 63 62 70 72 64 58 60 49 26 8 6 5
30 30 31 30 31 31 34 57 93 95 98 79 66 61 41 41 41 45 49 54 61 66 64 61 61 58 55 53 55 56 56 54 54 62 68 65 61 70 71 69 64 62 50 26 8 7 7 8 8
35 36 37 36 36 37 59 89 95 87 64 69 67 59 49 50 56 58 59 69 70 68 66 63 57 50 44 44 46 46 48 54 61 60 62 72 82 70 70 67 52 25 12 10 10 11 12 20 33
32 32 33 36 43 42 43 53 63 66 78 76 78 69 61 63 66 65 72 78 75 68 52 39 39 39 37 34 34 38 44 55 57 65 74 71 70 70 60 36 19 13 11 12 14 19 39 54 62
33 35 35 33 35 41 46 40 53 57 70 81 86 81 73 81 82 84 78 67 47 40 42 39 31 27 27 28 36 45 45 57 80 89 94 78 63 55 28 21 18 18 17 17 28 48 50 58 53

GFSSGP_500_rhum_033.txt.gz
RH
96 91 46 26 14 29 98 74 96 100 95 88 66 58 45 22 27 24 52 56 68 38 28 28 15 17 14 13 14 26 22 12 9 12 13 13 12 9 6 4 4 5 7 10 11 11 15 19 31
91 50 17 12 18 60 62 64 100 96 97 65 36 29 10 8 11 7 12 54 28 24 23 10 9 8 14 12 13 12 11 8 4 3 3 4 7 7 8 10 12 12 20 26 29 15 8 6 7
59 28 21 33 72 84 71 91 98 94 68 76 43 6 3 5 10 14 18 39 24 17 6 7 7 13 11 9 9 6 4 4 4 5 5 5 5 5 5 4 4 4 5 6 5 6 7 8 9
25 20 75 95 79 92 75 97 100 94 86 65 45 5 6 16 10 10 10 22 9 6 7 8 11 7 3 3 3 5 6 7 8 8 8 8 7 8 9 9 10 10 9 9 8 8 8 7 6
25 38 96 76 75 95 100 98 99 94 91 63 9 12 8 18 12 6 6 6 6 6 9 6 2 3 4 5 6 6 7 8 9 11 12 13 14 15 17 16 17 20 21 20 20 18 16 11 10
55 77 82 72 97 93 84 99 96 80 65 17 5 7 7 6 5 5 6 6 7 6 3 3 5 6 6 7 8 8 9 11 12 13 14 15 17 18 21 24 26 27 29 30 30 30 30 31 28
89 97 94 77 96 92 100 96 78 58 46 6 6 5 4 4 3 2 4 5 3 3 4 5 6 6 7 8 10 11 11 12 12 12 13 14 14 17 20 23 24 27 29 30 30 32 35 37 38
96 86 81 80 92 82 82 75 32 7 8 10 4 5 4 3 3 3 3 3 4 5 5 6 7 9 10 10 9 9 9 9 10 11 13 15 17 19 22 25 31 37 38 38 36 33 31 34 34
75 74 92 85 99 97 94 52 12 9 3 2 4 4 4 4 4 4 4 5 5 6 8 8 8 7 7 7 8 9 11 13 16 20 22 25 29 33 36 39 41 39 37 35 35 33 36 37 39
89 93 95 94 93 73 47 15 8 3 3 3 3 3 4 4 5 5 6 6 7 7 7 7 7 7 7 9 14 19 22 24 23 21 23 26 32 33 30 34 37 40 41 40 38 37 38 40 42
70 74 81 94 75 40 10 4 4 4 3 3 3 4 5 5 5 4 4 5 6 6 7 6 7 9 13 18 22 20 22 24 25 29 24 24 27 33 40 44 40 36 36 40 43 44 42 42 43
70 73 68 70 64 17 3 5 4 4 5 5 5 6 6 5 5 5 5 5 6 6 7 8 12 14 15 18 18 17 22 15 16 22 29 31 39 42 46 47 44 41 40 37 39 41 41 41 40
41 42 67 64 32 5 6 7 6 7 6 6 6 6 6 6 6 6 6 7 8 10 12 13 13 16 20 21 20 20 24 18 18 27 34 40 46 49 49 46 42 39 39 39 39 38 37 28 18
25 22 15 8 6 7 8 8 7 7 7 6 6 6 5 6 6 8 10 9 9 9 11 16 20 22 21 21 28 32 34 31 29 37 41 44 45 51 48 45 42 41 41 41 38 34 25 19 19
4 4 4 6 8 9 9 10 6 8 8 8 8 5 5 6 8 8 10 13 13 13 14 21 26 27 18 19 27 22 41 48 46 41 39 42 45 44 46 47 45 39 28 23 22 21 18 18 20
9 10 13 22 13 14 10 7 7 10 12 8 9 9 8 7 8 8 8 14 21 17 18 16 12 23 93 89 79 81 76 68 61 48 40 45 44 52 50 45 33 25 24 23 24 24 24 23 22
90 96 62 35 17 12 10 6 5 8 10 12 14 9 12 12 9 12 17 22 20 23 26 17 23 21 35 68 70 60 65 69 53 40 39 42 44 48 41 31 30 32 31 32 33 32 30 29 29
71 89 92 61 22 13 13 12 7 9 15 14 12 16 9 13 18 19 20 21 25 26 31 50 32 23 36 40 47 53 45 48 47 45 50 48 45 38 34 36 36 37 37 38 39 36 36 34 30
77 76 64 11 12 16 16 17 11 10 15 18 19 19 22 24 25 24 23 28 41 64 78 58 41 34 39 39 42 59 52 53 53 53 50 42 40 41 43 43 40 39 36 33 31 29 28 28 30
77 63 31 12 15 18 18 20 18 16 19 16 19 24 25 27 29 30 40 47 58 74 55 42 56 63 49 49 55 55 61 64 64 60 48 49 47 42 39 34 32 31 32 33 34 35 33 32 33
20 30 29 20 14 18 19 17 20 15 19 44 40 42 34 38 35 38 42 43 43 44 49 58 68 60 47 50 58 64 63 63 59 58 52 45 41 38 36 37 37 37 36 36 34 34 38 41 43
17 17 18 15 15 17 18 27 24 20 22 17 19 28 39 50 48 39 46 56 60 62 59 56 46 47 57 63 63 60 58 57 56 53 50 46 45 44 45 46 46 44 43 42 45 46 45 46 47
19 22 20 21 22 21 25 26 30 43 46 20 54 67 56 56 60 41 44 48 52 54 49 45 48 48 52 62 64 60 58 61 64 55 46 45 50 53 52 53 54 54 55 57 56 56 55 55 52
20 17 17 15 14 13 14 25 39 66 45 76 88 82 95 64 39 40 45 48 51 51 53 55 53 54 57 58 58 62 62 54 46 45 44 47 50 54 58 60 58 58 59 60 60 71 69 64 60
19 21 20 20 27 35 63 88 90 96 99 71 49 60 56 72 58 48 47 42 42 47 50 59 67 71 70 70 73 58 43 36 26 23 27 38 52 51 50 52 55 66 74 82 74 64 57 48 29
20 23 25 28 28 28 40 37 37 39 64 73 89 86 92 72 64 62 65 55 52 58 61 66 72 76 84 66 50 50 40 28 25 26 30 35 41 39 47 63 61 82 74 66 60 46 24 9 7
29 32 34 36 38 39 41 37 36 78 96 98 100 99 98 70 73 74 70 69 70 70 76 80 83 70 56 49 28 28 30 28 27 36 47 51 61 72 84 87 90 76 60 45 26 11 10 10 11
32 31 30 30 27 28 40 59 64 61 66 72 65 66 67 89 67 63 72 74 82 86 84 66 50 43 27 28 31 31 24 26 46 60 62 86 100 100 100 88 65 43 28 15 13 12 15 18 19
28 29 26 26 26 28 26 33 45 58 63 69 76 71 66 76 76 84 88 98 94 68 49 45 32 26 26 25 24 26 30 33 47 52 72 84 73 68 62 47 30 20 16 16 18 21 22 23 39
31 29 25 23 28 36 36 42 47 61 67 83 99 100 100 100 100 94 82 62 51 49 45 33 31 26 27 30 34 36 35 35 45 83 70 57 43 34 24 18 22 19 20 26 26 26 28 64 83

GFSSGP_500_rhum_036.txt.gz
RH
96 96 94 94 64 78 74 84 57 78 77 71 72 78 74 80 44 94 44 29 51 76 63 26 19 9 10 11 11 10 10 12 9 8 4 4 6 8 6 6 7 8 10 15 20 17 9 6 7
73 58 93 94 51 68 84 87 59 94 96 97 94 91 96 75 36 16 26 45 35 78 30 15 7 8 10 13 10 9 8 5 3 4 4 4 5 5 5 5 5 5 7 7 7 7 9 9 9
96 94 84 19 18 73 79 76 69 70 81 96 87 99 81 39 9 5 8 16 23 55 17 6 6 8 12 6 6 5 4 5 7 8 8 8 8 12 12 10 9 8 7 6 7 7 7 7 6
74 77 30 22 66 66 82 75 63 97 83 91 68 88 82 22 8 7 8 11 31 14 6 6 9 7 3 3 4 6 7 8 9 11 12 13 15 15 15 16 18 17 16 16 16 14 13 11 10
59 31 55 60 88 94 90 87 70 96 86 77 80 92 42 12 10 33 22 11 20 6 6 8 3 3 5 6 7 7 8 9 11 12 14 15 16 18 19 20 22 22 23 24 25 26 27 28 30
76 80 95 95 86 91 88 94 71 66 91 81 84 60 17 5 7 8 6 6 5 6 6 3 4 5 7 8 9 10 11 11 12 12 13 13 13 15 17 19 20 23 27 29 31 31 31 32 34
50 97 87 71 92 83 98 97 79 70 53 40 59 22 6 5 5 3 4 5 6 4 3 5 6 7 9 10 10 10 10 10 10 11 11 12 13 15 17 18 21 24 28 32 32 32 34 35 35
83 85 77 82 97 94 97 91 77 61 48 15 8 4 3 5 3 2 4 4 3 4 5 6 8 9 9 9 8 8 9 11 14 16 19 22 22 25 27 27 28 28 31 31 31 30 28 27 32
96 92 91 86 91 96 84 90 91 78 27 6 6 3 3 3 3 3 3 4 5 5 6 8 8 7 7 8 8 11 18 22 23 24 21 20 22 23 28 29 32 34 29 26 26 25 26 28 30
98 86 68 84 97 97 95 79 87 36 7 3 4 3 4 4 4 4 5 6 7 7 7 6 6 6 7 10 15 21 26 28 26 23 20 22 27 30 32 33 36 40 39 38 32 28 28 31 33
83 98 95 90 85 88 73 34 39 8 3 4 3 4 4 5 5 5 5 5 6 6 6 6 7 8 12 17 22 31 33 25 18 16 18 25 29 29 33 34 33 34 37 40 38 39 39 39 40
78 75 72 74 94 77 62 5 4 4 4 4 4 5 5 5 4 5 5 5 5 6 7 8 10 13 15 21 29 32 30 30 31 24 23 26 24 27 30 30 31 32 33 35 36 36 38 38 38
76 76 73 73 74 67 13 5 6 8 6 6 6 6 5 4 5 5 5 6 8 10 11 11 13 15 20 24 27 25 19 24 29 34 38 33 34 37 36 35 33 32 38 37 37 34 28 28 28
63 70 68 66 63 11 8 7 6 6 6 7 7 7 6 5 6 6 8 8 9 11 14 19 19 17 24 25 41 64 61 55 64 63 65 61 51 42 40 38 37 40 41 36 30 23 21 21 22
38 14 14 12 8 10 12 7 7 7 6 6 6 5 5 6 7 8 9 11 9 10 15 22 22 27 40 50 88 88 69 61 55 65 63 54 48 46 48 48 46 43 38 31 28 26 25 24 24
6 7 17 13 12 12 10 7 15 10 10 7 5 4 5 5 6 7 7 9 8 9 11 14 32 53 84 89 60 60 72 61 51 50 48 52 50 52 53 48 41 37 36 36 34 31 30 29 26
22 21 19 19 23 14 7 8 6 16 8 6 5 6 7 10 12 10 9 9 10 13 15 20 36 73 97 97 78 67 48 50 57 54 50 48 48 49 48 46 45 42 38 35 32 31 29 28 28
83 53 25 31 39 27 12 12 8 6 11 13 12 14 15 15 14 10 7 11 19 34 47 70 88 100 100 93 71 52 55 54 57 54 51 50 46 45 44 43 42 43 44 43 42 41 39 38 36
84 54 31 45 33 40 36 14 12 9 14 20 25 21 21 21 18 14 12 15 52 65 79 84 98 87 67 42 37 46 49 55 69 62 58 53 50 49 54 59 55 50 44 41 39 36 32 27 22
81 85 39 17 27 28 22 21 18 17 15 14 16 23 34 54 38 33 27 57 68 69 85 84 40 38 37 44 50 51 58 64 65 63 60 59 62 70 64 49 42 36 28 20 15 13 17 20 20
81 66 44 44 34 28 16 14 13 12 12 13 28 55 62 78 76 76 70 54 54 47 42 40 44 47 50 57 56 60 67 74 74 69 68 81 81 55 46 33 23 20 17 16 17 22 25 26 26
22 33 51 33 20 17 19 18 14 13 13 13 18 42 95 100 99 93 88 91 76 59 58 65 72 75 69 59 60 62 72 78 79 89 93 62 42 32 29 30 28 22 23 29 29 27 25 27 31
15 14 15 18 20 19 24 21 20 17 15 17 24 70 100 98 96 100 100 86 60 61 70 66 61 58 57 59 69 76 80 79 94 77 53 39 34 36 38 35 37 42 45 40 36 37 40 48 59
22 21 19 16 15 13 13 15 18 34 43 54 40 87 99 96 88 67 60 76 80 83 72 76 59 58 67 74 83 89 86 56 38 27 30 34 38 40 37 37 41 43 47 47 55 58 66 68 74
13 17 18 18 19 32 45 51 73 83 77 81 57 55 36 49 63 71 95 100 94 86 83 73 68 69 69 82 88 60 38 27 31 33 36 35 30 29 32 36 38 44 43 43 51 74 98 100 100
20 25 26 27 30 32 29 28 30 36 37 35 73 73 60 69 95 99 97 70 69 76 88 88 83 88 92 68 56 51 36 35 33 28 22 20 27 29 34 32 30 31 36 44 42 41 40 34 26
31 32 31 30 29 27 26 28 30 32 34 57 90 98 98 95 84 60 56 59 89 84 87 84 71 52 49 40 34 34 31 24 18 20 26 36 36 33 29 28 22 15 12 11 13 17 17 16 18
29 30 26 23 22 24 26 27 30 34 32 38 40 47 55 62 61 60 77 93 76 66 55 51 45 37 36 37 34 29 20 17 21 31 40 41 37 32 23 12 9 9 10 12 14 16 19 23 26
31 28 23 21 21 21 20 24 28 31 36 36 38 44 50 62 81 83 100 90 62 52 47 40 38 38 39 34 26 22 20 26 34 42 43 38 27 12 9 9 8 9 13 18 19 22 25 27 28
26 24 22 21 20 21 20 24 22 29 30 38 51 59 73 100 98 100 84 62 58 55 52 45 42 37 29 26 26 29 37 40 43 43 34 15 9 9 8 7 8 22 39 28 23 29 32 34 37

GFSSGP_500_rhum_039.txt.gz
RH
97 97 96 97 81 94 84 59 55 50 47 45 43 70 78 84 90 94 70 40 30 37 49 46 56 15 6 6 11 11 8 6 5 4 4 4 5 6 6 6 7 6 8 8 7 6 6 7 7
94 90 95 78 94 79 62 68 70 62 63 58 88 97 85 90 90 82 54 30 14 33 48 46 17 6 6 11 10 7 4 4 5 7 8 8 10 10 10 10 9 8 7 7 7 8 8 8 7
90 71 83 85 94 79 80 85 96 74 79 81 96 97 86 98 88 63 44 17 18 17 24 35 6 6 8 8 5 4 4 6 8 9 9 11 12 13 14 14 15 15 14 14 13 13 12 12 11
90 72 41 65 95 79 70 89 95 100 97 94 96 95 97 91 93 79 50 15 10 13 20 6 6 8 4 3 4 6 7 9 10 11 13 14 15 16 17 17 18 18 19 20 22 23 25 26 27
91 81 90 62 39 47 64 75 93 96 85 96 87 96 89 96 70 32 20 14 15 15 9 6 5 3 5 7 8 8 8 9 10 12 13 14 14 15 16 18 20 22 24 26 26 27 28 28 27
94 96 85 43 25 62 57 70 75 92 91 96 93 91 80 63 43 23 19 23 12 6 6 4 3 6 6 7 8 9 10 11 11 11 11 11 12 12 13 15 17 20 21 23 25 27 30 31 32
96 64 75 70 63 82 96 91 95 96 97 95 92 57 42 31 21 9 6 6 5 6 4 4 5 6 8 9 10 10 10 10 10 10 13 15 18 20 23 26 28 28 28 28 28 30 30 32 30
100 89 88 86 96 85 96 97 96 97 98 94 67 20 11 6 4 4 4 4 6 4 4 6 7 8 9 9 9 9 9 10 14 18 19 20 22 22 23 23 25 26 28 30 27 26 24 25 26
81 83 93 83 96 86 97 90 93 93 91 73 35 7 6 3 3 3 4 5 4 4 5 6 8 8 8 7 7 8 10 18 23 22 17 17 18 20 24 27 31 32 35 35 34 35 35 31 27
93 92 82 95 94 96 93 88 61 54 63 38 3 5 3 4 4 4 4 4 5 6 8 8 8 7 7 7 9 13 20 22 20 19 19 20 24 25 24 27 29 35 36 34 32 31 31 32 33
98 97 89 93 88 97 88 68 34 21 23 4 4 4 4 5 5 5 6 6 6 6 6 6 6 6 7 10 14 18 17 20 22 18 18 20 21 27 31 33 34 34 34 34 31 34 37 36 37
97 96 96 92 88 70 78 57 7 5 4 4 3 4 5 6 5 5 6 6 7 6 6 6 8 10 12 17 19 18 24 26 22 34 40 53 60 59 51 44 33 32 37 36 34 39 40 39 34
92 85 88 77 93 96 76 30 7 5 7 6 5 5 6 5 6 6 6 7 8 9 9 10 12 15 18 21 24 29 33 36 86 80 66 58 51 49 38 38 38 39 41 41 40 40 36 31 27
76 79 72 69 73 70 32 8 10 10 10 8 6 5 5 5 5 6 10 14 14 14 14 17 19 21 22 28 31 37 66 76 61 60 53 41 34 31 37 45 44 42 39 38 37 35 33 31 28
38 73 57 53 63 24 8 8 8 8 7 7 6 5 4 5 7 12 16 19 18 15 16 12 13 17 25 54 86 94 69 61 62 46 47 54 53 51 51 48 45 42 39 38 37 35 33 33 32
20 33 32 19 7 8 8 10 9 8 6 5 4 5 7 8 8 12 12 15 18 14 13 12 30 37 66 84 90 97 97 81 44 48 48 49 54 55 55 52 49 47 45 44 46 46 47 45 42
8 20 15 15 17 14 11 12 9 9 7 7 8 7 7 6 6 8 11 10 8 8 12 42 72 90 95 97 98 95 60 56 48 45 51 54 51 51 54 55 54 56 63 61 54 43 29 20 16
14 14 22 24 23 10 9 9 7 8 10 9 8 7 6 7 11 11 11 11 10 11 42 67 92 98 97 97 96 78 45 46 45 50 54 48 53 58 59 60 63 57 41 29 19 14 15 14 12
26 21 40 24 24 20 10 7 9 9 10 14 15 12 16 18 18 21 20 24 31 58 78 99 99 100 89 78 61 46 46 56 60 48 49 58 64 66 66 64 38 27 21 19 17 18 18 18 16
60 36 23 27 37 24 22 18 12 13 13 13 20 28 30 44 67 36 31 63 77 98 88 70 55 47 54 64 63 59 51 46 45 49 61 71 75 76 72 46 35 26 24 20 18 16 15 14 13
72 50 44 43 40 29 22 15 14 14 15 23 25 28 60 63 52 65 62 78 81 75 66 64 50 41 43 48 54 53 52 52 56 67 75 77 74 58 44 35 29 28 25 22 21 22 22 20 21
53 53 55 51 39 42 31 16 13 15 20 22 25 24 41 52 87 95 95 92 84 94 89 75 68 64 64 63 72 67 61 65 79 91 94 88 82 72 50 38 38 39 38 33 29 27 28 29 26
23 24 24 21 18 18 19 21 17 19 19 23 38 49 54 78 100 99 98 98 95 100 92 90 90 100 100 100 95 79 77 93 100 100 93 58 39 36 36 36 36 30 25 28 32 35 33 29 26
21 22 23 23 22 21 19 17 13 15 24 65 78 88 97 97 94 84 51 61 86 78 95 95 99 100 96 84 84 93 98 97 74 55 46 41 39 33 22 19 21 26 31 33 32 28 22 16 12
24 19 18 20 21 20 18 21 23 26 30 41 37 36 38 46 67 74 93 99 99 98 95 100 100 98 86 94 97 85 59 52 49 45 38 27 19 17 18 20 23 26 29 28 23 15 11 9 9
19 21 24 24 26 28 28 24 21 20 21 22 25 31 34 38 100 100 100 100 95 97 100 99 85 82 84 58 51 46 41 38 28 21 19 18 16 17 17 20 27 30 26 17 13 10 9 8 8
26 30 30 28 24 21 21 19 18 20 23 27 31 33 34 36 41 51 54 59 66 72 63 62 57 47 43 39 36 30 25 20 20 18 17 19 21 24 27 34 32 24 17 12 11 8 8 10 18
30 28 26 22 20 20 18 17 15 14 14 20 29 37 42 51 54 55 59 66 68 57 54 52 47 43 40 36 28 21 20 19 18 18 19 23 26 31 41 34 25 18 13 10 8 8 12 45 43
30 30 23 20 18 18 17 17 17 18 16 14 16 17 25 38 46 57 65 71 66 64 59 52 49 48 40 26 22 22 21 22 23 24 25 32 38 43 38 30 20 13 10 8 10 20 45 52 57
30 26 23 20 18 18 19 18 18 20 19 16 14 15 18 26 40 49 53 56 60 56 57 57 54 39 26 24 28 26 28 29 28 30 33 38 41 40 36 24 12 9 13 21 43 81 96 99 54

GFSSGP_500_rhum_042.txt.gz
RH
79 83 88 80 92 92 80 79 80 77 64 51 43 44 62 79 86 88 85 89 95 78 65 40 59 33 18 6 7 9 7 5 5 5 6 9 10 10 9 11 12 13 12 12 11 12 12 11 11
43 42 70 88 79 88 97 96 84 74 81 67 76 81 96 94 90 86 87 88 94 62 39 34 28 29 8 6 8 7 6 6 6 7 9 10 12 14 15 16 16 17 16 17 17 17 18 18 17
37 51 70 87 88 93 98 81 83 57 62 72 92 87 95 96 96 96 96 77 74 62 30 12 18 22 6 8 5 5 5 5 7 9 10 12 14 15 16 16 16 18 19 19 19 20 22 23 25
87 72 87 70 80 83 92 63 73 100 84 87 84 88 96 94 94 96 87 69 47 31 17 15 19 6 6 4 4 5 6 8 8 10 13 14 15 16 16 17 18 19 20 21 22 22 23 24 26
94 96 90 85 64 74 90 65 94 95 99 96 97 97 97 96 95 74 63 44 32 24 20 19 6 6 3 5 7 7 8 8 9 11 12 12 12 12 12 13 14 14 16 18 19 21 22 24 27
95 99 84 74 62 72 88 82 95 94 97 97 90 93 95 92 70 43 32 24 33 32 13 8 6 4 6 7 7 7 8 10 11 11 11 11 12 14 16 18 19 20 21 22 22 22 23 24 26
99 98 80 82 81 59 81 94 95 90 94 92 93 91 69 48 27 25 10 8 8 8 6 6 4 5 6 6 7 9 10 10 10 10 11 15 18 17 17 20 20 20 20 23 28 30 29 28 23
90 97 96 93 91 50 61 94 94 97 96 95 92 67 40 18 9 5 7 7 7 6 6 4 5 6 8 8 9 9 9 9 10 12 18 19 18 18 18 21 22 23 25 27 30 31 30 30 31
99 99 76 96 91 95 87 95 97 94 78 80 76 27 10 6 4 4 6 7 6 5 4 5 7 8 8 9 8 8 8 10 12 18 22 21 18 14 15 19 21 23 25 29 35 31 30 29 29
100 96 90 92 95 97 94 96 93 80 39 30 8 4 5 4 4 4 5 5 4 4 5 6 7 8 8 8 8 8 10 14 19 20 22 23 17 17 22 30 35 33 38 37 33 34 33 32 34
99 92 96 94 96 98 90 86 49 17 19 6 6 5 5 5 5 5 5 5 5 6 6 7 7 8 8 8 9 11 15 17 21 26 26 42 71 65 60 55 54 47 36 34 37 40 41 39 39
97 97 95 96 96 92 72 65 11 5 5 4 4 4 6 6 6 6 6 6 6 6 6 6 7 8 10 12 14 17 19 23 26 30 72 69 70 59 52 44 33 30 36 39 40 41 42 44 43
98 95 96 97 95 91 69 54 9 7 7 5 6 7 6 6 6 7 7 7 7 8 10 11 12 13 15 16 17 20 24 29 55 70 77 62 53 51 46 37 40 36 36 36 38 40 39 38 38
96 92 82 85 84 82 70 24 11 14 11 8 8 8 7 8 9 12 14 13 12 11 12 13 14 17 18 17 17 22 30 43 69 96 88 58 53 52 48 44 38 34 34 40 41 41 40 39 40
83 85 91 84 74 70 50 10 11 14 12 9 9 9 8 9 11 15 16 16 18 18 19 21 23 24 20 33 39 45 72 94 98 93 63 49 42 38 41 43 34 37 43 46 47 46 47 47 48
81 73 63 48 50 23 8 9 12 15 13 10 11 8 8 9 12 18 20 20 23 20 18 16 24 67 76 71 89 99 98 98 96 97 61 46 40 44 44 37 41 49 53 54 55 59 55 44 28
37 50 35 26 9 9 11 16 17 14 14 17 12 9 9 10 13 14 15 16 16 16 14 22 66 75 67 86 98 96 98 98 96 85 65 45 46 38 34 42 54 58 60 62 51 30 20 18 17
37 23 16 16 11 12 13 13 14 24 31 18 12 10 10 10 11 11 11 12 12 20 28 34 75 77 98 96 96 98 79 58 58 72 44 37 39 41 49 56 62 64 58 36 25 23 21 16 13
14 17 19 10 13 17 14 19 18 15 15 16 16 14 12 11 15 20 29 22 23 43 57 61 91 97 96 83 51 42 29 30 36 46 49 58 60 58 56 63 66 50 34 29 26 25 21 16 13
19 36 58 36 25 25 21 15 14 14 14 12 12 12 13 14 26 34 32 35 53 73 84 94 78 58 53 62 58 45 53 58 61 66 72 69 66 66 70 68 50 39 34 31 29 21 16 15 16
67 41 52 49 38 33 25 21 17 13 13 11 12 15 19 24 29 29 40 77 81 77 61 61 62 64 79 83 66 59 57 60 68 72 72 73 77 78 63 64 63 51 42 41 37 28 21 19 18
78 53 39 42 37 34 28 19 11 11 14 18 21 22 18 21 23 20 27 69 81 79 77 62 90 98 71 68 74 72 71 72 78 81 84 88 82 78 73 60 49 45 37 25 19 17 16 16 17
33 25 22 22 21 16 14 14 14 16 16 18 17 19 34 50 50 76 68 71 93 91 63 70 85 82 96 91 95 92 78 88 90 94 77 66 58 48 42 35 24 17 15 14 14 16 18 21 25
21 20 18 16 17 18 17 16 14 18 27 30 32 39 54 40 43 42 47 74 94 72 77 100 100 100 100 100 90 89 100 100 79 61 56 47 37 26 19 17 16 16 17 18 19 22 26 30 34
17 20 20 18 17 18 19 21 24 24 23 24 25 28 30 34 34 40 44 75 94 98 98 93 84 90 95 93 93 98 86 57 46 40 30 23 20 18 17 17 18 19 20 22 27 32 37 38 35
21 18 19 21 24 29 27 20 17 16 15 16 22 25 27 32 36 41 46 42 72 60 63 67 84 98 100 74 61 51 42 40 32 24 24 23 22 21 20 21 22 25 30 38 41 40 36 27 16
21 25 29 32 27 21 20 18 18 17 17 15 14 14 19 21 24 29 36 42 48 52 58 80 76 68 54 49 45 43 42 33 25 26 28 28 26 26 27 29 35 41 43 43 39 31 22 13 9
29 34 31 24 22 20 19 18 17 18 18 18 18 16 15 15 18 20 29 43 48 54 59 59 58 53 52 52 52 48 37 27 30 31 33 34 32 33 35 41 42 45 44 36 25 15 9 10 14
34 31 29 23 21 19 17 17 16 14 15 17 18 19 19 18 18 20 26 35 48 56 60 60 60 60 62 62 57 39 28 32 34 39 41 35 36 38 42 42 44 45 35 21 10 8 10 21 64
31 31 29 26 22 20 18 16 16 14 15 16 16 17 18 20 19 19 20 31 46 54 60 67 68 68 68 60 42 31 35 39 44 49 43 39 37 38 43 48 45 31 17 8 8 13 26 96 100

GFSSGP_500_rhum_045.txt.gz
RH
38 50 84 78 71 78 78 75 88 94 96 97 96 88 62 50 54 75 82 92 90 88 96 74 54 24 20 24 6 8 6 5 5 6 9 13 14 14 14 14 15 15 15 16 16 16 17 19 20
51 57 59 68 66 75 79 70 88 93 96 96 93 70 63 53 54 75 91 92 97 83 83 68 28 20 34 11 8 7 6 6 7 8 11 13 13 14 15 15 15 16 16 16 15 15 17 18 20
65 64 51 47 43 71 82 82 70 94 95 97 97 95 88 71 92 96 95 97 95 79 58 33 18 29 22 7 8 6 5 6 8 10 11 12 14 15 15 16 15 14 14 14 14 14 17 18 19
90 83 50 31 59 72 82 89 84 86 94 82 96 90 93 96 96 96 96 94 77 52 31 24 30 14 7 9 5 4 6 7 8 10 11 13 13 13 12 12 12 13 13 13 14 14 14 15 18
91 96 84 63 70 74 75 80 89 96 87 96 95 94 93 96 95 96 95 76 36 27 29 27 24 8 8 5 4 6 6 8 8 9 11 11 11 11 12 14 14 14 14 14 15 15 17 17 15
78 92 94 89 88 90 74 85 100 100 95 96 97 96 96 96 96 96 95 71 20 29 40 22 12 8 5 6 6 6 6 6 9 11 10 10 11 14 16 15 14 15 15 17 18 21 22 23 22
76 86 98 100 93 64 67 89 100 91 98 99 96 93 94 94 92 85 69 14 10 21 18 10 9 6 5 5 5 6 7 9 11 10 9 11 15 19 17 15 15 15 16 19 20 24 23 23 24
81 91 97 100 90 82 91 86 100 93 94 97 93 94 90 40 18 7 7 8 8 7 8 10 6 5 5 6 7 8 10 10 9 9 10 14 19 20 19 15 16 17 20 21 20 22 22 20 20
95 100 100 94 87 90 94 87 89 97 97 86 67 63 17 7 4 4 6 10 8 8 10 6 5 6 6 6 8 9 9 9 8 10 15 20 24 22 24 45 47 51 51 43 33 34 30 27 27
94 97 96 89 81 98 98 98 96 94 96 57 11 7 6 5 4 5 6 8 8 7 5 5 6 6 7 9 9 9 8 8 10 16 19 23 25 29 56 62 61 53 52 50 36 30 36 37 36
94 93 94 98 88 97 96 95 95 79 32 7 7 6 6 6 5 5 6 6 6 5 5 6 6 7 8 8 9 8 8 11 14 17 21 27 38 58 58 52 51 49 35 34 31 30 34 38 38
98 90 84 94 96 94 93 58 35 6 5 7 6 5 7 7 7 7 7 7 6 6 7 7 7 7 7 8 10 11 13 14 16 21 29 46 61 66 61 50 44 44 38 35 32 28 31 38 42
95 96 96 94 93 91 41 11 7 7 7 8 8 8 10 11 10 10 9 9 8 7 7 9 9 10 12 14 16 18 18 18 23 28 42 65 87 80 69 50 42 38 36 40 33 27 31 40 45
97 96 86 90 94 96 50 12 19 15 13 11 10 11 13 13 14 12 10 10 11 11 11 10 10 13 16 18 18 17 19 47 40 67 78 92 95 82 61 45 58 42 40 37 36 36 43 48 49
96 95 94 96 90 73 47 13 34 26 15 14 17 16 14 12 11 12 12 12 12 13 11 11 15 23 22 18 36 48 73 71 53 92 98 97 97 97 79 38 36 36 35 38 43 49 54 55 56
84 93 79 71 73 65 24 12 20 31 20 21 20 18 16 17 19 22 20 19 21 20 21 18 36 43 49 82 84 93 99 98 99 98 95 93 84 53 42 45 46 47 47 48 52 62 66 64 47
65 86 54 37 31 22 16 20 22 27 25 25 20 14 16 17 17 20 20 20 20 18 16 16 26 56 86 98 99 98 97 94 88 80 50 45 39 48 54 52 53 56 59 63 67 67 56 35 29
42 48 48 38 28 15 17 30 30 32 20 29 24 20 17 17 17 16 17 17 16 24 31 42 46 51 76 88 97 93 57 40 48 46 63 56 54 60 62 66 69 69 68 66 57 46 37 30 24
32 32 37 36 24 25 28 23 23 21 26 24 22 21 18 15 16 15 11 22 60 36 42 41 41 93 88 94 65 42 30 38 46 56 59 66 64 72 75 74 60 46 39 32 25 23 20 18 17
41 37 31 31 37 30 28 27 22 20 18 16 14 14 15 17 18 16 14 15 16 26 74 89 79 60 42 41 37 37 67 71 67 70 75 64 57 67 62 49 42 40 37 34 34 37 36 28 19
32 54 88 68 55 36 29 21 17 16 14 14 15 18 18 19 20 22 18 20 28 33 38 45 58 68 53 37 62 80 86 88 79 74 72 69 82 81 60 56 56 55 53 47 37 25 20 18 19
55 44 26 30 38 24 23 17 12 12 14 15 16 14 15 16 24 27 38 46 65 74 65 67 79 76 57 62 75 61 90 80 80 71 66 79 71 71 61 58 49 36 25 22 22 21 21 21 20
57 77 67 45 26 17 13 12 15 15 14 15 20 24 26 30 33 37 29 28 30 37 59 74 92 82 99 99 94 86 74 93 93 88 83 83 76 59 49 34 26 28 30 27 24 24 23 22 21
43 32 27 22 17 15 18 16 17 21 24 24 25 23 24 24 24 23 26 28 28 30 36 70 99 100 96 88 68 81 88 92 87 82 70 58 50 40 28 28 32 36 35 32 32 29 26 26 29
31 21 19 19 20 17 19 24 25 20 17 16 15 15 16 18 20 20 20 20 24 30 35 37 40 48 48 58 78 88 98 77 64 54 49 47 43 31 30 37 42 42 42 38 34 33 33 39 41
18 19 22 16 19 27 26 19 17 13 14 14 14 14 14 15 16 18 18 18 19 22 27 34 40 48 54 64 69 72 66 54 52 53 55 47 30 34 43 50 51 49 44 42 41 40 42 40 34
22 17 18 25 30 24 20 18 18 17 18 18 18 19 18 17 18 20 20 20 21 21 24 32 44 51 57 56 55 54 54 58 64 59 40 33 40 52 60 60 56 51 49 43 38 39 38 27 11
15 21 27 31 24 21 20 18 18 18 16 16 16 15 16 18 19 21 20 20 21 22 25 28 38 52 58 62 66 72 74 68 52 41 48 59 64 60 57 56 50 49 44 38 41 34 14 7 7
23 30 32 28 23 20 19 19 18 17 16 14 14 19 24 28 26 23 21 18 18 20 24 29 38 50 59 74 73 65 58 52 50 63 67 64 55 51 51 50 48 45 42 43 29 10 7 8 13
29 34 32 31 25 24 22 18 18 17 16 14 20 25 28 32 32 31 28 23 20 19 22 28 39 56 56 63 70 69 60 61 70 64 59 55 55 58 55 49 47 45 42 16 6 8 14 16 17

GFSSGP_500_rhum_048.txt.gz
RH
10 17 28 34 49 60 90 83 72 90 94 92 94 92 96 95 92 84 85 89 87 88 95 94 90 49 19 19 26 6 8 5 5 8 11 13 13 14 12 12 12 12 11 11 12 12 12 14 16
13 20 32 54 54 72 82 68 80 81 82 81 88 95 93 95 79 55 60 84 88 96 96 86 58 23 18 25 14 9 7 5 7 10 12 13 13 13 12 11 9 10 10 10 11 12 13 13 15
21 26 44 45 58 63 86 69 73 74 68 72 94 93 94 97 88 75 78 80 88 96 89 51 29 19 26 18 7 8 5 6 8 11 12 12 13 12 11 10 9 10 11 10 10 11 11 12 13
70 54 56 61 36 48 51 63 76 79 83 66 95 96 96 97 95 96 93 94 95 95 61 37 27 29 16 7 10 6 5 6 9 10 11 12 11 10 11 11 12 12 10 9 10 10 11 13 15
85 92 92 95 47 33 50 69 74 76 75 86 74 90 95 95 92 94 96 96 97 82 78 49 38 30 11 10 6 5 5 6 8 8 9 11 10 10 12 14 14 11 10 9 10 12 14 15 16
77 87 93 100 68 51 62 76 76 82 86 93 96 96 96 97 96 95 97 97 96 87 75 52 39 16 11 8 5 6 6 6 8 8 10 10 10 11 15 16 15 11 9 10 9 11 13 15 16
85 85 88 99 100 91 79 88 83 94 99 90 98 96 95 94 95 95 96 93 81 62 57 55 36 11 11 6 6 6 6 7 8 10 10 9 10 14 16 15 16 14 24 26 19 20 15 14 21
81 84 84 87 100 95 96 76 71 97 96 96 97 93 94 95 95 91 75 37 29 42 56 41 13 13 6 6 6 6 7 9 10 10 9 10 12 15 16 18 18 38 56 47 39 36 28 23 18
77 86 100 98 99 93 93 80 94 97 98 88 87 83 48 80 44 34 41 23 12 26 19 12 15 7 5 6 7 8 9 9 9 9 8 12 15 16 19 22 38 58 53 51 42 24 20 18 18
85 87 100 99 94 97 97 96 97 97 93 91 26 34 10 18 11 18 16 12 10 11 13 14 8 5 6 7 8 9 9 8 8 8 11 14 17 20 25 34 54 55 49 43 44 38 27 26 22
96 99 90 95 98 94 95 95 96 98 97 50 7 7 8 6 5 8 12 13 13 12 9 6 6 6 7 8 8 8 8 9 10 13 16 17 22 27 37 45 56 54 53 44 37 37 30 27 26
96 85 97 98 97 98 93 94 97 96 50 14 10 8 12 10 7 8 8 8 8 7 7 7 7 8 8 7 8 9 12 17 20 23 23 24 36 46 51 79 84 66 50 49 48 35 30 34 29
95 94 96 100 92 58 58 43 16 10 11 14 15 12 12 12 12 13 12 11 10 9 8 8 8 9 11 13 14 15 18 20 21 20 27 46 54 69 67 80 92 84 56 35 36 30 30 30 33
94 96 98 97 90 39 29 21 23 17 14 15 17 14 13 13 13 12 11 9 9 10 11 13 13 13 13 16 16 16 19 23 30 37 46 55 75 98 99 97 98 64 48 38 38 39 42 41 45
96 97 97 97 96 66 38 37 22 21 31 21 21 19 16 15 13 12 13 12 12 11 10 10 15 29 38 40 38 34 45 62 74 77 89 95 100 97 92 84 68 68 62 61 60 63 58 59 67
97 97 97 94 76 50 21 39 19 24 29 36 27 22 16 14 13 12 13 12 10 10 10 14 45 46 68 87 79 77 98 100 98 99 99 94 98 96 71 61 54 47 43 52 58 59 61 62 66
96 98 89 86 63 42 15 24 27 29 34 36 33 27 22 20 19 15 15 14 15 18 17 19 22 33 73 83 90 98 98 96 97 90 94 85 66 70 65 69 60 58 58 64 67 65 58 52 46
72 68 56 43 31 22 20 20 23 28 34 43 49 35 27 22 19 17 17 16 18 17 16 28 36 45 63 100 84 97 98 85 49 82 90 100 93 80 71 70 67 72 68 53 39 32 27 25 23
55 70 64 48 54 31 32 48 49 32 52 61 42 27 21 17 17 17 16 17 20 25 30 25 27 49 64 89 96 82 58 60 70 89 93 89 78 78 69 57 60 60 44 37 36 36 32 30 25
97 99 54 41 43 36 43 42 36 30 26 23 22 19 17 18 16 28 22 15 16 26 25 23 24 25 32 36 43 76 72 78 98 99 86 74 77 91 94 85 82 74 66 65 64 45 32 31 35
81 99 59 85 63 46 42 32 29 23 19 18 18 20 21 22 20 17 17 21 42 50 61 72 69 62 53 49 53 71 76 73 90 91 74 70 79 78 78 76 73 64 64 59 36 31 34 41 44
53 36 19 78 75 82 35 77 21 22 18 16 21 23 20 18 19 23 45 61 57 38 30 29 28 31 31 33 39 60 59 72 72 63 59 82 87 70 67 73 70 61 47 32 32 36 43 40 38
54 72 93 84 67 36 29 21 64 18 16 17 16 18 23 27 30 34 30 27 24 20 20 21 25 26 28 34 44 41 45 49 55 62 86 82 76 77 72 66 60 49 35 32 36 41 39 38 38
68 78 55 72 47 30 20 18 66 19 18 21 22 22 20 19 21 20 17 16 17 18 18 18 18 17 18 20 23 31 38 50 59 70 74 74 67 66 66 61 49 38 40 43 41 40 43 46 43
64 65 39 26 21 18 18 18 30 23 19 16 14 13 14 15 16 18 19 20 20 20 19 19 19 20 21 21 24 32 41 54 60 66 64 64 67 68 58 44 41 43 44 44 45 46 46 40 36
52 37 23 20 22 19 20 26 18 15 14 15 16 18 17 15 16 18 20 21 19 19 18 18 17 18 21 24 26 38 53 62 64 66 68 72 64 51 46 47 49 50 48 46 50 48 43 39 33
27 23 24 23 17 26 25 18 17 17 17 17 16 18 15 16 22 24 23 22 20 19 19 18 17 17 20 24 28 32 38 45 56 61 58 58 54 54 52 51 49 48 51 52 49 43 37 34 28
24 24 19 19 28 29 21 20 18 17 17 16 15 14 15 22 27 29 29 29 30 31 29 27 24 22 20 23 27 31 38 46 50 60 63 56 52 59 58 52 53 55 51 47 40 35 34 23 7
20 16 21 31 31 22 21 20 18 18 18 17 16 15 18 25 27 28 29 33 32 34 36 34 30 28 25 24 25 28 37 53 64 67 55 59 70 65 58 60 57 50 45 40 38 35 16 7 8
15 18 29 33 29 24 21 21 20 18 18 18 17 16 16 16 19 24 25 25 26 30 35 35 32 31 29 27 29 37 50 62 65 62 72 72 68 72 72 61 55 48 42 41 31 11 8 9 19

GFSSGP_500_rhum_051.txt.gz
RH
4 4 6 25 38 34 38 78 98 77 78 70 91 95 96 86 84 98 87 96 96 86 84 94 92 92 70 24 14 23 12 6 4 6 10 11 12 11 10 9 9 9 9 9 9 10 10 10 10
9 7 21 27 24 50 73 75 88 47 95 49 75 84 91 92 98 89 87 96 97 93 99 90 96 88 39 19 25 23 8 10 5 8 11 12 12 10 8 9 9 9 8 8 8 9 10 9 9
25 19 46 55 56 59 66 95 73 34 49 62 68 77 82 100 94 86 96 96 96 96 93 96 96 49 22 22 24 10 13 14 8 9 12 12 12 8 9 9 10 9 8 7 7 8 9 9 10
58 60 52 65 69 59 71 85 89 56 54 54 76 82 86 91 94 96 96 95 97 96 97 96 84 32 27 29 14 11 16 8 7 10 12 11 9 9 9 10 10 10 9 8 6 7 8 8 11
81 84 88 81 81 68 69 79 78 45 45 66 74 78 91 92 96 96 95 96 84 97 96 96 64 38 35 20 21 16 6 5 7 11 11 9 9 9 9 10 10 11 10 8 7 16 14 10 10
70 84 96 85 81 86 91 29 30 91 59 72 72 76 91 91 95 94 97 94 95 96 95 96 67 42 38 24 14 7 5 6 9 10 9 9 9 9 9 10 11 12 11 9 29 38 28 28 20
62 84 94 90 98 96 82 44 55 95 83 90 92 93 91 93 94 90 83 96 96 95 96 96 93 88 50 9 8 5 6 8 10 9 9 9 8 8 10 12 13 12 12 20 43 46 40 31 26
60 82 95 95 88 84 88 77 90 85 79 86 98 89 93 85 84 89 97 93 98 92 94 96 94 42 11 10 6 7 8 9 9 9 9 8 8 8 11 13 13 14 17 30 46 41 39 35 22
68 79 92 96 78 90 94 57 52 80 79 83 88 84 93 81 70 98 96 94 94 91 88 76 40 10 11 6 6 6 8 8 9 8 8 8 8 10 13 15 14 17 16 24 33 42 42 37 34
47 87 96 80 78 94 96 71 64 96 83 93 85 76 48 66 59 70 92 90 81 54 20 12 11 11 6 6 6 7 8 8 8 8 8 10 12 15 16 17 23 31 39 39 48 49 39 37 31
57 68 90 81 93 100 100 76 76 86 93 95 74 56 15 18 65 72 100 31 23 14 12 12 10 6 6 7 8 8 8 8 9 11 14 16 18 23 26 38 57 48 49 66 63 49 39 33 30
74 97 75 81 82 96 65 62 74 95 94 81 19 8 6 10 18 20 14 13 13 13 13 12 6 7 8 8 8 8 9 13 15 18 20 20 27 55 56 87 74 81 97 97 84 66 52 34 26
84 84 89 96 84 87 83 94 96 98 66 22 14 13 11 12 11 10 8 8 7 8 8 9 9 9 8 8 11 13 17 21 26 47 52 83 90 97 97 97 95 99 79 88 59 56 46 41 38
100 88 97 92 55 93 98 82 98 40 33 24 16 15 12 12 10 10 10 12 11 10 10 10 12 14 14 15 16 30 36 28 28 37 52 49 68 90 90 92 96 96 85 74 57 48 42 44 46
87 94 94 92 74 66 94 82 84 29 18 21 23 18 16 13 12 13 14 13 12 14 19 20 19 21 28 38 45 54 63 80 76 84 98 94 97 97 89 86 84 85 85 76 66 51 49 55 57
99 97 98 95 61 72 96 84 33 28 28 22 23 21 17 15 15 15 14 15 17 18 16 14 15 12 17 41 63 79 90 97 98 98 91 91 96 96 96 93 79 71 71 72 65 58 59 66 66
94 95 100 86 85 40 88 84 26 35 39 33 27 22 17 15 14 13 12 12 13 14 16 16 15 18 45 56 98 85 92 97 94 98 96 96 90 83 83 94 84 64 77 75 72 85 78 63 44
95 96 97 100 74 30 73 83 23 45 69 68 57 39 31 23 20 18 16 16 17 17 17 17 20 39 45 47 63 79 89 81 88 70 81 78 96 100 98 80 78 94 77 68 67 60 49 42 38
91 80 78 81 39 74 84 38 29 48 57 67 46 34 28 22 20 21 22 21 19 31 27 16 14 14 17 18 24 38 36 46 49 68 64 72 78 78 80 73 90 89 68 63 63 63 61 60 56
98 98 93 76 44 44 45 54 52 33 30 32 38 26 24 25 27 24 22 21 16 17 16 32 32 45 54 38 27 29 30 31 44 59 54 60 66 84 90 100 95 83 78 72 72 69 57 44 39
92 98 97 85 70 44 90 71 19 23 23 22 24 24 27 24 22 22 20 21 21 38 42 34 28 25 23 23 22 22 20 20 24 31 35 44 51 58 75 80 77 71 74 77 71 60 47 48 48
97 47 37 70 36 88 36 94 96 41 27 33 28 23 21 22 24 21 22 26 32 28 22 19 17 17 16 16 17 18 19 19 22 22 25 29 48 56 62 64 69 75 76 71 59 48 44 42 39
96 47 70 93 84 96 76 61 96 68 48 23 21 19 19 18 17 26 25 21 18 17 18 18 18 18 18 18 18 18 19 19 19 20 24 27 37 45 62 69 72 70 60 53 51 50 42 37 37
47 65 91 74 90 92 73 97 96 87 58 16 16 15 19 26 24 18 16 18 19 19 19 18 18 17 16 15 14 14 15 16 16 17 20 31 43 52 54 55 54 51 49 48 48 41 40 39 36
47 72 100 99 93 77 83 47 68 68 45 24 23 19 15 15 15 16 17 19 20 20 19 20 24 26 26 23 21 20 18 17 18 20 26 32 40 48 51 54 60 54 54 57 52 47 44 44 43
38 100 100 90 79 82 80 30 70 26 20 15 14 14 17 16 15 18 22 24 24 24 25 26 28 32 34 32 29 26 23 22 21 22 26 36 40 48 56 63 58 61 54 49 49 58 57 54 43
62 58 44 41 21 23 27 73 26 17 16 17 17 16 17 16 15 20 26 28 26 27 28 28 28 34 36 36 33 30 29 28 27 27 27 33 44 55 61 66 68 62 59 63 64 65 56 41 32
36 35 28 24 22 20 67 71 78 18 17 17 16 15 14 14 15 22 26 27 25 25 24 23 24 24 29 33 34 33 33 32 31 34 40 49 64 71 75 72 63 62 71 74 66 53 40 33 31
22 21 24 27 23 28 39 56 38 18 18 18 17 17 16 15 15 16 16 16 16 16 17 19 21 22 23 27 33 35 37 36 37 40 51 70 75 78 75 72 77 81 76 64 51 39 34 30 14
16 17 16 14 26 32 28 35 24 20 19 18 18 18 17 18 17 17 16 16 16 16 17 19 21 22 22 27 33 35 40 43 41 44 65 77 82 80 83 87 87 80 65 51 41 34 30 14 8

GFSSGP_500_rhum_054.txt.gz
RH
7 5 5 6 16 11 12 25 60 58 73 80 82 71 80 93 96 92 85 91 94 92 95 96 91 93 90 87 74 43 18 16 7 4 9 10 10 10 7 6 6 6 6 5 5 5 7 8 8
11 8 6 9 7 16 20 72 85 78 73 32 51 98 88 66 94 86 85 89 93 96 96 96 96 98 94 95 73 24 24 17 8 5 10 10 10 9 6 7 8 8 6 5 5 5 5 6 8
24 13 10 20 9 10 31 88 100 65 51 54 71 45 65 59 61 75 68 84 94 91 97 95 94 96 96 87 44 21 22 10 12 6 10 11 11 7 7 8 8 8 8 6 5 4 6 9 7
42 29 18 24 21 40 49 66 45 85 79 75 55 34 52 49 60 73 82 94 98 98 96 96 96 96 94 75 30 26 13 14 13 8 11 11 7 7 8 8 8 8 8 6 7 6 21 25 15
77 56 42 30 43 58 76 45 25 45 70 35 69 68 60 63 65 81 83 92 96 96 95 96 97 98 95 41 31 18 15 16 8 8 11 9 7 7 7 7 7 9 8 8 8 10 36 37 29
76 84 74 62 76 85 79 54 38 97 57 30 47 65 61 59 72 86 84 97 96 97 96 96 96 96 91 55 28 23 12 6 6 8 10 8 8 8 8 7 8 9 8 8 11 15 33 38 37
63 79 84 96 94 88 93 33 39 87 74 83 66 79 68 58 75 80 80 85 96 96 96 96 97 96 91 66 56 12 5 5 6 10 9 9 8 8 8 8 8 10 9 11 12 12 22 38 40
58 71 72 93 92 99 63 64 73 67 38 52 60 70 87 76 80 81 88 99 96 96 96 95 95 95 94 85 32 22 5 7 10 9 9 8 8 8 8 8 10 12 13 17 20 24 28 24 38
52 56 64 85 96 98 58 68 62 93 76 78 52 63 82 97 78 72 69 94 98 96 96 96 96 89 76 46 20 25 22 8 8 9 9 8 8 8 10 15 17 17 22 37 39 38 42 56 44
48 67 90 95 85 94 94 83 95 98 96 98 57 64 82 79 72 60 95 97 97 95 91 44 16 15 16 17 8 6 7 8 8 8 7 9 10 13 16 15 22 28 41 72 72 82 82 68 59
54 53 99 77 93 96 90 87 84 86 88 77 84 74 73 59 71 84 95 96 94 95 44 40 11 9 6 7 6 9 10 8 8 8 11 20 16 17 45 79 97 94 91 80 83 73 65 52 55
56 81 97 69 54 53 79 87 87 80 76 90 87 78 67 35 78 95 92 94 49 27 18 16 14 16 20 19 10 8 8 8 11 27 61 53 65 71 83 99 95 98 80 69 80 76 76 58 46
76 100 85 68 76 98 95 77 96 94 100 97 72 54 17 21 33 44 84 28 9 11 15 20 13 8 8 9 9 16 23 30 50 60 56 59 61 80 95 88 74 79 71 59 59 58 68 56 53
82 93 62 92 95 90 92 94 97 79 78 34 32 33 15 15 92 96 11 6 6 7 8 8 9 10 14 18 24 32 41 60 66 80 77 96 95 87 83 91 87 82 73 68 59 50 49 46 52
100 70 96 96 86 91 93 94 38 41 36 22 20 12 10 10 9 8 8 8 7 7 8 12 16 20 17 20 23 37 56 64 93 100 90 73 98 97 91 79 66 75 70 71 67 58 57 64 70
96 90 97 96 94 96 95 96 60 48 29 36 30 13 10 9 9 10 9 8 9 12 16 17 14 12 17 27 47 81 80 74 98 95 76 84 76 73 78 84 97 84 74 67 62 69 71 69 67
95 97 80 83 90 96 96 63 38 32 33 37 19 17 12 11 9 9 9 9 9 11 12 12 14 44 64 68 60 58 82 59 47 40 48 44 45 49 40 44 48 47 58 67 70 72 64 60 55
95 95 83 96 81 89 82 66 55 30 20 26 20 24 18 14 12 11 12 12 10 13 17 21 21 78 54 41 32 24 30 32 24 25 26 21 20 24 26 33 45 56 52 59 65 64 60 58 56
94 96 99 83 50 46 98 85 20 23 27 97 15 25 20 15 16 15 18 19 23 21 24 30 48 23 24 30 24 17 16 13 15 17 16 19 22 27 31 27 35 52 67 61 63 69 74 80 78
99 93 90 91 27 29 98 90 37 22 16 15 18 23 20 19 20 18 15 15 15 11 11 55 34 27 19 16 14 14 15 15 16 16 17 19 19 21 22 32 41 45 59 64 67 79 82 77 66
100 97 82 84 19 22 91 46 19 21 18 17 17 16 16 16 17 17 15 16 15 24 42 38 23 18 16 16 17 17 17 16 17 16 16 16 15 17 20 24 31 42 50 73 76 68 62 55 50
97 96 89 98 54 46 64 99 98 56 29 20 22 23 15 14 15 18 16 17 24 30 29 19 18 19 18 18 17 17 20 22 24 23 22 20 17 17 18 22 29 47 58 54 53 53 51 52 51
77 82 69 93 97 95 95 84 58 96 75 46 51 33 20 15 15 17 17 25 28 22 18 19 18 18 20 23 27 28 28 28 26 25 24 23 22 22 22 24 27 28 33 43 47 47 47 39 38
48 51 59 57 61 95 94 90 83 91 96 90 56 34 18 16 17 23 20 17 18 20 20 20 20 22 26 28 32 32 32 31 30 30 29 28 28 26 25 25 25 25 38 54 57 53 57 60 50
40 55 85 91 92 63 88 95 95 58 87 50 19 26 23 20 15 14 16 17 20 22 23 24 25 26 29 29 30 33 34 34 34 33 33 33 32 32 31 30 34 48 64 70 69 62 53 65 58
34 70 87 89 92 100 72 68 74 23 29 36 22 15 14 17 17 15 15 22 25 27 27 26 25 24 24 24 22 23 23 23 27 32 34 34 36 38 37 41 56 69 74 72 73 70 67 67 64
98 77 93 90 67 45 50 65 48 43 40 18 17 18 18 16 17 15 14 17 24 25 24 19 16 16 17 17 18 20 21 22 22 28 31 36 41 42 43 51 61 81 83 78 76 76 71 68 64
23 39 36 27 21 17 31 82 84 93 51 19 18 18 16 15 15 14 14 14 15 15 16 16 16 16 17 17 18 19 21 22 22 25 36 44 47 50 54 65 87 89 84 83 79 76 77 71 54
25 34 24 26 62 72 21 94 79 63 51 21 18 18 17 17 17 17 17 17 18 17 17 17 17 17 18 19 20 21 22 26 29 36 45 50 54 55 67 89 89 83 85 82 81 80 71 56 40
20 35 38 22 18 29 16 35 77 74 51 22 20 19 18 18 17 17 17 17 16 16 16 17 17 18 19 21 23 25 26 32 39 50 55 59 55 67 89 88 83 86 91 87 82 73 61 42 30

GFSSGP_500_rhum_057.txt.gz
RH
17 14 8 8 8 8 12 43 82 92 96 65 71 74 86 72 78 74 72 83 95 95 94 93 92 92 93 88 86 92 85 70 33 13 5 5 8 9 7 4 5 4 4 4 4 4 4 5 6
20 13 10 8 7 6 28 47 32 62 53 62 57 78 100 98 93 90 87 85 98 96 96 95 96 97 96 95 97 97 88 65 24 9 6 10 10 9 5 5 6 7 6 5 5 5 4 9 13
26 15 12 9 5 5 27 49 49 74 49 66 73 88 87 96 90 89 74 69 89 97 94 96 98 94 97 97 96 96 83 39 19 9 7 11 10 8 5 6 7 7 7 7 7 6 6 24 28
48 34 17 15 9 28 54 52 48 55 63 83 94 88 87 85 79 47 67 85 95 90 91 97 95 96 96 95 95 94 48 30 11 8 7 11 10 6 7 7 8 7 6 7 8 9 12 14 30
62 53 39 15 24 72 92 70 39 31 39 50 79 96 85 71 48 41 51 66 87 90 94 97 98 98 96 97 95 84 53 15 14 9 8 11 8 7 7 7 7 8 8 9 9 9 12 18 34
67 68 47 64 77 72 79 56 58 62 60 38 66 62 71 47 32 34 44 69 86 97 97 98 97 96 97 96 95 83 47 38 14 7 8 11 8 8 8 8 8 8 8 10 11 10 15 18 25
70 81 88 88 99 86 81 79 80 72 47 48 44 63 80 79 75 60 46 68 89 86 96 97 96 96 99 97 90 82 28 9 6 11 9 10 8 9 9 7 7 7 9 12 12 12 30 35 39
64 68 91 93 96 67 85 100 96 80 88 61 74 79 86 66 75 83 81 82 88 87 94 95 96 96 97 97 94 94 69 60 16 13 27 10 14 11 8 7 8 10 16 15 12 27 52 62 70
52 61 68 88 74 87 93 97 97 97 97 88 73 86 90 96 79 88 82 79 77 96 97 96 96 97 96 95 95 67 27 41 43 19 18 10 9 8 8 11 12 18 40 64 50 55 70 63 55
45 57 71 66 72 84 90 78 80 72 70 92 92 94 96 93 85 86 87 78 99 98 96 96 96 94 93 81 60 48 42 15 8 9 9 8 14 22 25 40 59 83 88 73 80 74 65 57 53
51 62 94 70 84 76 72 85 75 71 76 76 94 75 86 81 71 70 90 98 98 97 96 89 70 47 22 13 10 7 7 8 8 8 12 35 53 48 54 58 67 91 85 67 65 52 46 56 63
65 68 100 95 99 41 40 34 54 51 63 62 80 84 82 72 63 96 99 98 95 96 91 49 8 6 6 9 12 13 10 10 19 29 44 62 52 55 72 82 84 78 75 60 48 42 48 54 51
82 90 70 82 54 50 59 59 55 75 39 66 94 77 82 84 86 98 96 93 90 61 26 22 20 16 13 11 9 11 20 26 36 52 60 78 74 63 54 85 78 70 63 56 41 48 57 57 57
93 99 88 90 79 70 84 80 72 66 94 94 83 85 95 96 98 95 70 16 11 6 7 9 8 8 8 13 15 17 25 42 51 66 62 74 84 61 71 64 56 60 63 60 53 59 57 56 46
85 88 75 92 82 95 82 74 71 76 47 76 69 63 97 72 66 21 33 16 8 9 10 12 14 15 14 13 14 32 48 63 57 67 51 65 38 43 43 42 29 28 26 34 38 39 39 37 42
53 55 71 88 94 90 96 68 56 36 47 34 20 15 30 11 13 7 9 10 12 13 13 14 13 14 18 35 44 54 53 57 59 39 34 26 22 16 17 16 16 18 20 24 29 40 41 42 46
97 91 99 98 81 96 85 57 37 32 46 40 30 17 12 11 12 13 16 9 8 9 15 13 12 15 50 58 48 29 37 50 38 18 16 15 15 16 18 18 19 19 20 21 25 35 41 44 47
96 88 86 89 80 95 86 35 19 20 24 45 28 21 24 19 10 8 8 8 9 15 16 12 17 40 50 35 27 38 29 17 15 15 15 16 17 17 17 17 19 21 22 22 21 22 28 34 39
100 94 100 84 75 61 63 59 22 14 26 54 40 40 25 10 8 8 7 5 7 20 26 19 24 62 40 29 32 16 15 15 16 16 19 20 21 22 21 19 18 20 21 24 24 21 18 23 33
100 100 82 97 38 20 36 51 42 37 21 33 46 33 15 19 7 9 9 7 7 10 14 22 60 61 36 16 15 16 17 20 21 24 25 24 23 23 24 23 23 22 23 24 26 26 24 28 42
86 98 96 98 86 39 94 96 94 64 29 14 22 26 9 11 12 11 10 10 11 23 26 33 18 20 16 16 19 21 24 26 28 26 25 24 25 26 26 27 27 27 26 25 26 26 27 38 55
82 97 93 93 49 33 77 95 71 57 78 60 24 16 29 13 12 13 14 14 18 20 17 15 16 16 18 20 24 25 28 30 31 31 31 30 30 30 31 30 30 28 28 31 31 29 30 46 55
79 79 100 83 86 99 91 76 59 86 86 90 88 65 28 12 12 22 17 19 22 16 17 18 18 20 20 22 25 26 27 24 20 18 18 18 18 19 20 25 28 33 38 38 32 25 39 59 56
56 55 50 63 94 78 72 94 81 78 91 82 73 55 29 12 23 24 21 16 17 18 20 21 22 23 26 26 27 24 20 17 16 16 17 18 20 21 21 22 24 27 32 30 26 38 60 58 60
72 48 42 29 35 20 68 84 96 61 40 32 37 39 22 18 22 13 14 16 17 19 23 26 27 27 24 19 17 16 16 16 17 18 20 21 21 24 26 30 34 40 38 33 44 73 73 65 60
38 39 36 53 83 70 98 95 79 80 55 41 33 26 14 16 17 18 17 15 15 18 21 20 18 16 16 17 17 17 17 18 18 20 22 22 24 26 32 40 51 52 46 53 80 84 79 70 67
51 88 80 80 69 67 78 66 41 26 48 61 27 16 18 18 17 15 15 14 14 14 15 16 16 17 18 18 18 18 19 20 23 25 27 28 31 38 46 56 58 52 62 88 96 87 79 75 70
48 71 100 55 32 23 19 30 72 41 86 72 53 29 19 19 18 17 16 16 17 18 18 17 17 16 17 17 18 19 21 22 24 28 30 32 41 51 60 65 62 73 94 100 91 85 83 78 81
32 37 33 29 26 17 17 36 61 88 96 95 66 43 21 20 19 18 18 18 16 16 16 17 17 16 15 15 16 19 20 24 29 34 33 39 48 57 60 64 82 99 100 98 88 91 90 94 92
38 25 30 26 26 23 14 20 30 44 69 70 56 39 22 21 23 23 21 19 15 14 13 14 16 17 17 18 19 21 26 32 37 36 37 50 58 53 70 94 100 96 87 88 94 97 100 100 92

GFSSGP_500_rhum_060.txt.gz
RH
17 14 12 9 11 10 21 79 83 80 83 90 80 89 97 90 80 79 81 80 74 81 87 94 93 97 95 95 92 96 99 98 95 86 54 6 6 6 8 6 4 4 4 4 3 4 3 3 3
15 14 11 9 9 10 20 36 56 60 69 72 96 94 96 96 76 78 72 74 77 72 79 74 89 96 96 96 96 97 97 99 95 85 26 6 6 9 8 5 5 6 6 5 5 5 4 4 10
15 14 14 11 10 26 40 57 67 52 43 50 54 70 86 98 78 91 84 78 93 96 95 79 87 96 97 100 95 97 96 98 95 75 26 7 10 10 9 6 7 6 6 6 6 6 7 10 10
35 18 15 17 48 64 40 24 35 46 27 50 62 85 80 70 89 76 77 77 70 86 89 89 74 87 96 99 96 96 96 95 95 41 14 12 12 11 8 7 6 6 7 8 8 8 8 8 11
53 37 22 76 81 56 59 35 28 38 50 64 70 67 70 92 95 87 65 71 60 82 86 92 91 87 93 98 97 96 95 95 89 50 20 8 12 11 9 8 8 8 8 8 9 9 10 10 18
69 57 73 98 74 64 52 53 66 70 59 53 43 44 45 47 79 77 76 69 76 96 93 96 99 99 97 97 96 96 98 86 37 49 17 23 11 11 9 9 9 9 7 7 11 11 12 17 33
68 70 93 93 75 63 60 70 76 86 92 68 55 43 70 74 54 62 66 79 69 85 85 95 97 96 94 96 96 97 95 92 94 74 27 9 10 9 10 23 9 7 9 12 13 20 24 28 54
70 70 96 89 60 55 56 77 74 68 69 72 68 71 73 59 77 70 97 88 82 89 95 91 99 97 98 96 96 93 87 32 19 32 44 8 8 14 16 8 9 12 20 58 77 68 65 65 51
72 63 79 95 73 56 62 77 82 79 63 87 93 92 76 79 67 70 85 94 87 96 96 97 97 96 95 98 96 95 94 81 65 23 22 22 23 12 8 24 38 52 60 57 74 64 58 62 45
61 56 68 81 78 69 75 74 65 56 65 58 58 70 77 61 66 68 78 86 96 96 98 100 97 97 96 95 94 93 82 70 59 33 14 9 11 27 45 48 54 58 66 69 73 60 54 46 40
51 44 71 66 56 58 67 62 48 55 55 49 59 76 82 91 90 70 78 68 96 94 96 96 96 96 94 92 85 68 53 21 9 10 9 20 44 46 45 47 55 49 79 65 74 70 62 32 38
59 51 55 58 78 69 46 45 44 44 49 57 71 88 96 94 96 85 66 92 93 97 98 92 80 77 44 24 19 13 9 10 11 18 31 34 37 49 57 60 40 68 64 46 56 69 31 30 28
66 63 70 63 55 47 46 55 62 52 52 65 74 78 96 91 87 98 97 98 97 95 80 39 13 9 8 10 11 11 12 19 22 29 41 59 60 67 74 49 41 52 25 24 37 23 30 34 22
81 70 66 62 61 52 61 74 78 69 65 70 92 97 97 99 93 96 96 96 74 47 26 20 17 16 14 12 14 14 14 21 29 47 48 38 23 28 24 17 22 16 14 17 19 18 18 20 21
76 78 63 61 61 69 98 89 76 71 69 95 97 95 97 96 94 90 43 13 10 8 7 8 9 14 15 14 13 22 41 58 55 25 18 19 16 13 12 13 14 17 19 19 20 21 21 21 22
56 64 52 58 72 98 100 78 66 85 80 68 90 77 46 19 26 15 29 46 36 24 12 12 14 13 12 16 44 58 27 20 25 28 18 14 14 16 17 18 18 18 19 22 23 23 22 23 23
67 69 74 65 98 97 92 44 37 58 80 90 35 18 25 15 11 10 11 11 12 10 10 13 15 14 17 62 63 28 19 27 16 14 15 16 19 20 21 21 21 22 22 22 22 23 24 25 26
98 84 97 96 80 88 40 51 27 30 47 52 42 32 18 14 13 15 20 19 11 17 15 18 23 24 44 62 29 25 28 15 16 17 20 22 23 24 24 23 23 23 23 24 24 24 24 24 24
97 72 62 42 39 42 46 51 35 33 48 84 65 33 20 22 14 10 12 15 12 14 12 13 14 19 68 64 24 15 16 19 21 23 24 24 26 26 27 27 27 27 26 26 25 24 24 25 26
87 95 82 42 22 42 72 78 29 42 51 49 50 34 19 17 11 8 11 14 16 17 24 33 65 66 51 24 15 18 21 24 25 26 27 27 25 23 21 19 20 20 20 21 22 22 22 25 28
76 83 72 60 58 75 100 68 25 19 22 52 38 43 34 20 14 10 10 11 14 18 21 34 33 29 21 16 18 20 23 25 25 25 24 21 19 17 18 19 20 20 21 21 22 23 23 28 33
84 59 77 96 76 56 80 75 57 36 58 77 57 37 41 51 35 18 14 11 16 18 17 17 26 37 18 19 20 24 25 24 25 22 18 17 16 18 18 20 20 22 24 25 24 26 34 42 39
67 100 100 97 84 55 35 49 53 51 49 77 69 56 44 26 27 28 30 23 18 14 19 51 46 27 22 23 25 24 22 22 16 16 17 17 18 19 20 20 21 23 25 27 31 40 45 39 34
58 94 100 76 76 47 91 57 70 98 72 68 61 52 28 19 20 30 25 26 18 20 40 36 25 25 26 27 24 17 16 16 17 17 17 17 17 17 18 20 24 27 28 29 33 40 40 36 51
69 72 69 65 66 42 59 60 62 73 60 41 38 32 26 18 14 15 16 49 33 33 22 22 24 24 24 19 17 17 17 17 16 16 16 16 16 19 23 28 33 30 28 33 43 44 42 57 70
44 56 66 51 53 66 79 28 89 80 72 44 47 33 18 16 17 18 23 37 23 15 14 14 15 16 18 18 18 16 15 15 15 14 14 16 21 26 32 34 34 35 44 56 53 58 76 84 83
56 52 53 54 54 50 96 78 67 56 44 29 36 21 18 18 18 18 17 16 15 16 17 18 18 17 17 16 16 15 13 13 14 17 23 29 50 40 38 37 44 58 66 66 79 88 93 94 82
39 47 58 56 64 63 53 46 52 31 27 52 80 55 38 19 19 19 19 19 19 18 18 17 16 15 15 16 16 14 16 21 30 37 33 37 41 40 41 49 67 70 77 100 98 94 91 89 88
49 32 51 52 46 28 22 19 18 20 60 85 99 78 61 46 24 21 22 25 25 22 20 18 17 17 16 19 27 48 70 82 100 79 54 47 42 41 56 71 74 82 99 100 99 98 92 81 86
98 34 28 29 54 48 26 14 14 18 37 81 83 78 69 53 39 27 23 26 26 24 22 22 20 21 23 29 29 30 48 65 100 58 42 35 38 58 66 53 61 85 89 84 80 86 90 94 100

GFSSGP_500_rhum_063.txt.gz
RH
12 23 38 20 16 10 29 79 98 87 97 96 92 98 88 91 91 82 89 84 82 76 80 82 77 72 79 84 97 97 96 94 93 97 91 89 29 8 11 8 8 5 4 4 3 3 3 3 3
14 31 40 34 24 21 33 47 81 88 80 79 84 100 97 97 81 70 77 69 65 81 79 72 80 80 86 82 91 96 97 95 98 99 94 86 18 9 10 10 7 5 6 5 5 4 4 4 4
22 30 50 42 51 39 35 30 29 47 58 55 68 92 90 92 99 96 90 90 90 90 93 67 78 89 87 84 98 97 98 97 97 98 94 71 12 12 12 11 8 7 7 7 7 7 6 6 6
24 41 66 70 63 44 36 18 15 25 30 39 50 62 74 83 87 76 67 71 81 73 66 73 74 87 89 86 81 97 99 97 96 97 87 35 11 23 13 12 9 8 9 8 8 7 7 8 8
47 73 82 84 59 49 45 22 18 24 37 36 40 56 52 52 50 54 74 79 73 63 61 81 89 97 90 95 98 96 97 97 97 96 85 23 59 21 28 11 10 10 10 9 8 9 8 10 8
68 80 83 84 72 53 45 30 30 49 63 60 68 62 57 57 56 63 55 84 84 77 77 76 91 96 97 91 95 97 97 96 97 93 68 79 31 34 18 13 10 10 9 9 12 20 50 52 50
78 78 77 94 79 55 65 43 44 60 77 78 56 53 51 48 60 72 86 79 80 71 86 91 94 97 96 99 98 98 97 96 96 64 93 42 29 14 12 9 10 9 9 16 39 53 60 62 50
78 75 74 100 86 90 70 68 56 60 93 90 90 69 66 66 48 56 76 81 84 82 86 91 93 98 96 97 97 96 96 96 95 95 78 51 14 10 10 20 27 11 40 53 51 56 72 64 55
76 72 90 100 99 90 84 79 59 52 63 64 60 69 71 90 71 69 76 67 73 84 94 94 95 94 99 97 97 97 97 92 86 56 42 37 30 26 38 14 34 45 49 52 56 63 66 60 53
74 67 72 99 100 98 82 71 60 63 69 61 61 60 54 84 87 63 69 70 73 93 96 96 97 96 95 97 97 96 96 95 94 72 46 40 32 18 22 40 43 44 57 46 60 67 60 55 61
70 53 53 85 100 99 98 82 63 55 51 39 41 43 52 62 87 94 77 76 99 97 96 96 96 96 97 96 96 92 91 85 66 52 57 25 12 39 44 45 49 50 44 38 50 31 37 39 58
75 53 48 71 95 96 80 58 46 41 27 27 36 49 55 87 94 92 97 86 87 98 96 98 98 95 95 93 93 89 84 66 26 11 19 39 37 37 49 54 64 63 27 50 27 13 14 13 15
84 77 66 54 71 61 42 50 46 44 42 31 29 50 59 96 95 97 83 82 100 99 96 97 89 81 60 32 15 13 11 11 20 29 28 44 51 55 30 31 34 18 14 13 13 15 16 17 18
85 83 70 57 60 58 54 46 61 71 68 56 80 89 94 97 98 97 96 98 96 99 97 71 18 13 12 12 11 13 17 20 33 26 42 52 31 23 18 17 13 13 14 16 17 20 21 21 20
82 80 66 65 57 68 64 92 85 80 83 91 98 97 97 96 93 88 87 97 91 74 80 36 21 39 19 11 11 12 12 26 50 37 28 28 16 12 12 14 17 19 20 20 21 21 21 20 21
72 80 69 68 62 71 97 85 89 92 90 83 97 96 95 94 90 66 48 44 46 44 15 18 21 16 14 12 15 38 63 24 20 28 18 13 14 16 20 22 22 21 20 21 21 22 22 22 22
62 50 58 66 86 91 71 50 34 67 88 36 47 71 28 29 53 27 42 44 37 32 51 36 19 14 14 35 70 66 29 28 26 14 15 17 21 23 23 22 22 22 24 23 22 23 22 21 21
86 81 54 75 95 83 80 45 39 37 52 48 39 22 19 17 16 19 19 24 26 15 15 15 17 15 25 58 65 39 28 17 15 17 20 22 24 24 23 21 20 19 18 18 18 19 19 20 21
100 93 91 98 90 87 72 52 74 58 64 47 38 36 32 20 16 36 24 14 14 13 11 11 15 19 41 72 55 18 15 17 19 22 24 25 22 20 18 17 17 17 17 18 19 20 20 21 23
94 62 46 38 47 53 62 46 64 62 70 58 49 41 23 22 16 14 14 11 10 11 11 16 32 71 51 40 23 17 18 21 21 23 23 20 18 17 17 17 17 18 18 19 19 20 22 23 26
92 91 62 35 21 33 25 39 44 57 90 56 43 34 17 18 23 19 18 16 15 16 20 24 33 38 33 27 30 33 20 21 21 20 16 16 16 17 17 17 18 18 18 18 19 22 26 28 30
62 78 88 51 38 43 31 41 44 35 41 61 66 31 32 38 32 16 15 21 18 21 25 24 29 34 52 31 59 50 29 19 17 15 16 17 17 17 17 17 18 16 19 22 26 29 28 28 31
58 64 58 51 89 75 32 15 21 36 43 65 62 74 61 54 30 24 23 28 34 48 43 28 71 77 45 42 39 24 21 16 16 17 18 17 16 16 17 18 23 23 25 29 31 28 30 33 44
62 52 68 70 90 74 67 30 34 48 65 70 52 69 39 38 40 26 51 34 26 50 53 62 81 43 35 33 20 17 16 17 17 17 17 17 16 16 18 18 20 19 23 32 31 35 39 53 52
58 49 57 72 81 71 69 58 50 71 75 56 38 57 34 27 21 16 29 43 53 68 69 64 55 30 18 19 17 19 17 17 16 17 16 14 16 19 22 20 19 44 38 34 33 44 52 46 34
78 65 46 46 60 60 58 42 36 70 70 54 37 36 30 17 16 18 18 29 44 72 50 37 19 18 18 18 18 20 15 14 15 13 13 19 15 44 64 42 43 37 32 34 49 54 40 36 57
82 56 38 32 38 39 38 34 62 50 76 60 44 34 21 17 18 18 18 28 33 36 27 19 18 18 17 17 16 15 14 14 10 15 14 26 50 99 100 73 38 34 42 59 54 43 51 78 90
98 88 61 45 51 43 40 41 56 66 63 42 29 32 21 19 20 19 18 20 31 24 24 23 22 22 21 20 17 16 12 12 19 23 36 65 78 100 93 53 34 48 64 51 56 79 94 100 99
98 88 56 29 45 53 42 48 39 24 19 15 26 41 85 61 48 36 25 22 25 24 25 26 26 25 23 18 15 12 21 21 27 56 74 100 68 64 46 40 57 65 49 66 96 100 99 94 99
89 79 81 42 43 35 32 32 16 16 19 21 32 69 88 81 63 56 48 39 36 30 32 31 29 26 21 20 38 79 84 94 95 51 50 58 65 35 44 65 63 61 83 100 91 87 86 87 93

GFSSGP_500_rhum_066.txt.gz
RH
10 12 12 26 42 39 75 86 97 99 82 94 93 83 89 82 77 75 79 72 71 94 94 80 67 72 73 74 79 78 88 90 92 96 96 98 95 58 13 10 8 7 5 4 5 4 4 4 4
11 12 17 45 48 64 52 62 74 78 97 62 65 92 94 96 93 92 83 86 93 92 78 77 78 80 67 62 74 82 91 94 94 97 98 98 97 50 13 10 11 8 6 6 7 7 6 6 6
14 13 38 58 58 58 54 39 34 48 55 82 75 62 67 79 90 94 90 83 87 84 76 80 72 72 85 78 77 72 88 100 94 99 98 96 89 33 9 11 13 9 8 8 8 8 8 7 7
16 24 44 52 57 57 49 32 19 21 35 40 45 70 59 64 79 84 80 89 92 76 68 60 68 83 76 84 85 86 99 91 93 99 98 96 85 64 36 26 13 12 10 9 8 8 8 12 35
29 49 54 49 64 74 52 34 23 28 29 31 48 66 68 72 58 78 80 74 71 70 81 81 72 98 97 96 96 96 98 92 96 96 96 90 59 15 29 24 31 11 10 10 9 9 12 26 33
57 61 65 84 78 75 64 46 45 52 36 30 40 34 42 53 52 50 54 46 67 65 82 91 89 94 95 91 94 97 95 97 97 97 97 95 54 26 42 47 12 10 10 10 12 18 24 51 43
62 71 78 97 99 87 90 82 64 66 51 55 47 52 55 47 48 45 46 65 67 88 94 94 81 87 97 90 98 93 98 97 96 98 96 72 53 69 56 12 11 17 11 18 14 33 44 33 30
70 78 76 93 100 95 94 100 100 66 61 48 45 58 53 52 53 47 44 67 83 84 96 85 85 97 97 97 94 97 98 100 98 97 96 96 89 30 20 39 13 32 38 23 49 40 40 36 34
87 78 71 76 100 100 96 100 96 94 65 89 76 79 78 60 61 56 50 48 54 57 80 82 97 95 96 96 97 96 95 97 97 96 96 76 62 46 20 27 34 31 44 56 49 44 37 43 42
84 75 69 68 98 98 98 98 90 78 75 66 66 66 55 54 59 66 75 68 74 66 75 66 96 98 96 94 100 96 96 96 95 94 92 78 41 44 25 17 24 51 57 62 54 28 35 30 12
78 72 66 57 80 99 96 96 90 74 65 56 52 49 52 60 70 67 72 88 73 76 100 97 87 98 96 96 97 97 96 97 94 94 84 81 49 13 20 28 57 59 63 61 31 22 15 10 12
80 80 60 50 60 85 97 93 82 80 60 51 42 41 57 56 46 64 89 96 92 66 60 93 96 96 96 96 96 96 96 94 73 41 31 28 19 25 45 53 54 39 34 13 10 12 13 15 15
81 96 79 61 50 63 72 68 59 54 51 35 26 29 31 43 55 88 97 94 96 86 95 95 97 97 97 96 94 88 84 64 40 28 26 28 50 59 50 40 16 12 11 12 14 17 17 18 18
72 86 76 63 56 56 61 59 47 56 64 57 50 69 77 94 73 86 100 97 97 94 98 97 96 97 94 74 52 41 27 20 27 30 31 38 46 43 25 12 11 12 16 18 18 18 19 19 19
68 74 85 82 69 63 58 62 87 95 86 78 79 96 100 97 96 95 97 92 97 98 96 77 53 27 21 15 14 14 18 22 31 50 38 45 36 15 13 14 17 20 21 20 19 18 18 18 17
71 66 76 77 73 65 68 90 76 95 62 80 96 96 97 96 91 72 78 74 90 88 63 26 34 41 35 23 31 28 26 40 34 28 31 16 15 16 18 22 22 21 19 17 16 16 16 16 17
58 71 66 71 74 64 82 54 60 68 43 47 84 91 94 85 70 80 60 72 46 44 65 55 41 28 22 26 21 20 50 52 49 34 15 16 18 22 22 23 21 17 16 16 16 17 17 18 18
91 94 92 85 73 92 59 51 79 66 59 48 34 33 45 51 60 53 64 60 50 64 71 65 45 25 13 20 42 53 41 41 28 19 18 21 23 24 23 19 16 16 16 16 17 17 17 18 18
80 98 80 58 79 68 51 68 66 80 72 63 38 23 27 27 20 18 17 17 16 15 15 15 14 11 12 41 68 53 30 21 29 20 22 23 23 20 16 16 16 16 16 16 16 16 16 17 20
99 100 99 99 84 68 73 44 75 69 77 64 57 30 24 20 25 22 14 13 12 12 13 15 19 28 47 54 46 26 23 26 21 22 22 19 15 15 16 16 16 16 16 15 14 15 17 21 22
81 82 81 76 72 71 65 52 50 66 62 49 49 50 24 23 21 20 16 14 16 16 18 22 26 34 36 30 29 43 50 25 20 18 16 14 16 16 16 15 15 15 13 13 16 18 20 20 23
69 72 59 35 29 39 42 62 45 62 69 68 71 46 50 64 54 25 18 15 16 17 19 20 21 23 42 54 51 77 86 46 20 19 16 17 16 16 15 15 13 12 13 18 22 22 24 24 28
58 59 61 60 59 35 50 43 33 28 51 66 62 44 32 50 53 59 46 40 63 40 47 38 21 39 59 80 52 80 75 63 18 17 17 16 15 14 14 12 14 20 26 46 70 44 25 23 28
61 62 55 56 52 42 52 33 28 51 63 68 60 63 60 41 44 55 32 52 67 42 65 54 42 72 75 58 63 85 76 32 19 24 15 14 14 14 15 19 21 27 54 79 87 69 28 26 43
64 58 62 62 62 48 52 48 43 66 57 62 49 48 62 32 37 37 22 33 38 58 76 90 88 86 90 48 43 62 40 17 31 21 16 15 17 22 27 20 38 49 54 67 56 62 34 48 40
67 62 64 63 59 52 59 44 54 57 59 65 51 40 33 32 29 21 17 23 41 54 84 96 57 21 19 24 44 41 19 34 35 17 18 22 33 35 31 48 96 82 71 53 64 39 47 41 44
65 64 74 81 57 43 38 41 36 46 50 68 69 62 44 35 18 18 20 19 30 46 85 52 20 20 22 24 31 23 29 46 19 15 29 50 30 39 45 71 91 87 55 36 45 48 38 43 71
70 72 74 65 62 51 39 45 36 44 65 46 55 49 27 28 20 19 20 19 19 22 51 30 24 24 23 24 27 32 35 21 16 30 53 28 18 30 57 47 76 42 39 50 44 39 56 83 85
80 79 77 74 64 44 31 46 40 55 47 36 38 41 19 26 34 38 26 22 26 30 38 42 31 28 29 32 31 29 25 26 56 62 60 60 55 39 34 38 32 42 46 42 48 76 86 90 99
60 61 74 68 57 46 43 36 43 54 31 18 16 16 21 37 51 74 66 58 56 56 78 59 39 36 36 35 40 44 72 75 91 78 64 99 84 44 23 32 43 46 45 60 83 89 96 100 100

GFSSGP_500_rhum_069.txt.gz
RH
13 9 13 15 30 25 32 45 84 89 94 99 86 70 84 84 73 74 76 72 79 71 62 60 64 74 74 69 64 68 65 68 76 82 87 90 86 93 82 37 12 8 8 5 5 4 4 4 5
12 11 16 22 38 56 64 64 87 87 80 97 84 80 81 99 84 68 71 69 76 72 72 73 81 66 63 66 72 68 55 58 72 85 91 92 91 94 84 29 10 12 8 7 7 6 6 6 7
11 15 21 40 59 61 67 51 51 62 50 88 100 95 95 95 95 92 87 89 87 87 90 80 65 61 71 68 72 71 68 67 75 87 98 95 93 97 85 29 11 12 10 9 8 7 7 9 11
14 28 50 66 68 66 66 47 32 44 59 71 88 95 86 87 81 83 95 89 92 82 69 70 71 72 65 68 72 68 80 78 85 92 100 90 95 98 69 22 23 19 13 11 9 9 10 17 23
18 63 82 74 75 91 71 49 39 37 60 89 83 97 89 96 73 73 80 93 90 83 81 76 77 82 73 71 82 83 79 94 91 91 92 97 95 89 58 51 44 22 18 10 10 12 21 24 24
39 79 86 84 83 94 84 62 51 60 84 70 70 60 77 83 62 58 64 64 70 73 72 83 84 82 84 88 83 90 82 96 96 96 96 96 96 85 37 40 30 35 12 12 16 19 18 27 32
46 81 89 93 100 98 82 76 72 72 90 73 78 57 56 48 51 54 49 49 54 60 60 80 94 98 95 83 76 88 87 78 99 96 100 98 96 76 49 72 50 20 32 16 31 23 31 33 40
65 85 92 88 97 100 84 97 97 84 81 76 54 58 57 59 58 58 56 50 45 53 82 82 90 97 96 99 80 89 92 94 97 96 97 94 82 84 88 70 37 42 15 29 35 30 38 43 35
92 86 90 73 85 99 92 89 100 94 76 80 65 52 72 85 68 52 49 52 49 62 84 93 93 92 97 89 91 96 96 97 96 95 96 90 93 92 30 42 43 27 36 37 27 41 47 40 17
94 83 87 70 68 82 87 82 94 92 85 84 84 73 84 74 77 76 66 66 61 59 57 62 78 95 94 96 97 96 97 97 96 96 94 94 86 56 61 45 30 28 23 43 49 42 34 11 9
99 89 80 72 62 75 89 90 94 92 83 71 62 59 62 62 68 63 61 62 69 78 77 72 69 66 75 77 91 94 97 96 98 94 93 86 76 60 38 23 22 47 58 48 30 12 10 11 12
94 99 84 65 54 54 66 73 72 73 74 71 56 45 44 46 58 63 62 67 72 80 83 82 80 93 97 97 97 96 96 96 96 90 82 82 62 38 24 35 52 55 45 15 12 12 13 13 13
62 96 83 66 61 56 60 61 63 54 50 47 38 39 40 39 43 60 66 72 88 96 85 93 96 96 97 95 97 95 89 92 80 69 57 45 36 28 37 50 46 23 13 13 15 16 15 14 14
47 86 84 87 86 79 64 60 59 54 39 46 47 50 49 46 45 48 66 92 93 92 97 96 95 96 97 96 95 93 87 69 58 60 49 35 34 43 56 34 14 14 15 17 17 16 16 16 15
56 64 78 82 77 80 73 70 75 85 75 69 63 64 76 83 87 90 93 94 98 93 90 88 94 100 98 94 91 82 87 46 27 29 41 62 72 64 23 14 16 17 18 18 18 18 16 16 16
45 69 69 71 76 76 66 77 82 66 53 68 72 80 99 100 82 99 98 97 98 94 93 86 52 26 37 31 22 20 22 30 64 57 50 48 45 15 15 17 20 20 20 20 16 16 16 15 14
42 65 93 86 60 62 79 86 82 55 41 63 94 89 91 96 97 96 96 90 66 62 47 40 47 34 28 27 30 31 37 47 56 63 71 19 14 16 20 22 25 24 17 16 16 15 14 13 11
55 69 90 90 45 52 91 82 82 63 49 46 45 65 93 90 82 85 72 74 88 82 73 83 81 76 55 25 41 37 25 44 52 58 36 20 19 22 25 26 21 16 16 16 15 14 12 10 10
65 78 69 41 55 100 84 89 95 96 63 44 46 36 37 51 56 84 77 65 63 70 63 61 56 43 22 12 14 22 43 52 60 65 28 21 23 25 24 17 16 16 15 14 13 10 9 11 12
75 81 82 50 57 90 73 70 84 94 87 51 39 32 28 33 30 23 22 22 21 23 28 25 19 16 23 14 42 61 46 33 48 29 22 23 24 18 16 17 16 14 12 11 10 10 13 16 20
70 72 69 75 79 80 78 54 78 82 70 51 56 39 27 20 19 20 19 19 18 16 17 17 17 20 40 58 45 40 23 48 46 25 23 22 18 17 17 15 13 12 11 11 12 15 17 27 34
66 61 51 54 74 74 54 56 66 84 77 90 90 46 38 28 21 17 14 12 11 12 13 15 21 24 29 38 41 40 55 77 90 58 20 17 19 17 14 13 12 12 14 15 13 21 20 30 44
60 72 76 67 50 37 39 32 46 63 88 86 100 97 66 40 40 29 20 19 20 29 21 24 25 25 28 64 79 67 73 98 96 80 19 26 31 18 14 14 15 22 21 12 16 36 31 51 48
56 62 67 71 79 76 65 47 36 43 73 75 84 96 92 48 55 46 37 50 50 56 56 47 62 36 58 93 86 91 73 97 96 38 20 38 35 18 17 23 29 20 18 15 21 35 47 58 39
55 50 59 64 66 67 64 52 56 53 57 80 89 73 70 81 68 47 37 40 34 58 68 54 73 65 80 94 98 68 50 90 87 29 32 50 25 23 31 40 30 30 34 53 56 79 80 86 44
63 58 52 51 50 55 52 40 57 75 54 42 62 72 45 75 55 44 41 39 35 52 61 88 93 95 97 58 20 22 39 64 59 34 38 37 26 35 43 53 63 62 52 82 48 34 39 45 43
67 70 67 58 51 47 44 44 38 47 46 57 51 68 63 59 39 31 24 18 18 34 66 72 90 85 86 56 24 26 53 47 55 87 74 37 42 65 83 66 78 95 58 41 27 44 47 42 40
62 65 66 59 53 55 44 39 34 46 46 60 66 64 53 51 33 30 20 18 19 21 35 46 69 50 27 32 27 38 46 44 52 64 69 80 86 91 100 71 76 100 98 34 41 48 42 45 64
64 66 68 68 61 56 51 45 36 45 41 47 52 49 47 54 37 36 24 21 20 21 25 36 51 53 67 41 29 29 37 50 89 98 85 93 99 100 97 100 100 100 54 40 51 45 49 63 75
39 48 75 76 68 62 55 42 51 45 46 52 32 26 19 18 16 22 52 88 66 70 70 66 72 69 62 53 58 65 76 96 98 79 97 87 100 100 100 98 100 76 41 52 47 48 56 77 86

GFSSGP_500_rhum_072.txt.gz
RH
8 15 15 10 16 17 70 84 39 32 66 63 90 85 83 68 78 83 80 66 61 57 58 60 58 55 53 54 56 60 66 60 56 61 62 65 72 85 92 83 46 17 8 7 6 5 5 4 4
14 18 12 14 23 81 71 76 79 58 78 55 98 72 88 92 78 73 74 66 63 58 57 66 68 61 62 64 67 60 57 52 44 52 64 69 89 95 96 82 47 21 9 9 6 6 6 5 8
19 16 13 16 24 78 76 79 82 72 72 64 72 92 76 89 95 88 84 76 71 86 71 82 72 68 67 70 58 56 53 47 46 58 70 80 98 97 97 76 50 17 12 10 7 8 7 9 17
21 17 18 33 90 83 78 72 75 77 72 63 73 86 92 84 92 84 96 88 76 76 72 81 81 79 68 57 55 55 51 52 65 77 85 94 99 98 91 72 40 16 14 11 13 10 10 19 26
24 22 50 72 80 81 76 87 79 78 57 60 40 80 96 86 84 70 85 95 73 89 87 67 63 75 73 70 64 54 46 67 77 92 96 100 97 98 86 76 32 44 28 15 14 10 14 23 19
24 42 83 87 85 80 85 98 70 62 60 55 67 77 94 95 86 69 71 75 74 84 82 75 79 82 79 75 72 62 61 72 82 94 95 96 96 96 85 45 40 49 33 24 14 21 29 22 32
24 60 94 87 78 95 93 96 72 63 100 93 74 75 56 80 82 69 67 82 96 96 92 90 83 94 85 89 79 80 72 75 73 91 97 96 99 98 90 80 54 51 33 24 33 24 32 30 40
37 78 94 85 99 100 92 100 96 94 79 95 90 95 81 77 65 52 45 43 59 88 96 89 88 96 94 94 96 84 75 83 85 95 97 98 98 97 91 52 46 56 37 26 21 30 35 38 38
62 81 92 91 69 94 100 93 86 99 90 85 98 80 69 65 68 70 57 46 63 86 95 95 95 98 93 92 96 96 83 88 95 98 97 96 95 95 88 71 80 57 34 23 34 35 39 41 24
72 83 86 88 68 66 73 92 85 86 94 88 65 66 73 62 52 74 72 72 76 73 71 76 86 92 96 91 95 82 84 97 95 97 97 97 97 95 90 41 69 30 27 34 28 45 40 12 9
75 80 80 80 74 61 67 78 91 82 78 76 70 67 62 65 74 74 74 78 76 74 80 97 75 65 53 66 93 96 96 97 96 96 97 96 95 91 78 56 42 31 24 30 44 30 11 11 13
65 80 84 71 63 54 56 58 63 61 60 64 62 61 63 58 58 59 61 58 68 74 81 85 80 89 78 82 90 82 91 97 96 96 97 96 82 63 56 37 26 26 33 44 16 12 14 16 15
36 82 86 78 76 79 72 62 59 54 44 41 44 44 41 43 50 43 52 60 68 68 63 65 80 84 94 99 98 85 97 97 97 96 96 83 73 50 33 30 31 38 35 13 14 17 16 15 15
45 57 86 80 78 89 82 74 64 54 47 30 31 51 42 34 45 46 40 46 62 61 77 94 97 96 97 97 96 97 96 96 96 95 78 53 42 34 39 41 45 23 14 15 17 17 17 16 15
45 58 58 68 77 78 74 68 61 54 67 55 56 52 51 56 60 62 58 65 72 72 97 96 95 97 92 92 100 98 96 93 76 58 55 53 48 52 62 62 17 14 17 18 19 18 17 16 16
45 53 100 67 62 68 65 100 72 72 50 64 61 57 88 96 82 93 86 80 97 96 95 95 94 98 98 100 98 94 87 67 58 41 42 55 74 82 54 16 16 20 21 21 19 17 16 16 15
48 100 91 63 45 43 54 83 92 56 41 58 79 74 98 99 97 98 97 95 97 92 97 88 75 90 74 40 30 26 31 36 52 82 78 80 82 27 17 19 22 23 23 22 17 16 16 14 12
100 88 59 70 44 42 70 82 79 60 45 60 82 83 90 95 97 97 97 90 78 59 57 60 71 95 69 62 32 29 32 41 68 74 82 91 43 18 21 24 26 25 20 16 16 16 14 10 8
70 76 81 97 35 64 84 87 88 84 86 43 42 41 85 91 90 88 95 97 91 84 77 82 84 76 68 42 36 46 42 37 48 53 74 92 23 23 25 27 23 16 16 16 14 12 9 9 8
68 73 84 50 38 74 84 88 90 88 76 61 42 33 30 47 74 61 64 63 62 65 58 48 39 54 38 23 23 33 38 44 58 74 85 34 23 25 26 19 17 17 15 14 11 10 11 10 10
58 65 64 53 52 65 67 76 93 83 79 60 62 32 27 25 26 31 24 24 26 31 31 38 32 24 26 36 30 52 63 63 42 75 67 27 26 24 18 17 16 14 14 15 14 14 12 9 10
50 55 53 43 51 100 72 100 69 74 77 72 74 58 33 22 19 20 18 17 18 16 16 15 14 16 22 34 54 46 39 36 37 60 67 50 27 18 20 25 19 16 15 17 14 11 9 21 13
51 58 54 64 44 41 39 56 98 64 84 90 87 86 67 37 23 20 17 14 13 13 14 17 19 21 23 22 28 40 49 53 68 93 98 93 32 19 25 27 26 20 14 27 27 28 26 19 23
50 52 56 58 63 69 65 53 97 84 63 76 87 95 89 71 46 31 31 31 32 31 31 54 44 54 55 34 37 63 80 87 86 91 98 97 33 26 29 33 32 24 41 32 28 41 46 50 56
53 61 91 66 56 91 59 64 80 53 62 70 82 98 98 86 59 76 62 51 36 38 36 50 67 43 57 44 66 95 97 97 78 46 88 94 60 27 46 52 38 43 49 27 46 46 66 66 80
68 67 100 91 83 99 48 43 61 57 54 53 59 82 78 71 46 76 75 50 40 43 40 52 66 65 69 67 74 92 41 26 31 50 74 55 52 70 70 55 55 61 62 64 68 78 84 100 93
61 72 72 69 63 58 53 44 46 41 36 47 39 60 72 72 64 58 60 54 38 30 26 35 65 70 80 98 90 78 82 52 32 53 62 47 52 55 58 68 66 85 94 73 82 86 92 98 68
51 69 75 65 62 58 68 50 52 46 35 41 36 42 54 70 57 51 49 45 22 20 21 22 52 47 50 74 41 29 37 35 34 45 49 78 90 97 86 82 91 99 100 100 96 87 76 39 50
33 56 67 77 68 68 58 62 48 56 42 35 37 41 57 57 55 60 46 30 23 22 21 21 25 38 53 60 64 76 76 67 59 82 100 99 96 97 100 100 100 100 100 89 63 76 36 53 52
36 40 60 55 83 64 65 50 56 54 61 47 43 43 41 40 34 22 26 26 28 46 36 36 54 75 84 88 80 62 53 70 89 97 99 98 100 100 100 100 99 95 98 41 50 67 53 54 41

GFSSGP_500_rhum_075.txt.gz
RH
13 8 9 14 12 61 72 66 80 79 63 95 61 44 92 86 83 97 86 71 65 67 61 59 59 57 57 55 53 49 49 46 48 59 57 63 70 80 74 78 78 63 37 19 8 6 6 4 4
10 7 15 14 28 72 78 84 90 80 71 47 46 16 61 81 63 97 97 83 67 63 60 62 61 64 62 59 54 52 48 51 54 58 56 58 64 71 89 83 77 67 38 17 10 8 6 6 6
7 16 16 96 93 77 74 81 88 99 77 64 61 26 46 81 95 82 88 79 78 61 56 58 59 55 65 66 61 55 61 57 49 56 63 71 69 82 96 91 82 65 43 18 10 8 8 8 14
11 23 28 31 77 90 75 84 97 91 23 22 75 39 54 79 95 83 69 62 72 64 61 60 57 60 76 68 65 60 63 49 47 68 86 87 83 85 92 94 80 56 43 16 13 10 10 10 19
18 24 80 86 73 71 86 74 48 30 96 26 38 40 34 90 83 92 90 53 59 67 56 66 68 62 67 73 68 68 53 50 49 82 88 92 96 97 98 97 79 52 32 20 15 14 10 17 24
27 39 90 92 87 83 88 66 73 68 94 19 38 61 64 79 85 73 67 68 88 87 79 82 87 78 81 73 67 55 53 53 54 80 88 97 96 95 97 95 74 61 26 28 21 13 22 38 27
28 98 92 82 74 96 100 66 99 64 39 95 52 76 96 81 91 78 87 94 83 84 95 84 88 88 80 72 65 65 64 68 60 77 85 98 96 95 96 97 91 62 37 37 33 27 34 31 32
29 70 88 80 93 96 96 65 92 84 65 74 96 96 78 83 54 90 95 95 93 89 98 93 94 86 90 83 80 79 76 91 96 81 85 96 96 95 98 69 77 60 58 46 40 33 23 33 33
26 61 98 83 86 96 93 83 91 79 82 60 77 87 62 68 53 52 65 85 97 91 98 98 96 92 91 89 80 62 79 99 95 96 96 97 95 94 93 92 94 95 39 52 46 25 34 36 46
23 96 98 89 91 82 62 64 73 74 76 94 84 78 74 66 55 64 68 77 80 84 75 82 79 96 96 99 97 95 95 96 96 95 96 96 95 94 96 95 94 79 64 46 27 35 39 42 12
88 98 100 79 76 64 66 73 68 83 79 82 70 80 74 74 72 60 64 82 86 74 77 75 75 81 95 96 89 95 95 93 94 95 96 96 97 96 94 95 80 70 44 28 29 47 40 14 11
42 96 69 70 62 60 100 58 53 54 63 60 54 49 57 66 64 51 43 61 73 75 74 79 76 72 88 88 76 74 64 81 94 95 98 96 95 96 97 86 62 46 29 30 50 26 13 13 14
51 62 79 62 66 60 69 63 66 55 47 39 33 62 52 45 51 55 45 54 53 53 63 70 75 71 71 94 90 97 96 94 98 96 95 96 96 96 95 65 40 29 32 48 34 12 14 17 17
59 35 58 52 80 62 65 70 60 36 39 29 21 36 62 70 40 29 44 56 52 64 64 60 70 97 71 96 96 94 94 96 97 96 98 97 96 96 96 37 32 31 45 26 13 18 19 18 17
37 33 59 40 81 85 71 63 96 43 34 44 40 38 29 44 43 37 41 47 45 51 61 70 64 68 93 97 94 97 96 97 97 97 96 96 97 65 47 52 44 56 20 16 21 21 20 17 15
24 73 100 94 100 62 51 67 92 56 58 49 47 50 52 41 42 46 54 52 53 51 59 70 95 97 97 97 95 96 97 99 98 94 90 69 64 72 69 75 88 18 18 21 23 22 18 16 16
100 98 95 96 80 45 43 98 98 65 53 47 61 70 65 71 84 80 60 72 74 69 90 97 96 96 96 99 98 97 95 94 93 93 95 60 50 72 92 84 22 19 22 25 25 19 16 17 16
100 94 100 72 94 88 91 91 94 71 59 50 80 81 92 83 100 100 91 98 96 100 92 90 99 95 95 94 85 81 81 89 85 72 87 81 79 93 58 19 21 24 26 25 18 17 17 15 12
100 96 100 96 98 48 94 98 92 84 83 53 83 32 92 81 94 97 97 95 74 63 63 77 99 97 88 48 34 34 42 57 55 70 78 87 96 81 20 22 24 25 23 17 17 16 14 12 10
55 98 100 99 95 46 78 98 98 69 71 60 37 27 24 45 89 73 76 85 90 75 69 65 71 74 62 40 36 47 50 54 62 61 65 74 96 66 28 23 25 23 17 17 15 14 13 11 11
54 100 100 98 94 58 60 81 100 97 56 72 58 43 23 23 29 52 46 30 33 37 43 45 46 68 66 51 38 33 32 51 51 56 66 85 97 33 24 26 24 18 17 20 16 13 11 14 15
90 71 49 42 45 99 87 100 82 100 58 64 62 58 45 29 19 18 18 15 14 14 15 15 16 21 27 38 49 40 37 51 55 58 42 82 93 67 34 25 18 18 25 27 18 17 22 22 16
75 46 45 40 58 100 96 72 93 93 88 91 80 72 74 65 44 29 20 16 15 14 14 14 15 16 18 26 35 31 43 41 64 38 46 82 96 97 79 46 24 29 25 26 24 40 48 28 34
42 47 47 43 68 95 99 86 98 98 97 97 100 78 57 58 68 65 53 34 31 27 25 24 51 64 46 44 39 30 22 33 50 59 72 81 87 94 99 87 71 40 39 36 44 56 50 44 38
47 52 90 100 100 77 97 53 90 94 97 34 66 79 75 67 78 70 45 66 70 62 45 44 45 45 69 50 57 59 35 35 77 95 98 90 86 96 96 74 57 63 63 56 50 52 36 38 64
52 91 99 100 97 100 89 42 87 67 38 35 53 56 61 69 74 64 52 63 46 45 39 40 45 40 60 61 69 97 99 76 96 32 70 91 75 68 65 57 53 75 75 78 65 69 61 73 97
99 72 95 96 81 63 95 94 62 56 48 37 38 55 50 54 70 72 53 50 51 49 31 22 20 20 43 71 62 82 66 47 35 32 31 44 58 72 75 66 84 90 90 67 79 98 89 96 100
36 69 77 81 95 94 98 99 87 94 58 45 39 37 40 45 59 69 62 54 39 37 29 22 21 21 22 29 31 40 56 46 47 49 60 83 85 89 90 100 91 72 72 99 100 100 100 100 95
24 30 65 100 99 100 98 94 94 96 76 55 49 39 36 39 53 69 69 55 57 41 27 22 21 21 21 22 26 38 44 51 71 78 69 73 85 96 98 99 81 97 98 100 99 100 99 98 94
100 87 96 100 100 100 98 80 98 81 79 54 53 55 45 38 41 51 48 34 25 34 32 35 37 29 29 37 48 73 91 92 84 71 66 87 98 99 99 97 63 77 100 100 100 99 96 100 80

GFSSGP_500_rhum_078.txt.gz
RH
21 21 14 7 8 8 40 71 75 84 77 77 74 77 45 53 46 49 50 74 95 95 80 76 65 45 47 50 54 61 54 46 48 53 55 59 57 62 74 75 75 69 62 48 34 22 14 11 9
22 16 7 8 15 40 89 92 77 80 90 61 23 22 30 48 58 64 65 88 97 100 67 81 65 53 50 58 61 56 50 48 50 54 62 60 55 57 63 75 78 74 62 53 36 21 13 10 7
19 8 11 11 50 51 90 83 76 93 78 74 56 44 30 25 15 40 64 90 96 99 71 64 55 51 47 48 50 54 53 53 56 62 61 62 58 58 58 70 85 81 64 54 38 25 14 9 8
11 10 24 42 72 74 74 74 70 36 33 32 51 63 42 20 15 27 88 96 95 86 69 55 54 54 59 63 58 64 65 65 68 68 61 72 75 76 67 74 85 90 66 50 42 15 22 10 11
7 17 51 100 93 82 81 67 38 39 29 63 92 90 76 55 15 10 72 66 95 91 79 54 71 80 74 72 71 94 90 82 76 60 61 72 84 90 88 88 91 96 72 42 37 15 30 11 16
10 28 92 100 94 75 71 50 45 78 44 94 93 93 95 84 79 44 39 49 69 95 88 85 89 84 76 83 85 92 85 74 70 60 59 67 87 92 95 93 98 98 70 39 38 16 28 14 38
13 39 90 96 79 66 49 60 53 98 91 91 97 90 85 84 83 67 49 66 100 96 95 78 79 94 87 80 78 74 70 67 62 58 67 74 82 99 97 97 96 92 54 30 47 36 44 31 40
18 28 62 96 95 68 57 88 52 73 63 76 97 87 96 94 90 83 81 77 88 96 97 96 96 95 97 82 74 70 62 65 64 71 78 71 80 96 96 96 96 91 38 77 60 30 41 38 26
17 46 95 98 98 73 36 62 55 47 43 58 79 62 71 78 89 78 97 97 97 95 95 96 96 97 76 89 86 76 73 70 74 90 96 96 84 95 95 94 95 95 94 93 51 54 39 22 35
16 54 96 98 98 69 24 46 41 46 42 83 96 96 51 46 64 78 74 87 96 94 94 97 95 95 97 92 94 76 71 79 91 97 96 96 94 96 95 95 95 95 95 54 51 55 32 36 42
22 34 100 93 97 44 25 27 82 70 52 59 81 55 53 39 46 56 46 60 57 58 58 72 83 88 94 94 95 89 96 96 97 96 96 96 96 97 96 95 94 97 94 80 57 35 36 46 29
81 26 56 89 77 21 25 90 62 86 77 52 36 28 42 53 50 52 69 52 65 63 67 80 84 84 86 75 79 91 97 74 75 91 84 99 92 95 99 95 96 93 73 60 30 39 52 19 13
60 28 44 90 28 32 38 42 77 62 64 56 33 14 15 56 42 34 60 55 54 71 75 69 70 74 64 66 68 70 86 77 96 95 96 98 94 96 98 96 92 76 48 36 49 52 21 12 15
20 16 29 98 74 96 54 52 82 82 94 50 40 18 12 20 49 44 24 41 47 55 65 58 63 63 68 60 74 86 77 94 97 96 96 98 96 98 92 96 82 55 31 49 47 35 14 17 18
14 19 94 85 67 96 51 48 34 73 65 62 47 41 35 17 13 25 38 27 37 53 53 42 50 56 55 93 96 91 96 97 97 90 97 96 98 98 98 51 33 35 45 44 33 15 19 20 21
45 69 97 93 83 64 83 21 78 76 49 46 49 48 42 24 15 17 32 33 31 39 50 45 47 50 61 84 97 97 96 97 92 97 97 97 98 95 75 56 47 50 59 28 16 22 24 22 16
78 93 86 77 95 70 97 44 48 76 48 54 63 53 45 34 22 19 28 42 46 45 65 62 68 89 96 94 97 99 97 94 92 98 99 97 96 92 87 72 76 80 28 18 24 25 23 16 15
97 98 98 96 93 69 76 85 70 62 90 50 57 58 59 63 32 38 37 62 88 68 64 82 81 94 94 96 94 93 88 94 97 97 95 94 81 71 90 91 80 27 18 23 26 22 16 16 16
79 87 99 100 93 92 71 59 99 90 72 39 42 53 34 45 80 61 96 100 96 90 89 90 96 95 97 98 95 87 89 96 94 92 95 88 80 83 83 90 20 19 24 25 23 17 16 16 15
44 46 62 91 99 66 51 66 95 84 63 28 45 28 25 22 56 70 96 94 93 91 91 97 96 94 72 56 22 29 36 45 47 63 64 65 61 78 98 59 21 23 24 24 20 17 19 23 18
28 40 85 95 97 90 64 68 93 90 97 58 30 49 26 21 20 28 48 41 53 37 25 25 28 57 51 40 29 30 26 51 57 63 96 69 67 70 89 82 44 24 25 22 18 20 32 27 22
27 67 89 66 77 98 90 51 80 89 72 66 58 48 48 49 46 19 15 13 11 11 11 13 12 12 20 14 42 45 38 33 32 35 52 58 68 82 100 92 47 26 25 24 38 33 35 36 17
30 51 42 37 35 84 86 63 100 96 69 97 58 90 50 55 48 54 38 34 25 18 14 14 14 19 27 20 23 29 43 29 44 55 64 44 65 60 76 100 99 98 81 54 72 77 72 49 44
32 34 42 40 37 41 96 91 92 95 96 100 78 61 46 45 40 54 56 47 60 45 49 43 44 48 44 56 55 52 54 52 46 29 47 67 85 88 90 86 92 90 96 79 66 55 64 62 62
32 41 46 49 61 66 94 68 99 95 88 92 56 35 34 32 28 54 60 54 66 73 47 41 41 42 44 53 57 57 52 63 88 73 58 82 97 94 97 96 91 85 83 67 57 67 85 78 70
38 45 44 74 90 97 98 77 91 98 76 42 37 41 44 44 46 39 48 55 41 47 54 41 30 27 25 24 54 58 64 71 74 74 86 85 82 74 37 52 85 99 92 93 88 76 85 87 91
56 45 47 75 98 81 80 89 96 71 90 51 48 40 35 36 62 45 57 44 55 48 32 34 27 20 18 17 24 47 57 39 46 62 66 40 44 62 67 82 76 82 95 100 96 76 93 99 100
40 100 88 83 78 89 61 97 90 92 99 92 63 41 37 34 42 47 53 60 53 60 48 40 32 23 20 19 20 21 31 26 33 56 51 55 75 85 75 62 84 96 99 98 87 89 91 98 100
26 31 48 67 92 82 50 88 81 68 97 82 94 57 41 40 36 39 61 78 70 61 70 48 44 33 22 16 20 22 32 52 64 65 68 89 93 67 66 83 92 98 99 97 92 98 99 99 100
25 27 38 42 98 99 68 98 100 100 99 83 78 55 50 41 42 41 38 48 55 48 34 15 18 18 13 12 13 36 71 85 80 83 86 81 57 79 88 98 98 99 99 99 100 100 100 93 100

GFSSGP_500_rhum_081.txt.gz
RH
20 21 19 14 6 6 29 49 43 62 93 99 82 73 81 78 77 87 71 86 95 90 70 99 86 97 88 74 62 65 56 56 54 50 53 67 54 48 56 58 65 69 66 61 54 47 41 28 20
22 22 14 5 8 27 48 68 99 93 81 68 84 52 76 82 76 88 77 70 85 88 73 97 89 94 81 70 64 61 58 62 61 50 47 49 49 54 56 60 64 74 68 66 59 48 43 24 17
22 16 4 11 21 49 67 98 92 75 66 56 46 66 57 65 62 54 66 74 68 68 74 98 99 89 83 67 64 61 62 61 60 58 62 61 60 54 56 57 60 71 77 70 59 49 38 23 26
19 5 7 20 59 72 99 100 96 88 79 70 48 58 53 50 38 41 26 24 22 30 90 97 97 86 93 70 62 64 64 72 72 73 78 71 62 60 58 65 72 72 77 79 71 49 39 17 32
11 6 10 22 44 81 98 85 66 63 50 38 59 50 38 47 80 71 61 31 17 24 76 97 92 90 96 84 81 79 70 71 73 80 76 72 59 65 84 92 92 90 88 90 74 54 34 17 30
6 8 8 42 70 99 96 77 62 54 49 61 63 88 75 91 94 54 58 38 32 94 85 97 96 92 89 98 90 85 76 74 86 81 70 65 60 69 90 96 95 96 90 92 77 44 32 20 17
6 7 15 43 82 100 100 87 42 60 60 34 79 97 70 72 90 97 99 86 75 94 97 95 94 96 93 94 90 76 73 77 87 79 68 69 64 67 87 94 98 98 99 97 54 36 32 36 42
8 7 35 45 83 100 96 96 39 49 31 38 66 96 78 98 99 100 96 77 72 81 95 96 96 92 94 88 83 78 74 80 72 72 69 66 66 73 82 91 95 96 97 96 94 33 83 60 32
7 8 32 70 100 100 96 61 64 31 35 37 54 76 94 99 98 100 69 78 62 64 94 95 97 97 92 94 84 79 85 84 69 70 72 71 78 92 88 96 95 96 96 94 75 88 37 41 49
6 10 16 76 100 97 91 73 70 44 52 66 45 82 93 95 95 73 58 70 74 76 81 96 96 96 96 97 95 98 87 81 85 84 94 89 96 95 96 95 95 95 95 95 96 51 49 52 29
10 18 16 40 100 100 60 42 18 68 54 69 61 92 66 75 86 55 36 40 53 76 93 88 93 95 96 95 97 98 98 98 100 86 90 95 94 96 94 96 96 95 95 96 84 60 56 40 30
10 20 35 35 69 94 47 32 18 32 34 57 33 23 42 19 37 51 45 45 37 44 75 76 89 91 94 95 88 79 97 96 95 85 95 89 96 96 96 95 96 95 97 98 85 61 51 34 42
10 21 21 28 34 55 37 26 31 51 67 78 77 36 16 14 21 43 38 40 45 37 52 57 56 57 73 72 65 68 79 92 89 93 94 95 96 95 96 87 96 98 97 88 66 45 35 50 14
11 10 13 23 87 82 86 92 59 55 81 78 67 47 33 25 13 16 31 32 22 36 34 35 34 38 46 63 58 87 80 81 87 89 97 92 98 94 90 100 97 97 77 58 47 45 54 22 15
18 8 27 88 87 79 63 68 47 64 90 95 50 44 44 38 20 13 13 23 27 21 30 30 28 29 40 49 54 74 94 96 95 94 98 95 87 84 96 100 100 90 64 40 49 56 27 17 17
22 31 66 67 90 81 54 62 54 71 70 72 49 48 59 48 30 21 13 19 33 32 30 34 34 34 36 43 57 76 87 98 96 98 97 96 92 92 100 96 60 36 47 61 57 35 17 19 20
38 63 68 65 94 83 57 49 32 88 68 43 37 43 56 47 44 25 17 20 25 32 41 37 50 48 62 73 76 99 84 96 100 98 96 84 88 97 99 83 66 62 56 55 47 17 19 21 23
26 60 67 75 78 58 84 66 40 79 70 37 34 39 43 39 64 52 43 32 29 36 57 44 64 59 56 66 79 85 91 84 99 96 70 96 98 95 93 94 81 77 76 56 17 20 25 25 17
22 43 74 49 86 97 92 52 55 89 64 43 35 47 25 39 56 90 100 77 47 54 70 66 62 72 66 65 73 88 88 90 77 90 97 98 97 97 98 95 99 87 41 18 22 25 26 20 16
29 48 33 48 88 90 69 61 59 74 85 75 69 52 33 20 45 53 79 75 75 78 86 94 94 86 55 43 87 93 96 92 86 89 87 77 90 94 87 79 80 83 19 20 23 25 24 19 18
15 29 42 55 76 67 71 60 88 81 59 90 59 50 38 30 23 28 24 35 36 19 42 47 72 50 39 25 20 18 20 43 52 52 80 93 79 93 97 98 94 60 32 27 24 25 22 23 30
15 39 48 47 53 56 61 57 63 54 58 70 78 77 76 40 32 27 21 15 12 17 22 14 9 11 14 14 29 32 28 17 26 35 32 38 52 67 48 70 88 88 94 79 56 29 33 40 69
14 36 29 33 38 38 69 86 82 90 69 58 39 33 53 60 40 31 39 33 18 17 24 30 35 30 33 37 42 34 33 38 42 32 28 30 61 54 55 62 76 83 86 88 81 96 93 69 56
14 29 31 36 37 33 67 94 80 71 77 67 26 16 27 30 40 49 42 44 36 31 26 25 27 30 27 26 29 33 36 37 52 66 74 40 38 58 63 75 94 96 95 97 97 96 89 76 74
13 23 34 41 37 35 50 74 62 94 64 68 41 29 23 21 30 43 51 66 54 51 48 30 25 23 22 23 23 26 40 51 62 66 64 80 70 84 92 71 63 45 59 70 74 98 100 95 99
19 19 34 36 43 75 63 81 100 84 93 90 88 54 33 17 20 28 42 48 66 45 38 29 24 23 22 22 17 15 41 49 52 71 61 89 98 78 60 55 51 73 77 70 73 93 100 100 100
22 17 43 58 47 95 99 79 97 89 91 100 74 74 48 34 29 23 26 52 56 71 65 39 36 31 23 19 17 21 27 37 21 30 78 92 93 58 61 78 82 80 55 72 95 97 99 98 99
34 33 61 80 98 83 95 88 94 87 94 95 97 60 56 34 33 33 32 31 33 60 83 90 71 67 42 36 22 20 18 22 47 24 62 88 89 73 85 92 87 52 58 84 88 99 99 96 93
48 24 74 97 86 60 77 93 94 96 100 88 98 74 66 62 41 46 38 32 32 63 85 72 90 83 60 65 22 24 25 32 50 29 74 82 88 98 95 83 73 55 83 87 79 90 90 99 86
63 60 35 91 83 99 67 63 84 83 88 99 95 84 64 40 27 29 40 37 31 31 53 65 67 59 53 41 42 60 36 64 75 73 74 98 98 90 85 87 71 66 82 73 37 33 33 20 18

GFSSGP_500_rhum_084.txt.gz
RH
23 20 15 13 6 7 19 44 50 86 82 80 83 71 80 69 72 76 91 64 77 83 70 71 87 95 100 88 92 91 87 82 78 67 63 62 57 60 62 59 56 59 64 63 60 55 46 42 32
25 18 16 5 5 15 36 41 54 61 55 60 84 95 80 66 61 65 79 81 80 77 88 94 96 97 98 96 100 91 84 79 71 63 67 64 57 59 74 89 89 70 67 71 66 61 55 43 25
21 18 5 5 13 30 40 47 40 49 64 49 63 54 57 66 77 78 77 77 74 92 89 80 88 90 97 94 91 86 84 79 72 72 83 70 69 63 62 62 62 66 69 75 70 65 56 47 24
21 9 6 13 29 51 55 49 64 94 79 73 67 64 51 52 54 36 68 78 64 82 86 100 89 77 98 96 95 83 82 76 71 83 83 73 76 84 67 62 58 63 73 78 82 70 62 57 24
21 6 5 23 27 34 45 47 64 95 85 57 71 65 58 84 93 30 45 55 68 64 58 76 72 70 85 97 87 83 82 76 80 87 79 87 89 79 66 74 80 87 86 86 88 85 72 64 31
13 6 6 17 23 19 25 65 98 88 52 57 56 41 96 98 94 77 46 50 68 53 55 39 41 60 93 97 89 88 81 78 79 75 69 79 89 75 70 69 92 90 94 95 93 89 78 70 33
11 8 12 18 18 11 45 56 55 42 34 33 29 47 80 100 90 98 76 69 82 64 79 75 67 63 95 97 94 83 90 85 75 71 67 71 76 78 72 70 87 96 96 98 96 92 78 66 32
10 8 11 24 22 23 33 51 51 30 19 34 60 83 80 90 80 97 100 90 94 98 94 83 94 83 95 96 95 96 81 82 74 69 72 86 89 90 81 75 84 95 99 97 95 96 82 36 65
12 10 10 24 21 30 41 43 38 31 35 56 88 90 74 97 96 95 93 81 82 90 66 80 95 92 95 95 94 96 97 86 72 64 69 75 87 85 80 91 90 97 97 95 94 94 91 87 88
13 13 8 14 17 20 26 36 35 19 43 71 40 53 51 93 94 82 65 66 94 96 86 74 87 79 96 97 96 97 94 84 82 86 74 76 80 87 90 95 95 96 97 99 96 86 81 44 47
14 12 7 11 13 25 16 9 11 18 28 53 53 50 21 54 32 59 44 35 60 64 85 73 92 96 98 96 96 95 94 86 88 89 87 93 96 96 93 96 96 95 89 97 94 92 82 48 66
13 7 7 9 11 26 20 21 69 72 45 54 37 47 23 21 20 42 47 39 42 42 57 89 96 89 96 95 97 94 94 99 93 89 96 86 92 96 95 95 97 85 90 99 96 94 80 66 52
15 9 6 8 58 82 62 47 56 37 54 80 64 62 41 21 18 18 34 32 41 46 48 74 83 93 95 93 94 97 79 98 97 84 92 95 92 96 97 97 95 82 90 100 86 69 59 54 40
14 11 9 17 70 70 61 71 74 61 88 68 49 43 42 35 20 12 13 31 26 29 44 39 50 49 56 71 78 72 82 85 88 90 93 82 91 92 88 96 90 84 99 96 93 80 59 37 59
14 12 11 50 61 64 55 50 49 57 71 56 48 39 38 32 18 14 12 12 24 26 18 36 41 46 47 86 83 44 71 97 97 94 98 91 84 93 82 95 85 94 91 89 77 54 36 53 26
15 16 28 32 73 98 75 58 36 41 71 64 34 44 36 26 24 18 13 10 13 31 26 26 28 36 34 38 44 47 53 91 88 98 96 91 98 90 85 82 81 95 87 73 54 44 59 41 23
16 20 39 58 54 90 58 61 38 63 82 46 40 43 34 28 32 36 23 11 11 22 29 26 34 40 41 40 59 65 71 96 80 87 93 100 97 85 86 76 88 99 62 42 57 61 43 22 19
17 17 25 38 30 72 83 49 50 51 49 76 84 49 24 46 54 48 45 24 19 24 40 45 59 66 66 71 81 85 80 99 85 82 88 96 90 96 88 84 59 44 50 53 61 62 28 20 25
18 16 17 24 29 37 75 50 48 44 68 83 88 46 26 28 53 86 83 49 47 44 54 69 60 85 74 69 58 58 85 93 89 94 98 91 81 74 83 81 66 65 76 70 75 33 20 25 26
21 15 20 18 21 31 76 64 58 55 81 79 68 44 30 26 36 39 34 56 84 69 59 67 72 73 62 52 55 65 80 78 84 90 98 100 100 95 99 99 95 96 96 87 24 21 24 25 24
31 15 15 18 28 23 31 47 55 66 69 71 67 68 36 34 32 18 22 24 24 60 86 79 75 65 45 38 52 62 80 90 92 84 89 86 96 90 92 99 94 98 92 54 22 23 25 27 26
45 23 19 22 21 29 49 44 42 30 48 50 51 69 61 53 51 41 26 14 19 18 16 19 24 28 21 26 30 27 24 26 30 33 32 34 47 66 97 98 80 87 91 95 93 91 85 85 84
44 28 24 24 24 29 44 40 56 37 51 49 48 46 48 33 36 56 45 42 29 25 33 33 29 29 32 36 30 27 31 33 28 30 30 25 31 48 77 52 59 92 72 79 83 87 96 98 91
43 32 29 24 24 21 38 34 65 70 62 58 30 37 37 31 35 39 57 60 52 50 38 28 30 38 28 27 34 36 35 33 34 46 51 61 51 33 57 52 51 67 94 99 90 72 80 69 63
60 31 25 26 19 21 36 25 63 92 69 46 39 34 32 29 30 31 36 51 64 43 50 38 29 27 26 24 22 22 25 34 40 47 48 50 54 58 59 74 86 74 55 46 63 70 65 62 72
73 41 28 21 17 28 32 30 41 72 53 36 48 45 39 30 36 34 33 29 42 58 42 39 27 24 23 20 19 18 16 22 46 36 24 36 32 84 81 60 51 36 44 60 75 70 55 63 93
79 57 40 38 20 21 32 78 66 66 59 64 46 41 53 54 46 28 28 35 37 51 59 58 36 40 36 29 22 18 17 38 47 43 30 21 40 80 78 65 62 60 68 77 80 50 63 80 90
87 81 56 55 26 18 30 79 66 86 71 86 78 87 86 88 56 48 35 34 42 49 71 86 86 87 72 69 47 36 29 22 38 41 55 52 27 62 84 93 98 98 99 87 76 57 68 71 66
81 67 55 64 39 21 28 40 80 70 54 93 83 73 66 70 58 54 29 22 30 35 53 85 95 98 83 66 52 61 40 22 26 43 50 64 62 77 82 98 99 98 96 86 68 65 75 65 39
79 65 56 36 36 27 56 42 62 80 69 60 59 53 89 76 62 38 41 34 27 24 30 44 67 84 84 76 53 60 51 74 70 43 64 96 98 97 99 98 98 93 79 74 72 79 85 62 32

GFSSGP_500_rhum_087.txt.gz
RH
30 29 22 16 9 5 4 13 33 69 74 65 60 58 57 63 73 85 97 82 97 96 94 79 45 43 45 56 86 85 89 95 79 80 84 73 70 64 63 62 58 58 66 64 67 67 47 41 35
33 25 18 11 5 4 6 16 29 62 67 59 67 53 55 48 54 67 83 80 85 89 88 64 75 66 50 61 77 88 75 88 84 88 86 80 82 72 65 66 61 71 85 81 78 73 52 50 38
32 21 16 6 3 4 11 18 30 39 43 34 39 55 48 62 66 51 51 71 84 76 62 69 81 83 74 92 89 95 93 67 98 83 84 85 77 73 64 64 65 59 68 70 83 79 56 59 40
25 21 10 4 4 6 8 21 29 30 26 40 56 59 52 55 70 69 62 49 62 89 92 91 83 100 98 94 96 95 100 82 93 87 100 86 90 82 82 73 66 61 57 60 68 80 73 48 59
21 20 7 4 7 8 13 17 17 20 32 54 79 58 52 51 85 97 79 50 53 58 90 89 98 95 96 96 95 96 98 90 96 79 94 97 97 84 83 78 70 64 65 59 64 85 77 63 64
21 20 7 5 8 12 17 15 13 20 34 44 47 59 64 94 90 96 96 70 49 57 59 74 78 71 74 81 90 97 86 96 73 97 97 78 96 82 85 92 78 68 71 78 78 85 84 83 61
23 22 8 5 7 12 18 12 13 16 20 37 54 83 89 85 92 100 94 93 50 56 55 50 50 36 50 52 67 91 95 82 93 87 90 97 78 76 75 90 81 66 67 72 66 82 90 80 68
24 22 10 7 9 13 16 10 11 14 26 42 72 64 76 72 75 97 89 92 84 91 72 68 54 49 59 68 83 84 96 98 90 92 88 80 76 80 91 89 80 69 64 65 69 93 96 93 84
24 21 11 9 8 9 10 10 10 10 17 43 53 61 95 48 74 87 97 95 96 98 97 96 90 91 92 99 88 94 93 96 93 90 82 78 80 90 86 81 78 72 71 73 80 90 100 98 96
24 22 13 10 11 7 9 9 8 11 19 36 56 68 80 48 36 51 88 84 93 96 94 87 97 98 95 89 80 92 96 96 87 81 85 90 83 82 77 85 83 89 89 88 87 88 82 100 93
25 20 14 10 8 10 13 8 13 20 51 57 72 74 74 47 34 36 51 46 73 83 99 98 97 85 72 80 76 81 97 96 95 96 95 95 94 77 98 96 88 99 97 91 86 82 92 98 72
28 21 14 10 11 13 23 20 32 58 38 76 68 55 44 34 34 30 35 39 52 52 74 92 92 96 91 83 84 97 96 96 93 92 98 95 97 94 99 98 97 96 96 95 77 87 94 99 65
34 20 13 11 8 11 34 48 52 59 41 76 56 40 34 23 18 21 18 39 34 47 72 70 90 96 97 97 96 95 96 95 93 92 98 99 92 91 100 97 98 100 92 91 83 77 87 96 77
42 24 14 12 15 30 48 52 46 39 38 55 40 32 28 24 26 28 14 14 28 33 52 44 86 90 95 96 97 96 96 97 97 95 98 98 93 97 98 92 92 99 88 86 85 78 92 73 61
45 25 15 16 41 52 57 64 40 33 53 51 31 29 30 28 31 23 10 11 12 23 35 36 45 70 79 89 96 97 91 85 89 98 98 97 91 97 95 91 100 100 96 99 88 90 80 67 55
51 27 16 19 34 49 61 54 33 24 38 40 37 33 28 32 30 37 24 12 12 15 23 20 31 40 38 44 81 82 73 82 95 94 96 92 97 99 100 96 92 94 100 97 95 99 87 57 48
59 35 18 19 41 76 57 39 33 59 61 41 56 40 25 33 40 45 44 19 14 15 29 24 26 41 51 53 80 83 53 69 92 94 97 98 99 99 100 89 87 88 97 96 94 71 48 52 54
65 46 23 18 39 51 39 36 36 58 60 41 74 42 25 34 59 60 58 30 16 16 32 38 32 38 55 51 45 54 52 70 97 98 91 99 100 100 99 89 90 90 92 82 65 50 64 55 33
59 53 30 18 34 26 26 40 28 48 50 57 71 39 27 29 43 46 62 55 20 27 49 47 44 47 65 64 69 80 75 81 93 93 90 99 96 97 94 85 66 83 85 55 55 75 79 59 27
65 65 40 20 43 23 20 25 25 41 51 55 64 40 39 27 22 34 24 76 72 63 55 69 57 55 65 60 55 55 69 95 84 88 94 94 99 96 85 84 66 54 49 76 76 80 72 38 21
72 74 47 24 33 19 15 24 26 36 44 66 64 43 40 47 30 21 25 36 86 96 80 66 71 64 71 64 57 61 73 72 80 79 87 79 74 80 89 92 90 85 94 92 92 96 28 21 22
66 79 80 47 16 13 21 17 27 30 40 44 40 55 42 50 36 34 27 18 30 28 64 57 33 27 30 48 67 73 73 74 76 80 84 82 88 92 94 98 100 99 99 99 100 63 37 46 70
89 97 92 61 22 12 28 28 38 28 41 47 38 30 29 34 40 39 35 36 23 30 24 25 26 22 27 26 22 18 20 23 27 34 33 42 49 56 81 94 98 85 75 94 100 92 85 82 90
97 92 89 79 37 16 22 33 28 28 49 46 32 28 27 28 33 37 41 35 42 32 29 33 36 33 37 35 29 30 33 32 29 32 33 34 34 35 40 59 83 65 78 94 86 92 92 96 69
64 79 74 70 52 29 20 22 20 35 30 43 43 24 27 28 32 30 31 37 44 36 36 36 29 27 25 24 26 32 36 37 33 34 40 49 53 56 51 44 56 60 68 75 89 78 62 55 69
78 91 86 88 60 26 20 15 19 41 24 37 51 32 26 34 36 31 28 29 36 48 37 31 26 19 18 19 20 19 19 17 21 27 30 26 31 35 34 65 78 80 66 63 69 40 47 55 68
80 74 88 93 80 36 19 14 24 23 30 29 51 43 46 56 67 54 32 28 38 61 74 62 49 32 39 33 29 24 19 18 22 40 45 44 38 24 25 74 91 77 74 86 87 68 76 78 76
86 100 99 83 70 40 29 16 18 42 47 42 47 52 61 67 78 70 46 46 30 53 56 83 96 91 88 94 71 50 36 34 29 26 24 36 36 52 57 36 64 81 88 92 97 91 97 90 87
85 93 89 86 78 54 37 25 32 39 58 64 64 47 62 53 60 74 62 62 34 35 57 53 75 98 98 97 82 78 61 61 58 58 65 57 72 73 90 94 90 98 95 96 99 94 81 68 64
97 96 100 93 78 61 39 26 34 43 48 66 66 64 79 66 60 63 56 39 48 38 39 37 39 69 95 97 95 90 57 57 55 49 60 66 63 70 98 99 97 96 98 96 98 97 77 75 76

GFSSGP_500_rhum_090.txt.gz
RH
32 31 31 25 18 12 5 6 5 6 9 13 26 46 47 57 56 54 56 70 68 88 95 78 79 63 76 70 64 62 61 90 97 91 92 91 79 73 66 68 65 66 66 66 67 69 67 63 60
35 34 27 20 15 7 5 6 8 12 18 26 34 48 44 43 36 33 37 53 64 75 74 84 85 78 70 59 54 42 44 89 96 93 82 75 75 69 64 62 62 62 62 76 81 84 80 76 75
37 32 22 19 11 4 5 7 11 19 23 36 34 42 36 36 32 36 56 49 39 55 86 88 82 75 64 55 47 59 49 70 96 95 78 74 71 64 65 65 69 69 63 69 76 78 80 74 70
40 24 21 17 9 4 5 8 14 18 20 27 26 38 33 26 30 50 82 100 85 63 68 88 59 49 56 40 56 56 59 69 77 95 79 81 68 70 71 70 70 75 68 68 64 70 78 71 69
42 24 22 19 10 4 6 9 14 16 21 26 25 24 24 48 72 86 85 88 89 88 81 73 93 99 51 40 61 92 89 94 85 88 94 86 85 71 71 70 68 62 72 75 72 65 71 70 74
42 25 22 20 11 6 5 8 13 16 13 15 21 31 58 54 54 80 90 91 96 84 98 100 94 99 82 82 78 82 85 97 93 65 96 89 72 75 81 74 74 77 79 89 94 92 86 80 76
41 26 24 19 12 7 6 7 12 19 11 21 36 43 52 60 40 77 96 95 97 87 83 76 100 90 50 53 64 67 86 69 90 55 90 86 75 72 85 65 76 86 89 94 100 97 97 91 84
43 26 25 20 13 8 6 6 11 16 10 12 28 39 55 66 45 60 84 88 97 97 70 47 37 70 61 62 66 38 46 57 96 93 84 97 85 80 71 70 80 83 88 95 88 96 96 92 79
47 30 25 21 12 7 9 7 11 12 9 13 18 35 48 68 48 47 44 89 94 95 98 88 67 93 90 93 80 46 52 70 85 90 88 95 77 78 69 80 90 91 88 92 99 98 100 96 96
51 38 27 22 12 7 9 11 18 11 15 32 30 40 56 58 41 35 31 52 85 95 96 96 97 97 97 96 96 91 95 79 93 96 87 82 70 74 80 87 87 92 98 99 99 100 98 96 97
54 44 28 23 15 9 8 17 38 28 44 39 33 39 50 46 38 35 21 49 44 82 97 97 95 95 95 90 96 98 100 94 88 94 97 73 72 76 75 78 80 86 97 96 97 100 97 98 99
48 48 34 24 15 12 8 39 40 54 61 55 40 46 38 34 32 30 28 23 42 40 47 92 95 94 97 97 100 95 94 92 95 96 97 82 77 70 84 79 93 100 97 96 98 100 100 95 98
38 50 41 28 17 14 12 37 29 45 48 55 38 43 32 27 28 22 22 16 35 47 56 90 96 95 98 91 95 97 97 97 95 96 94 88 76 88 87 96 90 83 92 95 99 99 99 100 100
24 45 50 30 20 16 23 37 48 42 57 63 53 35 28 25 26 24 18 18 20 39 54 53 92 92 88 90 97 98 97 97 95 96 91 88 81 92 96 94 96 91 88 100 96 97 100 97 96
37 39 55 38 25 20 19 43 54 46 44 64 49 33 26 25 28 31 26 20 13 22 47 46 78 83 95 96 97 96 97 98 96 94 92 88 93 87 84 90 93 94 96 94 99 92 97 98 96
38 40 55 42 30 21 19 36 45 46 39 64 62 38 27 30 35 50 42 29 19 12 26 32 49 56 68 96 96 96 97 96 97 97 96 96 98 92 97 82 96 97 91 92 98 96 97 93 77
51 50 48 50 36 21 19 32 58 45 66 65 56 50 30 30 46 53 62 32 28 15 24 24 32 39 38 57 95 90 86 90 91 95 96 100 99 97 89 97 94 95 92 97 97 99 97 93 91
85 25 50 54 39 26 20 25 37 50 68 66 50 60 39 28 42 42 55 50 34 19 24 30 31 36 54 90 83 80 66 86 99 100 98 98 97 98 91 97 97 96 95 99 96 99 100 95 56
69 19 47 61 42 33 24 23 28 42 54 65 52 70 45 28 23 37 35 77 36 22 28 37 37 47 53 61 81 89 97 77 61 84 96 96 96 94 97 94 96 99 99 98 93 90 70 65 62
58 25 48 61 53 44 30 26 26 32 45 62 65 59 37 30 24 20 25 90 86 39 33 57 52 44 55 70 65 97 86 96 85 94 98 96 96 91 97 97 99 97 88 97 87 65 63 63 69
44 40 64 68 64 58 42 24 22 27 38 75 84 58 38 32 29 24 16 29 89 86 65 71 74 73 64 68 68 61 69 85 84 78 86 100 95 96 97 100 96 68 74 74 58 54 72 75 64
42 68 76 77 77 69 56 29 22 24 39 73 72 65 40 34 37 30 30 17 22 57 82 76 65 69 68 67 64 67 71 79 100 99 99 90 98 96 99 95 80 64 60 54 74 85 84 98 68
60 77 79 75 68 57 58 40 18 23 43 54 45 45 41 30 35 31 32 33 23 28 24 27 33 27 28 53 73 75 75 87 86 74 75 77 74 70 74 84 81 86 92 92 95 99 98 94 90
98 81 69 58 65 33 48 51 22 27 52 49 59 39 27 27 29 36 38 44 46 35 31 34 37 32 27 24 22 23 42 56 63 67 66 65 67 79 82 86 91 95 96 99 96 95 92 93 90
82 78 56 44 51 25 54 62 41 27 30 49 69 55 24 24 24 22 26 28 38 49 44 37 31 31 30 33 36 34 32 30 27 27 28 33 39 43 41 39 40 62 92 83 71 69 78 96 100
74 82 71 62 55 61 68 50 45 26 24 34 66 68 49 26 27 23 21 24 32 43 45 33 30 25 25 26 25 25 24 25 29 38 49 60 56 45 44 42 50 53 64 70 61 66 88 100 93
77 68 84 81 78 60 35 45 59 28 24 22 38 65 54 55 51 32 42 21 28 41 47 51 51 33 24 27 24 21 19 18 18 18 33 47 49 42 37 33 23 48 68 75 67 58 58 82 91
47 88 91 85 63 50 30 42 51 48 21 26 38 58 70 54 58 53 68 38 52 48 44 58 71 70 51 44 48 53 40 32 30 30 29 26 23 24 32 41 50 58 62 89 90 86 92 96 98
52 71 80 77 68 45 38 35 60 52 24 23 63 71 59 57 58 61 50 64 45 54 39 56 70 82 90 97 93 84 67 58 53 57 56 54 48 66 73 67 75 80 87 94 95 97 99 98 98
52 66 100 97 67 54 48 37 59 59 36 28 46 73 92 73 57 64 46 62 60 38 43 31 51 57 67 79 99 98 86 59 53 56 62 56 59 63 74 80 96 98 100 99 98 95 97 98 97

GFSSGP_500_rhum_093.txt.gz
RH
34 38 36 33 23 18 12 5 4 4 5 5 5 8 15 28 34 34 28 33 40 48 54 61 76 72 95 90 85 88 88 82 67 95 89 91 95 90 89 73 71 71 72 70 69 68 68 67 68
48 42 36 29 20 16 10 4 4 5 6 6 8 17 29 38 31 29 30 29 32 40 59 54 65 67 67 76 79 88 80 71 66 92 98 93 89 87 83 70 69 70 75 70 71 78 80 75 78
44 38 39 23 19 18 9 4 6 7 8 9 15 22 21 21 29 31 33 34 43 67 53 60 66 65 66 60 64 74 71 55 47 86 95 87 86 71 67 63 64 68 71 65 64 66 83 82 64
41 40 37 24 19 18 9 5 6 9 10 12 20 25 21 23 22 50 66 73 74 72 66 47 50 52 60 60 62 58 52 44 36 83 97 87 73 75 66 66 71 68 66 65 69 75 76 83 78
42 40 39 26 22 20 10 5 6 8 12 15 24 14 17 27 48 49 57 75 71 56 75 99 72 45 60 52 50 51 48 45 40 75 95 95 78 69 66 70 68 69 67 68 81 77 72 72 73
45 38 39 27 24 21 12 5 5 8 11 13 16 20 30 36 46 32 62 75 80 68 73 97 95 68 92 78 50 48 40 39 69 83 95 95 89 65 70 77 74 72 70 72 87 91 88 86 79
45 42 42 28 24 23 16 7 6 8 11 13 12 14 26 38 50 34 51 72 90 70 75 85 96 96 90 97 88 67 45 46 67 91 97 97 90 60 72 75 67 63 78 94 88 85 95 96 83
44 46 44 30 25 23 15 7 6 9 12 11 10 10 17 33 47 38 43 48 79 98 85 88 91 96 94 97 96 86 72 59 69 83 96 96 92 71 60 67 63 62 86 93 88 83 79 86 90
40 50 50 36 27 23 18 11 6 13 14 11 10 11 17 21 45 41 36 36 66 95 100 90 79 68 79 62 87 94 86 54 65 68 81 95 99 76 73 73 64 76 89 82 84 80 78 88 86
26 48 44 39 32 23 19 13 7 26 24 24 30 28 24 34 44 36 38 34 43 82 96 99 97 76 74 70 73 91 80 49 43 50 72 92 93 96 76 69 71 82 96 91 96 85 81 77 71
18 55 41 45 37 26 21 14 9 31 53 47 48 36 41 38 35 28 31 29 36 48 77 90 92 87 96 97 99 94 93 76 57 58 77 88 94 95 80 65 81 88 92 97 87 76 71 81 93
15 48 43 50 46 30 23 16 12 31 41 38 34 31 37 34 29 25 20 17 18 38 45 65 94 96 93 79 97 96 97 96 96 82 87 78 92 91 67 70 85 96 100 92 92 91 82 92 93
16 24 44 54 48 36 26 20 20 33 39 27 34 49 37 31 27 22 20 18 12 27 44 54 94 96 97 92 77 91 95 97 98 92 84 87 92 95 69 63 82 89 96 96 99 94 89 94 96
21 23 38 56 42 37 30 22 22 31 35 19 43 57 40 32 26 23 18 18 17 16 37 52 80 97 94 96 94 79 97 93 97 93 98 100 96 90 66 60 87 84 96 99 96 96 98 87 95
28 25 36 58 37 39 33 25 32 32 33 20 35 60 39 29 27 31 28 24 25 14 20 53 76 91 93 96 96 71 94 97 97 96 91 97 89 85 74 70 98 98 92 97 99 96 97 99 96
32 22 44 64 30 36 34 29 29 24 31 28 38 59 50 32 29 29 41 44 33 18 21 40 54 68 96 96 94 96 96 96 95 97 97 95 84 88 80 86 90 94 94 96 97 96 98 97 92
29 29 47 60 32 39 36 28 26 24 38 31 49 46 59 41 31 30 39 48 36 21 16 39 29 49 98 95 97 96 96 97 97 97 97 94 81 88 88 82 83 94 90 96 91 96 94 89 94
43 50 38 36 49 43 46 36 25 24 39 34 36 42 55 46 31 28 38 60 40 20 16 39 32 37 96 91 97 97 97 96 96 96 96 95 93 98 91 98 97 95 89 96 95 94 89 96 97
46 41 30 34 59 46 50 29 33 32 29 46 44 42 58 45 30 24 27 75 52 20 17 40 42 34 72 98 84 88 89 94 92 96 98 97 96 97 97 97 94 96 96 97 94 95 98 97 98
36 39 36 40 67 52 49 33 46 32 28 46 47 43 50 41 30 26 16 36 77 22 17 31 65 93 66 86 98 98 99 98 97 97 97 98 97 96 91 92 97 95 96 97 96 99 98 95 99
34 38 49 55 66 48 41 30 50 39 20 37 54 40 54 41 36 29 24 18 48 70 46 55 58 64 77 71 80 92 96 92 93 81 72 91 97 97 96 96 97 97 97 96 97 98 94 89 96
36 60 52 64 60 39 41 20 48 56 22 38 46 39 37 57 41 38 28 20 27 41 80 74 72 78 77 82 87 72 78 98 98 97 91 96 99 96 95 98 97 97 96 92 96 82 76 68 70
54 59 58 70 49 28 31 39 44 40 25 39 42 31 27 50 50 35 31 30 24 30 27 56 54 46 69 65 66 71 82 97 100 100 97 88 94 97 98 98 95 95 73 62 57 57 60 80 85
54 53 63 57 47 24 29 57 33 55 31 34 42 41 32 32 35 35 33 34 35 32 26 32 31 26 27 23 42 60 68 78 88 93 97 93 82 73 69 81 80 68 72 78 82 81 96 97 98
61 50 67 51 44 27 31 48 38 63 42 30 46 50 44 27 27 28 22 20 24 32 32 27 31 35 37 31 26 23 26 37 58 72 76 77 77 72 68 66 70 79 86 97 94 98 98 90 96
86 82 55 67 52 50 50 32 34 68 53 25 47 53 51 56 32 31 28 22 16 25 32 33 33 28 27 28 28 32 34 34 32 30 29 31 33 38 42 48 49 50 48 50 63 84 87 66 60
76 76 96 90 72 67 46 36 32 41 90 34 27 39 59 76 53 46 57 34 46 19 33 39 41 29 22 21 22 22 22 21 20 17 18 23 32 42 38 33 31 34 27 27 36 46 53 65 77
55 66 88 88 76 65 41 39 38 41 88 68 26 38 42 71 68 78 69 54 53 35 48 39 43 58 46 31 32 33 32 27 24 22 21 23 27 30 30 28 34 36 45 52 55 62 74 85 93
21 29 57 71 71 56 39 33 36 42 78 74 38 29 53 60 80 71 79 62 59 54 53 48 49 70 74 78 76 70 76 77 65 46 42 42 40 46 48 49 60 66 67 72 88 94 96 96 99
42 30 36 51 59 56 50 38 50 59 80 69 38 39 83 73 83 75 84 70 58 46 56 53 40 38 81 92 78 74 88 100 97 75 58 57 63 60 54 48 46 56 90 81 92 96 99 99 99

GFSSGP_500_rhum_096.txt.gz
RH
30 39 41 41 33 27 18 14 5 4 4 4 5 5 6 10 13 20 23 24 30 33 42 50 44 50 52 48 58 81 95 90 97 84 80 100 98 96 95 91 85 74 73 68 64 64 64 62 62
40 38 36 33 32 23 18 13 5 4 4 6 6 6 7 13 17 18 22 28 31 31 34 39 64 66 75 86 94 75 87 91 95 92 96 97 95 95 95 93 90 77 74 67 65 70 76 75 75
41 36 33 34 29 23 20 16 6 4 5 7 7 8 8 12 15 18 20 25 45 55 60 37 40 61 69 64 64 68 77 92 82 84 75 97 95 95 97 91 84 77 72 68 67 75 78 87 84
34 35 34 29 25 18 20 19 8 5 6 8 8 8 8 12 19 21 30 54 61 67 85 81 58 60 65 57 68 85 66 76 91 73 56 97 96 95 95 90 90 74 61 63 56 63 63 74 76
29 31 33 29 23 17 19 20 10 5 6 8 10 10 9 14 24 21 36 40 52 59 82 97 96 91 100 64 59 74 79 56 63 72 55 97 94 96 94 73 64 63 63 58 57 60 59 66 70
24 31 38 34 25 18 21 20 11 5 6 8 9 9 9 14 19 28 40 32 48 71 78 75 91 95 98 79 55 64 74 60 50 53 46 93 96 96 95 71 63 62 65 64 63 67 71 70 72
21 31 38 37 34 22 23 21 16 7 6 7 8 8 9 12 12 29 32 29 40 66 73 78 97 90 97 96 87 75 52 52 48 42 43 90 97 96 94 75 67 64 68 68 71 70 86 89 90
20 28 35 38 38 30 25 23 18 8 6 8 10 9 10 12 13 18 26 31 30 40 79 79 91 96 90 95 96 92 96 82 50 33 52 84 97 92 97 82 64 62 66 66 76 81 73 90 98
17 22 37 41 37 36 29 25 20 11 7 11 14 11 22 26 21 32 42 35 28 37 59 90 88 94 96 93 90 89 96 97 58 31 74 82 97 93 90 83 72 69 66 55 63 75 72 68 70
19 15 27 40 37 37 34 27 22 13 10 10 24 29 38 32 33 34 33 30 30 29 38 85 93 83 93 95 81 88 92 81 54 49 50 79 93 98 96 81 85 76 66 61 72 66 69 72 76
22 20 18 38 37 34 31 31 24 16 13 17 22 31 36 26 30 31 26 25 26 25 36 72 80 78 82 72 74 95 99 96 84 51 55 59 90 92 87 89 79 78 75 62 57 69 63 70 81
20 23 25 32 39 32 26 35 28 18 15 26 26 23 26 20 24 26 23 22 23 22 18 32 81 78 74 86 93 93 100 90 86 79 55 56 82 95 99 97 83 80 73 62 74 89 91 92 97
30 22 25 30 46 36 25 40 31 21 19 20 21 17 29 29 23 21 20 19 19 20 15 33 75 96 95 82 95 98 96 96 97 93 88 71 76 96 94 99 90 82 74 74 92 96 98 99 95
38 30 25 32 34 33 29 43 33 24 20 14 20 14 20 23 22 22 20 21 18 18 16 15 54 61 96 100 76 85 95 97 96 96 99 88 69 78 95 97 86 83 80 72 81 88 93 97 97
36 37 29 32 39 25 32 43 36 26 20 15 18 17 21 26 34 28 21 23 23 23 26 15 34 69 91 95 97 78 89 96 88 97 98 97 97 97 96 97 84 90 82 68 79 99 91 95 94
38 38 37 38 50 21 33 44 35 30 22 16 19 23 20 24 36 32 24 25 29 31 33 19 26 52 75 92 95 89 80 77 84 96 97 98 98 96 97 96 83 91 82 78 95 96 99 86 92
35 37 43 57 52 23 26 43 48 39 23 23 19 25 25 25 35 30 26 27 34 37 31 19 21 39 46 97 96 91 88 70 96 92 96 95 97 96 98 97 94 94 100 94 96 98 92 85 88
55 46 64 63 56 45 22 33 53 41 28 26 18 25 29 32 32 30 28 20 45 44 24 16 29 27 41 97 97 96 96 85 81 92 97 97 97 97 97 92 94 96 96 96 98 99 89 89 95
67 53 52 58 68 41 40 23 38 41 39 29 22 20 27 31 32 30 26 16 59 46 22 17 20 30 41 99 96 96 100 88 87 97 96 96 96 96 96 96 96 97 96 96 98 91 94 95 99
58 47 45 61 70 41 45 30 26 40 48 43 24 18 24 29 30 31 26 20 52 49 22 19 24 27 47 91 95 97 97 97 97 96 96 95 96 96 96 97 97 98 97 96 99 94 93 93 97
54 47 58 62 81 51 31 28 29 39 46 36 21 17 25 27 24 34 25 26 39 64 40 30 42 42 56 86 93 96 97 97 96 96 96 96 97 97 97 97 93 93 92 98 98 95 95 94 93
51 59 66 66 70 47 42 31 30 42 50 48 24 16 24 26 22 27 26 25 25 46 56 63 50 52 50 84 96 96 97 97 97 97 96 96 95 97 96 99 94 95 94 97 97 96 94 94 97
53 63 61 68 67 54 50 33 29 47 58 33 20 20 26 28 22 18 28 30 30 26 34 41 56 65 68 56 76 84 77 95 96 97 94 90 93 93 98 96 96 97 96 97 96 95 79 78 68
46 65 84 74 75 51 52 39 36 44 73 49 25 19 28 30 25 17 17 24 26 33 26 31 31 26 36 39 62 63 67 70 90 96 96 96 96 95 94 99 99 96 97 96 74 58 56 55 57
87 86 92 95 77 61 52 43 44 40 70 63 31 20 27 35 36 19 15 18 17 19 28 27 29 34 35 27 22 47 64 70 75 78 79 76 83 97 96 92 80 76 76 74 69 72 77 84 81
99 99 94 73 80 74 50 40 38 44 57 74 29 24 24 36 50 40 22 23 24 24 19 27 30 28 29 36 32 30 28 23 30 32 44 50 52 54 50 39 47 46 52 48 42 42 45 52 71
39 90 93 95 74 68 57 45 48 49 59 74 46 25 32 33 47 53 35 30 40 37 34 28 35 35 27 23 24 24 28 31 33 32 31 29 29 31 34 36 35 31 24 22 30 27 29 35 48
79 38 78 92 84 81 65 65 59 58 51 62 68 43 25 25 42 57 49 43 42 44 47 36 30 30 49 36 21 19 18 19 18 18 18 16 17 21 28 31 34 34 34 35 32 41 54 54 58
30 56 80 92 81 74 76 96 64 61 58 68 63 67 30 33 40 58 48 57 50 56 55 48 41 37 35 55 60 41 33 37 54 59 48 30 26 26 27 23 32 38 41 48 54 59 62 65 86
28 32 22 22 55 68 74 72 81 80 62 67 72 69 43 39 52 54 59 62 61 66 54 50 39 45 47 40 43 75 76 77 83 93 100 84 57 47 48 50 52 51 48 47 68 62 97 100 100

GFSSGP_500_rhum_099.txt.gz
RH
26 29 36 32 29 26 53 49 16 16 6 3 3 4 4 5 7 16 17 19 20 23 26 33 41 44 40 36 52 76 59 82 98 99 76 92 91 98 95 96 92 85 53 78 82 74 62 56 52
24 32 33 30 29 70 53 40 20 15 7 4 4 4 5 6 7 11 13 16 17 21 25 30 33 41 52 60 60 64 42 65 95 97 95 96 89 96 96 96 96 63 79 83 58 66 71 72 63
22 32 29 26 25 49 58 26 19 17 8 4 4 5 6 7 6 10 15 21 22 26 40 59 67 64 52 55 77 73 71 83 90 92 97 98 98 97 98 98 95 93 90 58 62 65 66 73 82
24 31 26 27 31 69 29 24 17 18 9 4 4 6 7 7 7 8 16 28 28 41 44 45 60 66 79 62 66 57 63 85 82 91 94 87 96 97 100 97 97 95 80 75 68 68 71 90 92
28 30 23 15 28 39 24 19 20 20 13 6 4 5 8 8 8 7 11 21 28 32 40 43 59 92 95 90 100 64 48 61 69 82 85 74 94 98 96 95 94 91 93 94 74 70 76 80 83
29 31 22 20 60 50 21 19 20 20 16 8 4 4 7 8 8 8 10 15 26 28 35 34 61 72 72 100 94 97 58 50 67 65 90 71 83 95 96 94 95 95 95 81 73 71 68 62 62
26 29 24 20 37 42 28 22 23 23 18 10 5 4 8 13 10 9 10 16 20 29 33 24 52 70 68 92 98 97 74 46 72 62 61 60 75 97 92 92 90 89 83 76 78 72 67 65 66
24 26 26 21 32 38 35 23 23 26 20 10 6 8 10 8 12 17 27 24 37 35 25 26 40 79 69 87 92 95 96 71 81 60 50 40 61 70 96 89 78 86 77 74 69 72 68 74 82
25 24 28 26 42 25 38 26 30 28 22 12 8 10 14 15 22 26 27 30 33 26 19 25 50 81 96 86 95 96 95 99 73 66 47 36 35 58 97 81 84 88 77 72 65 60 66 77 74
26 25 33 34 21 16 27 30 27 30 24 13 11 15 14 16 20 28 26 29 26 22 20 18 71 86 96 96 93 94 98 97 95 50 44 29 37 90 97 83 77 80 76 63 60 55 67 72 70
28 26 33 30 25 19 18 31 32 31 26 16 15 18 22 9 16 24 22 28 22 18 17 14 21 77 92 94 95 96 86 96 98 84 33 30 38 71 95 90 74 76 70 62 66 71 64 64 68
31 30 30 33 25 17 14 16 31 33 28 21 13 11 12 10 16 27 31 26 25 23 21 16 19 54 94 96 97 90 80 88 99 94 50 52 46 84 93 86 87 79 69 74 72 74 69 66 80
41 34 33 32 29 27 14 15 32 36 27 23 13 10 9 9 15 24 30 30 29 29 21 21 16 31 76 92 78 81 94 84 97 89 60 71 65 68 96 97 95 75 86 77 77 77 76 74 85
53 38 36 32 30 30 25 17 32 36 29 26 17 10 10 10 14 23 30 33 28 29 21 23 18 17 83 82 74 75 95 97 97 93 97 92 60 74 89 96 84 83 89 76 75 78 75 78 80
58 50 37 37 33 32 33 16 38 33 34 29 22 12 12 12 16 21 28 27 25 26 26 24 25 14 40 88 90 81 89 94 96 97 96 98 76 82 83 88 93 99 96 82 74 71 80 95 79
68 58 44 45 38 35 44 23 50 32 35 31 24 13 12 14 17 20 22 25 26 24 31 31 28 12 17 47 60 89 89 84 96 91 96 96 96 85 78 84 82 97 96 86 67 72 85 94 89
70 58 48 50 46 45 42 26 45 54 31 38 24 17 14 15 19 21 19 28 22 27 43 38 30 17 12 28 41 84 94 83 89 97 94 96 97 93 79 78 82 82 96 92 77 82 98 96 81
82 75 61 58 70 89 49 22 37 66 39 39 29 28 13 15 19 19 20 28 21 34 50 36 23 18 21 23 33 88 79 81 71 97 95 93 97 98 95 88 85 97 98 88 90 87 98 89 84
98 98 100 88 88 100 48 36 30 36 48 42 37 39 19 12 20 16 23 26 23 40 56 26 23 17 27 32 36 83 73 73 62 70 82 95 93 94 96 92 95 97 100 86 94 96 93 84 96
96 97 93 78 66 82 55 41 31 28 39 40 42 40 28 13 18 16 22 23 23 38 66 30 20 17 25 28 53 87 86 87 86 64 75 90 98 96 97 97 97 96 96 97 95 96 95 95 96
97 95 95 78 75 85 66 40 33 30 31 42 43 38 23 14 19 18 20 22 23 32 42 63 26 21 39 39 39 94 97 97 98 98 84 96 99 99 96 97 96 96 96 95 96 96 97 96 97
98 68 93 87 92 74 86 50 55 32 30 38 39 35 30 14 22 17 17 20 23 25 32 42 63 30 41 45 43 96 96 97 97 99 97 97 96 95 95 96 95 95 97 96 96 96 96 95 97
94 90 90 87 80 73 67 62 52 38 36 50 43 47 26 15 19 18 16 16 16 18 27 31 44 59 48 51 54 72 94 97 96 96 96 96 95 96 97 97 97 97 97 96 96 97 98 96 96
99 86 91 89 89 68 60 62 80 45 36 57 56 48 38 18 20 22 14 14 13 14 17 26 33 35 45 50 65 66 72 82 93 97 97 96 96 97 96 96 96 96 96 97 97 97 92 73 62
100 98 90 99 98 73 82 80 61 53 43 64 51 47 46 19 18 23 19 15 17 19 20 20 24 27 41 32 27 62 65 66 77 83 94 97 96 97 96 92 96 95 98 96 92 75 58 59 66
98 100 96 100 100 100 99 100 78 55 43 61 54 52 51 24 20 19 24 26 20 19 28 32 23 24 24 39 37 27 32 69 78 88 85 91 90 88 93 100 96 92 74 55 52 58 55 47 50
97 93 97 99 95 93 88 99 95 72 48 55 63 56 56 34 23 23 24 34 32 25 27 38 33 29 26 24 25 26 28 30 27 29 34 34 44 45 42 37 33 37 41 40 38 34 27 27 33
91 100 100 100 100 96 100 100 100 99 54 60 76 66 70 53 23 25 22 40 41 33 33 36 44 32 27 35 26 20 19 22 24 27 30 34 33 30 31 33 33 33 31 30 28 28 31 28 33
81 94 92 100 100 100 99 91 96 100 72 80 84 65 84 62 50 25 26 32 37 44 41 45 43 41 40 37 39 49 26 23 22 20 19 22 21 17 18 19 20 21 22 18 21 26 33 46 59
20 50 81 75 100 99 97 91 97 99 95 84 96 78 70 73 60 34 35 28 38 51 54 55 48 42 31 36 40 34 43 64 62 65 72 82 77 78 56 49 34 24 29 41 36 41 44 66 74

GFSSGP_500_rhum_102.txt.gz
RH
21 22 22 29 26 22 58 71 61 45 32 14 11 4 4 5 5 6 5 9 13 13 15 17 19 23 28 33 37 57 74 51 55 34 31 20 39 49 69 80 88 95 68 62 28 57 81 87 81
22 20 22 28 26 20 64 68 62 50 21 18 13 5 4 4 4 5 5 8 10 15 14 17 28 34 47 46 41 38 39 50 72 74 74 53 63 69 74 84 84 93 88 89 94 86 59 62 62
23 20 21 29 27 22 52 70 58 38 18 14 14 8 4 4 4 5 6 6 9 14 17 23 35 36 44 63 65 61 46 44 26 50 96 96 72 86 97 92 94 90 91 93 95 94 88 89 84
24 20 22 32 26 24 74 56 40 23 18 15 14 11 6 3 3 4 7 7 6 8 16 27 32 38 42 59 68 76 69 58 59 65 92 96 98 99 95 99 98 95 68 90 94 78 83 80 85
25 22 21 27 26 59 65 30 28 32 24 21 18 12 6 4 3 4 6 7 7 7 10 23 32 47 42 54 89 94 79 65 38 58 92 86 95 95 89 99 96 97 90 83 91 58 62 72 80
25 24 22 26 29 62 63 40 16 33 26 22 20 13 6 4 3 4 8 8 10 16 17 24 34 41 38 38 49 80 93 97 64 62 67 71 96 96 89 94 95 95 93 94 85 89 85 74 78
28 27 23 22 23 26 51 46 9 31 28 27 22 14 7 4 5 6 7 9 16 25 30 36 34 28 27 32 42 75 90 98 95 98 68 97 89 78 95 93 97 97 95 94 93 91 93 85 74
27 29 26 23 23 25 41 55 9 20 32 33 25 18 10 6 8 8 10 11 14 20 30 27 24 23 25 50 82 88 79 79 96 99 73 64 97 84 72 99 98 95 94 88 86 79 70 69 66
21 21 29 24 26 50 64 29 13 11 28 33 31 21 12 8 6 7 9 13 18 24 26 21 19 18 30 32 83 95 90 80 94 98 95 92 98 68 90 97 96 90 87 83 79 75 68 68 74
23 22 29 29 28 41 22 17 19 13 17 34 32 22 16 10 6 7 7 12 12 17 21 22 18 19 19 62 96 81 90 92 96 92 82 86 82 52 57 80 94 91 70 77 73 65 69 88 82
33 23 35 33 29 30 22 18 21 15 18 41 31 27 18 11 6 7 9 17 20 18 18 21 17 21 20 54 92 100 96 97 96 92 83 96 59 43 38 50 92 90 73 72 66 63 68 74 74
38 37 35 40 32 29 28 21 13 20 19 39 34 28 19 11 8 7 12 22 21 16 14 17 18 24 26 68 95 97 94 95 90 88 97 62 46 38 53 80 94 92 86 81 82 66 67 71 82
57 50 42 44 40 30 33 26 16 16 20 27 35 30 22 12 8 8 11 20 20 16 13 15 24 26 30 74 95 98 98 96 96 95 96 47 40 49 40 89 94 86 83 90 74 63 66 74 82
60 60 54 49 43 34 33 35 22 18 22 17 37 32 25 13 8 8 15 21 24 17 14 15 25 30 24 68 95 96 95 86 96 96 93 85 49 66 60 89 95 93 93 80 69 65 70 75 74
61 76 74 62 51 40 43 38 27 24 25 20 35 32 27 14 9 10 12 15 15 19 19 15 24 28 20 26 82 95 95 84 94 97 96 83 70 65 63 83 99 97 88 78 64 73 73 73 74
75 87 81 75 63 48 56 40 34 34 34 16 36 40 33 16 11 10 13 14 14 22 22 21 19 24 22 15 32 88 95 93 96 96 97 97 96 92 70 70 93 90 96 85 70 83 74 75 76
73 76 88 90 75 71 77 64 39 46 46 19 32 42 40 24 12 12 15 13 21 20 27 32 32 25 23 13 14 26 36 68 82 90 96 98 91 99 96 73 85 92 87 81 92 92 90 72 64
80 90 80 78 89 97 98 92 49 57 52 30 26 28 42 36 21 12 16 13 20 18 30 42 28 16 17 15 13 25 43 60 81 76 83 95 98 98 85 87 76 96 100 95 89 97 95 88 77
81 93 68 77 92 86 98 98 68 52 55 29 35 46 48 45 35 12 15 15 18 17 26 48 22 15 12 16 20 27 27 37 69 91 76 88 95 97 99 91 82 98 82 91 89 95 96 94 89
54 65 64 71 97 98 96 98 72 56 54 31 33 38 52 83 41 14 15 15 19 17 21 37 44 14 14 24 24 35 37 43 71 80 67 83 98 96 98 97 99 99 100 99 99 98 96 94 95
35 73 72 81 99 93 87 92 56 53 48 38 37 39 48 53 35 14 17 15 18 14 18 31 46 45 20 28 45 50 36 47 76 79 68 72 89 87 99 98 99 99 98 98 98 91 96 97 96
30 57 95 92 96 92 98 77 59 62 59 50 40 34 42 45 52 15 19 15 16 12 13 20 34 52 58 37 33 51 45 88 81 75 85 77 82 89 95 92 98 100 96 97 97 96 96 97 96
23 40 75 96 91 94 80 100 47 68 66 54 51 49 35 44 37 14 19 15 16 13 14 15 30 33 35 53 59 44 61 88 97 97 96 100 99 90 94 94 93 96 97 95 96 96 96 96 97
27 44 61 100 100 84 79 91 64 66 58 55 80 62 60 45 44 18 21 17 15 14 18 19 18 25 36 37 28 56 50 60 89 97 96 97 99 98 96 97 97 96 96 96 97 97 96 96 96
17 22 60 95 97 64 86 90 72 65 60 56 80 99 63 61 48 23 19 18 16 16 18 25 21 20 23 37 36 25 52 59 67 73 92 96 96 96 96 96 97 96 97 97 96 97 95 94 70
17 23 46 89 96 100 95 79 79 91 82 63 97 98 58 43 54 24 19 17 20 23 21 25 22 22 23 24 31 33 28 46 73 78 76 88 97 96 96 97 95 96 95 98 96 94 83 67 62
20 26 44 97 100 96 98 89 95 96 98 91 87 90 58 54 43 25 20 18 20 29 29 31 27 27 26 29 28 24 24 29 33 80 90 85 85 86 94 94 92 89 95 93 83 70 65 53 40
18 39 82 100 97 95 93 97 98 96 88 96 96 81 65 57 50 38 23 23 18 27 41 34 36 35 34 32 28 36 20 20 23 30 31 33 34 38 45 39 38 40 49 45 35 29 28 26 26
29 31 44 95 99 89 96 94 98 96 97 99 97 94 94 74 54 55 28 23 19 22 39 39 40 46 40 31 31 29 43 30 20 19 19 21 19 19 19 20 22 24 24 26 29 31 31 29 31
84 88 83 100 91 96 100 82 98 94 90 94 98 98 98 82 62 54 52 33 23 24 32 38 45 52 52 47 26 21 30 31 51 38 31 39 55 62 60 43 37 32 29 27 24 31 43 44 49

GFSSGP_500_rhum_105.txt.gz
RH
18 18 21 17 20 28 35 32 52 83 58 35 43 18 14 10 5 4 5 5 6 5 8 10 13 14 16 21 32 41 39 62 88 74 22 20 12 12 14 19 29 37 69 84 79 52 44 21 22
15 15 20 16 21 28 30 66 79 74 46 37 35 18 16 13 8 5 4 6 6 6 8 11 14 17 24 28 29 36 52 69 48 38 24 26 39 28 42 33 53 76 88 96 89 42 35 25 44
14 14 16 20 21 29 30 33 48 41 35 47 32 20 15 13 9 6 4 4 5 6 7 8 9 19 23 34 33 41 86 59 64 51 30 36 92 57 29 54 64 96 99 96 47 30 28 66 85
13 13 13 20 22 26 29 59 59 49 46 39 18 20 17 15 11 7 4 4 5 8 8 8 8 10 13 29 44 38 59 62 93 61 33 29 88 95 70 54 99 100 98 86 57 81 86 95 76
15 12 15 21 22 23 20 56 43 30 28 46 29 23 20 17 12 8 6 5 6 8 10 20 21 22 28 36 46 39 34 44 78 97 51 34 97 94 96 83 93 97 96 82 85 95 89 94 92
17 10 12 14 21 22 23 35 31 15 12 33 31 20 15 15 14 10 7 7 8 9 16 22 24 31 34 33 31 29 30 48 90 92 90 30 96 95 96 97 92 95 90 58 61 80 98 84 81
16 10 13 16 20 23 29 41 29 12 6 18 16 22 17 16 11 13 8 7 10 12 14 21 27 27 25 23 24 29 38 45 82 95 84 78 72 92 95 97 92 89 97 86 60 82 97 78 69
17 5 3 16 21 24 30 48 54 17 10 11 14 18 21 22 16 15 10 8 10 16 17 22 23 22 20 22 22 30 42 62 76 92 94 91 55 59 96 95 96 89 95 99 96 86 90 92 86
11 6 4 26 22 28 26 64 71 29 15 9 13 13 18 14 13 14 10 9 12 21 23 21 22 19 22 18 15 20 47 72 94 94 94 96 70 65 96 78 83 98 98 98 97 96 94 90 80
9 5 9 27 29 28 27 31 44 45 20 10 12 7 9 11 10 14 9 10 12 27 27 24 17 19 20 17 16 39 87 95 89 100 96 96 84 71 97 84 70 97 99 97 94 84 80 80 70
11 3 5 14 30 35 34 31 27 32 35 30 20 14 9 12 11 18 10 10 9 16 18 15 13 14 16 17 23 65 93 81 81 94 87 96 82 82 100 88 98 100 100 96 88 74 73 62 58
4 3 3 5 22 38 38 35 32 28 33 36 31 24 19 13 15 21 12 11 10 16 16 14 11 12 16 18 29 87 96 96 58 83 90 94 94 82 95 54 51 81 96 94 85 73 73 61 60
5 4 3 3 5 22 48 42 37 33 34 37 34 24 23 15 23 24 13 12 14 17 16 13 13 13 16 21 38 95 94 92 94 61 85 95 96 92 90 47 48 74 96 89 78 74 93 66 60
5 4 3 2 2 5 48 52 44 37 38 47 38 28 22 16 26 29 12 12 17 15 14 18 21 17 16 25 40 94 96 96 97 92 83 89 96 94 66 40 68 77 96 85 80 81 93 64 66
3 3 2 2 3 8 83 62 56 49 49 54 45 31 19 16 16 26 13 13 21 20 17 20 25 23 14 23 51 77 96 96 92 96 90 97 95 64 47 52 73 91 97 92 88 81 83 68 70
2 2 3 5 12 40 99 52 69 68 60 58 53 35 24 16 13 32 15 11 21 18 18 18 36 34 20 24 56 68 94 96 96 96 96 96 94 55 49 56 85 98 94 97 93 88 76 82 72
3 4 7 4 31 45 97 68 65 66 68 69 54 35 34 27 21 25 18 11 19 16 17 16 37 29 25 26 21 53 50 84 93 95 96 97 96 99 88 66 80 98 96 97 100 92 92 84 81
10 9 5 5 27 52 65 72 76 76 54 93 66 49 42 24 19 22 23 13 18 18 18 15 34 24 19 24 21 26 38 43 52 80 96 97 97 97 87 82 68 84 89 92 97 100 93 94 92
5 6 6 5 38 45 70 49 83 94 61 99 97 67 46 27 26 16 24 17 20 20 19 14 25 41 17 18 21 24 29 31 37 39 60 92 95 96 98 96 95 89 77 88 100 98 88 92 94
6 4 5 11 23 36 55 42 61 95 72 58 90 64 43 34 34 14 28 18 20 19 17 13 18 40 28 13 16 21 23 31 33 33 38 51 68 87 91 99 98 96 91 96 93 85 95 92 95
7 6 8 13 19 25 49 35 73 96 85 85 86 66 68 47 39 19 32 21 21 18 13 12 16 33 52 23 14 21 30 42 54 55 58 54 60 72 79 97 97 95 93 97 97 92 93 87 78
4 8 12 12 18 24 52 25 55 98 82 56 72 77 68 44 26 28 33 23 22 17 14 14 14 27 39 51 53 40 34 67 87 83 86 75 71 77 87 94 96 97 97 96 99 97 96 90 92
7 13 13 12 13 24 36 51 42 96 66 69 71 60 56 36 30 35 36 23 23 17 15 16 17 17 28 36 42 41 56 55 64 83 91 100 96 82 88 94 96 97 97 97 98 98 95 96 96
11 14 14 13 14 22 32 63 52 82 80 71 66 76 86 46 33 37 32 19 24 17 15 18 23 18 20 22 39 31 44 63 58 79 98 97 96 95 92 97 97 98 96 97 98 97 96 96 96
13 13 12 13 13 13 40 64 52 61 86 94 83 86 71 60 35 37 43 25 24 20 15 18 22 21 17 21 27 38 28 61 70 64 76 97 98 97 97 96 97 98 97 97 97 96 96 97 96
22 24 11 12 12 15 35 38 47 93 98 94 98 97 93 82 55 45 46 31 23 28 19 21 23 25 24 23 22 27 31 43 70 65 57 85 95 96 98 97 97 96 96 96 96 96 97 97 96
65 49 34 20 16 22 28 54 60 92 92 84 89 98 98 86 70 50 51 31 22 31 28 29 29 29 28 25 26 26 24 29 53 77 75 68 83 95 96 96 97 96 96 96 96 97 97 92 90
76 71 67 36 33 26 43 66 85 86 99 99 100 93 96 96 78 48 51 34 24 25 28 39 36 33 36 31 30 28 32 19 28 34 55 65 64 72 84 95 97 96 96 96 96 95 93 88 69
95 82 53 37 52 44 60 63 94 99 98 93 83 88 100 83 85 58 54 40 26 24 24 39 42 38 43 42 33 28 28 39 21 21 28 34 42 49 60 64 54 50 57 63 63 61 53 41 37
52 100 52 76 29 33 76 59 100 100 97 97 98 90 100 92 91 71 59 53 32 26 24 29 43 46 46 50 51 42 20 27 30 44 24 26 27 23 31 29 22 23 27 28 28 30 32 32 33

GFSSGP_500_rhum_108.txt.gz
RH
10 10 11 15 18 18 18 21 21 17 18 31 42 49 42 22 17 16 12 7 4 4 6 6 6 8 10 13 16 24 29 30 42 45 42 57 37 23 13 12 10 14 12 66 85 86 80 70 51
8 9 10 14 20 18 20 16 17 13 13 30 36 35 28 21 18 16 13 9 5 5 5 6 7 7 9 14 19 22 27 36 49 67 66 48 38 16 12 12 12 11 12 32 77 76 82 63 36
7 8 8 13 16 20 18 10 9 14 12 16 19 25 24 18 15 13 13 10 5 4 4 5 7 8 8 8 15 15 25 32 55 78 63 62 38 18 15 11 20 16 24 31 53 76 80 51 22
9 8 7 18 16 18 22 16 17 9 7 8 9 17 19 15 12 12 13 11 7 5 5 6 8 10 13 12 12 12 17 25 46 54 100 86 49 23 38 49 51 54 58 63 96 89 82 55 16
5 6 4 14 24 20 20 19 13 9 6 7 9 12 11 12 17 11 16 15 9 7 7 8 10 21 17 19 23 30 30 28 26 33 48 94 92 38 46 89 94 73 83 97 96 90 73 36 28
4 3 4 8 17 23 26 18 11 7 10 15 11 8 9 15 11 15 16 18 11 8 7 8 12 15 24 27 26 24 27 38 46 43 51 96 96 26 56 88 95 93 70 74 91 79 68 57 81
4 3 4 4 16 28 28 10 4 9 20 12 15 9 6 9 10 10 20 18 12 8 7 10 14 19 21 22 23 24 24 26 38 64 86 95 85 91 92 94 96 84 65 83 89 80 68 74 95
4 3 4 10 16 26 20 12 6 15 17 10 13 17 9 8 9 10 18 20 12 8 8 15 16 16 17 19 25 28 30 44 56 62 85 93 96 97 74 94 96 91 96 93 84 39 68 86 97
3 3 4 13 8 26 16 13 14 16 15 15 15 21 20 12 10 6 8 24 15 10 8 16 19 17 15 16 20 24 27 32 50 65 75 97 93 96 96 94 96 97 92 95 90 68 76 96 94
4 4 4 8 7 13 24 8 10 10 16 20 23 22 22 15 10 4 7 25 23 13 14 23 20 16 14 18 19 20 24 39 59 92 96 97 94 83 93 95 92 98 73 84 94 96 92 94 96
3 3 4 4 6 7 14 8 14 11 13 24 28 28 27 23 15 8 9 20 29 16 16 24 19 15 14 17 18 21 26 53 95 96 96 97 97 93 96 96 85 74 71 84 81 97 96 96 96
3 4 6 8 6 4 3 4 4 12 12 24 34 38 32 28 20 15 14 20 30 16 13 19 19 14 17 17 15 24 37 96 98 96 96 93 97 95 96 97 91 78 91 94 96 94 92 84 92
6 6 6 8 4 3 3 3 3 12 24 33 37 38 46 38 26 18 19 23 24 15 13 13 17 16 21 18 16 27 45 96 96 91 94 86 96 92 96 92 81 94 98 97 98 83 83 82 82
8 8 7 4 3 3 2 2 4 19 54 61 57 46 57 49 38 24 24 27 19 15 12 17 16 17 19 26 22 27 66 97 96 89 94 88 99 95 97 91 77 54 71 90 97 84 90 74 80
8 9 7 4 4 4 3 3 5 19 28 38 60 54 57 58 46 34 26 29 21 19 13 15 16 16 20 32 25 32 72 95 98 96 91 95 98 96 97 97 57 48 57 77 85 82 74 74 92
8 8 8 6 7 5 5 4 5 18 32 46 68 59 46 45 56 40 23 32 32 22 14 14 17 15 22 27 27 44 54 89 94 96 85 92 96 97 96 90 63 59 59 68 76 82 80 83 95
6 8 7 6 5 5 6 4 4 16 26 68 81 75 56 46 55 39 25 35 33 23 16 16 17 13 26 21 27 41 61 67 96 90 95 97 97 97 98 95 64 57 55 70 89 94 97 94 95
8 8 8 7 5 5 4 4 2 7 32 60 86 88 70 50 52 42 40 40 31 24 16 16 17 13 26 17 22 22 28 48 90 97 96 97 97 96 93 52 42 53 73 88 90 92 94 97 94
8 8 9 7 5 4 4 3 2 7 22 34 70 93 74 46 86 65 38 38 32 24 18 17 14 12 26 23 16 19 21 28 43 76 95 97 97 96 90 65 58 62 73 98 100 95 96 97 88
10 9 8 8 5 4 4 4 2 4 13 48 60 79 85 68 49 58 36 39 32 27 20 17 13 12 22 39 19 17 20 27 25 34 55 93 97 97 94 81 81 66 70 70 91 100 99 91 95
10 8 5 6 5 4 3 3 3 5 12 32 55 69 85 67 65 65 47 47 42 36 21 18 13 13 19 36 48 26 25 33 42 34 43 53 80 87 99 97 92 94 95 96 90 90 96 99 95
13 9 7 5 3 3 3 3 2 4 14 29 54 66 85 67 58 54 52 50 52 44 22 18 15 15 16 26 35 50 42 26 38 51 69 70 76 59 64 86 87 94 98 97 97 97 95 86 91
8 5 4 3 3 2 3 7 2 4 14 51 62 86 99 87 90 78 54 49 53 55 23 19 16 18 19 18 22 37 46 41 36 55 79 100 98 97 76 80 92 96 88 99 97 95 96 89 87
5 4 3 3 4 5 4 9 2 7 18 56 98 99 97 96 90 84 68 47 54 43 25 19 16 21 21 18 19 34 38 46 47 65 69 98 98 97 97 93 100 100 99 100 99 94 90 98 93
4 4 4 6 8 4 6 9 3 7 29 58 94 86 80 84 67 48 57 70 40 29 27 18 16 21 22 20 20 22 36 35 59 77 66 82 99 96 98 97 98 98 98 98 97 96 97 97 98
5 7 9 17 6 6 9 6 6 12 50 61 68 89 64 87 53 44 53 72 53 38 30 21 17 22 24 23 24 25 28 34 65 86 67 96 98 97 97 96 96 97 97 96 97 97 97 97 97
7 18 23 68 65 55 14 8 9 15 45 65 72 97 97 82 84 64 54 65 62 43 34 29 21 25 28 26 27 25 23 26 52 87 92 86 99 97 97 96 97 96 98 97 97 97 98 97 97
55 34 52 79 93 62 31 18 13 34 62 81 100 99 82 95 90 90 95 98 80 58 33 36 34 32 33 31 30 28 29 20 32 53 91 94 94 96 97 96 97 95 97 97 96 96 97 97 97
74 60 96 65 89 76 34 18 40 74 100 99 98 98 84 78 80 91 98 95 76 63 37 41 37 38 37 34 33 36 29 32 19 33 50 79 91 94 97 97 97 97 96 97 97 97 97 97 96
46 100 100 100 90 67 35 14 80 95 88 94 97 95 90 100 100 70 99 96 81 53 40 45 41 40 41 39 39 30 33 25 32 22 22 29 54 80 84 91 94 95 94 85 78 68 61 53 58

GFSSGP_500_rhum_114.txt.gz
RH
8 7 8 7 7 4 4 4 5 5 7 7 6 7 8 10 13 16 16 14 15 14 12 8 7 7 6 4 3 4 5 11 10 18 20 20 25 35 39 30 19 15 15 22 32 43 60 75 68
9 7 7 7 6 4 3 3 5 6 7 8 10 10 7 10 8 9 8 10 10 12 12 9 8 6 5 4 4 4 6 8 11 12 14 19 26 40 54 48 44 39 26 21 30 41 57 99 90
7 6 6 7 5 4 2 2 2 2 3 5 6 8 8 7 5 6 8 9 9 10 8 6 9 6 5 4 4 5 6 10 20 19 9 11 52 51 72 74 69 54 35 31 23 37 46 100 95
4 5 5 7 6 4 3 3 3 3 3 3 3 3 5 8 7 8 8 6 6 6 5 6 9 8 6 5 5 6 6 8 10 12 30 58 36 90 82 81 93 56 30 23 27 34 40 100 96
3 3 4 7 7 6 4 4 4 4 4 3 3 4 4 5 7 9 13 9 5 8 6 5 8 10 6 6 7 9 10 12 12 20 89 90 96 51 60 88 97 78 33 27 36 56 51 98 94
2 3 3 5 7 4 6 4 4 4 4 3 3 3 3 3 4 9 17 16 10 7 7 6 7 10 8 7 8 10 12 13 11 13 16 41 95 94 96 89 97 95 47 61 52 92 100 94 85
3 2 3 4 7 7 10 4 4 5 3 3 3 3 4 4 3 4 15 21 17 15 16 11 8 11 10 8 8 10 12 12 11 11 14 32 68 76 90 91 97 84 66 90 64 75 68 98 68
5 3 2 3 7 11 11 6 5 5 4 3 3 3 4 4 4 5 11 26 25 22 19 14 12 13 12 9 10 12 14 14 13 12 18 28 58 92 96 96 96 67 96 95 57 47 96 90 76
5 4 3 3 6 11 11 6 5 5 4 3 3 3 3 4 8 11 15 29 28 26 28 16 16 14 14 10 11 14 15 14 14 16 17 22 41 59 80 97 98 91 96 98 71 46 98 88 88
6 4 5 6 6 6 7 6 5 5 4 5 5 3 3 4 5 5 9 15 28 30 31 22 18 18 14 10 10 14 16 17 20 27 19 21 50 58 70 87 96 96 98 99 94 49 81 93 64
9 5 7 7 7 4 6 6 5 4 6 8 5 5 3 3 3 3 5 13 43 32 37 33 18 22 15 11 11 16 17 16 22 33 26 23 60 76 85 82 94 95 96 99 94 66 89 51 48
12 10 10 8 7 5 5 5 6 8 9 7 5 3 3 3 3 4 4 10 31 42 46 37 26 26 17 13 14 16 17 16 22 34 28 43 72 95 100 97 96 94 92 98 96 96 87 85 92
15 12 10 8 6 5 4 4 7 8 7 5 5 4 4 3 3 3 3 11 36 49 53 43 33 29 23 15 17 17 17 20 26 28 33 45 94 97 100 97 98 99 95 81 97 93 90 80 76
17 12 10 8 6 4 4 5 6 7 8 6 6 5 5 3 3 3 3 7 25 53 58 53 39 31 27 15 17 18 17 22 23 27 37 60 95 97 96 97 98 89 96 98 97 92 92 93 93
22 17 13 10 6 4 4 5 7 6 6 6 7 7 5 3 3 3 3 4 22 56 60 58 40 32 31 17 16 18 15 23 20 33 62 81 97 98 100 98 89 94 96 94 96 73 82 84 89
26 21 18 10 7 5 5 9 10 9 10 12 8 6 4 3 3 3 3 7 41 59 66 62 41 36 31 18 17 15 21 28 19 41 58 77 97 98 96 96 89 83 89 94 94 83 82 82 88
30 24 13 8 7 8 6 6 7 10 11 8 6 5 3 3 4 3 3 6 31 66 66 60 42 32 29 18 17 13 24 36 17 24 45 73 93 95 97 95 93 98 82 90 100 97 94 81 86
24 14 14 10 8 10 8 6 7 9 8 8 7 6 7 6 3 2 2 4 28 69 69 58 40 29 27 19 16 14 24 37 15 20 32 81 100 95 96 92 99 94 83 87 84 95 100 88 84
32 21 23 15 8 9 8 7 8 8 9 11 9 7 6 4 4 3 2 5 33 77 86 65 46 27 22 19 15 16 26 43 18 24 44 72 97 97 96 96 96 93 78 79 78 100 100 94 86
86 69 52 39 19 14 11 10 12 10 10 11 8 6 5 5 4 3 3 6 29 81 90 71 52 35 20 20 14 16 21 34 38 21 35 62 94 97 96 96 95 92 89 81 66 90 91 90 94
50 36 28 23 15 14 24 37 14 11 12 12 10 7 6 5 4 3 3 17 40 92 98 89 48 38 22 20 15 16 18 24 44 28 42 46 97 97 96 96 98 95 92 92 61 62 75 95 99
95 65 24 17 17 15 13 23 15 14 13 13 11 8 6 5 3 3 3 14 46 86 92 78 41 35 23 20 16 18 19 18 33 45 47 47 76 96 97 97 96 93 94 84 86 81 78 82 90
59 29 50 52 39 34 22 15 20 16 17 12 8 6 5 4 3 2 3 17 34 71 99 69 38 34 26 20 17 21 20 17 23 37 42 51 49 93 97 97 97 96 95 81 65 64 71 87 87
82 47 24 23 24 27 27 20 22 18 15 13 8 6 4 3 2 2 4 14 45 81 94 78 52 43 32 23 19 23 19 20 20 35 33 51 45 56 93 97 96 96 92 61 69 76 69 81 87
91 87 82 76 43 36 26 24 27 18 15 12 10 5 3 3 2 2 6 20 58 94 88 80 65 51 41 22 22 24 22 22 20 25 33 34 59 50 69 87 96 97 96 96 90 83 85 95 99
80 56 40 33 43 45 47 32 16 15 12 11 9 6 4 3 2 2 15 34 76 90 82 76 64 57 26 22 24 26 26 25 18 24 31 47 64 68 70 87 95 98 96 96 97 96 96 97 96
42 34 33 33 39 33 26 21 21 12 11 9 8 5 3 3 2 2 18 44 92 96 78 82 59 42 32 21 23 29 29 28 18 22 26 44 69 88 94 78 95 96 95 94 93 96 97 97 97
64 58 54 50 37 30 36 33 14 12 10 8 5 4 4 3 3 8 23 56 98 90 75 86 49 36 54 18 22 30 33 32 25 19 23 45 81 92 96 97 95 100 98 95 96 96 96 97 97
72 65 61 58 51 44 42 28 17 11 8 6 4 5 5 5 5 9 38 65 95 81 90 91 49 54 68 22 23 32 37 34 26 16 24 33 60 80 96 97 96 95 96 97 97 98 96 97 96
96 78 76 54 46 45 33 20 13 10 9 7 5 20 15 26 10 20 50 91 96 77 100 100 65 90 55 24 25 35 41 38 30 16 20 26 35 56 83 97 97 96 95 97 97 97 97 97 97

GFSSGP_500_rhum_117.txt.gz
RH
11 10 6 5 5 4 3 3 3 4 4 5 7 9 11 8 6 6 4 6 5 5 5 5 6 5 6 5 4 3 4 10 13 8 14 19 19 20 23 30 32 28 19 12 18 41 45 52 48
7 9 6 5 6 5 3 3 3 3 4 4 6 5 8 11 9 10 7 5 4 5 5 5 5 5 5 5 5 4 5 12 17 20 24 19 16 14 20 30 40 33 24 16 16 43 68 89 82
5 6 5 5 6 5 3 3 2 2 3 3 3 4 9 14 12 11 8 6 5 5 5 6 5 4 5 5 6 5 8 11 9 18 37 27 18 13 23 67 52 55 47 45 24 30 57 96 100
4 5 4 4 8 6 4 3 3 3 4 4 3 4 7 5 6 8 10 13 10 7 5 4 5 5 5 6 6 6 5 8 12 12 19 25 56 78 91 91 98 83 87 60 54 37 53 68 99
3 3 3 4 7 7 4 3 3 4 4 4 4 5 6 5 4 4 7 10 8 6 6 5 4 7 5 6 6 6 6 7 9 11 17 15 22 95 82 96 95 82 90 93 65 50 54 41 90
4 3 2 3 5 5 4 4 3 4 4 5 4 4 6 5 4 5 7 14 18 17 10 7 6 6 9 7 7 7 7 6 8 22 13 14 18 29 78 96 94 95 86 96 76 54 64 40 85
6 4 2 2 4 5 5 4 4 4 4 4 4 4 6 4 6 6 5 8 14 12 16 13 13 9 9 12 9 8 8 7 11 11 11 13 17 26 57 90 96 95 96 58 72 64 67 40 83
8 4 3 3 6 6 4 4 4 4 4 4 4 4 5 4 4 4 5 7 11 12 20 21 21 20 11 14 11 9 8 9 9 11 14 18 20 21 35 87 96 98 97 82 97 70 68 63 49
9 5 3 4 10 12 7 4 3 4 4 5 5 4 3 3 4 4 5 5 6 14 14 22 26 23 19 14 15 10 10 11 11 15 20 29 31 24 31 55 67 97 96 94 96 90 45 35 63
13 6 5 6 13 16 10 6 4 3 4 5 6 5 5 5 4 4 3 3 4 10 14 15 26 25 26 15 17 12 10 10 13 18 21 30 46 40 35 61 63 98 85 96 96 92 62 22 53
15 11 12 8 14 14 12 8 7 4 4 5 5 7 8 6 6 3 2 3 4 8 13 14 27 30 32 24 19 16 11 11 13 22 27 44 52 35 28 54 74 93 95 96 97 96 44 62 78
18 14 14 13 14 14 12 9 7 6 5 7 6 9 9 7 6 3 3 3 3 3 6 7 31 41 36 35 23 23 13 12 13 20 34 46 48 38 49 70 86 92 97 97 99 97 83 62 73
29 24 22 19 16 15 14 11 9 7 7 7 9 9 8 7 3 4 3 3 4 3 4 9 33 47 41 41 30 25 15 13 14 22 32 34 41 43 82 98 94 89 96 98 99 98 95 76 80
38 35 32 25 19 14 12 10 8 7 12 7 6 8 6 4 5 5 4 3 3 3 3 5 44 52 46 47 37 29 19 16 14 30 28 32 46 60 86 97 92 91 98 94 93 98 98 99 93
44 39 35 30 22 15 11 9 7 6 9 10 8 7 7 7 5 6 4 3 3 3 3 6 52 54 50 51 42 36 20 16 20 35 24 43 67 87 90 97 97 97 94 95 96 98 98 97 84
47 41 38 32 22 17 14 16 11 7 6 9 8 7 6 9 7 5 4 3 4 3 3 4 55 57 50 54 46 35 20 16 18 38 28 34 75 83 75 96 98 91 89 91 95 96 90 88 81
55 47 37 31 24 19 18 18 12 9 9 10 10 10 14 12 6 4 4 6 8 4 3 4 51 61 54 58 54 36 20 16 22 42 38 30 31 49 59 89 97 97 97 91 95 89 90 77 82
58 47 38 34 24 19 23 35 19 14 10 9 13 13 12 7 6 5 8 9 5 3 3 6 58 65 61 58 55 38 18 15 25 43 45 30 39 58 89 89 97 98 96 93 94 86 83 78 77
87 71 68 64 50 24 20 21 18 8 9 10 11 11 9 8 9 10 8 5 5 4 2 10 55 73 71 58 56 37 16 15 28 37 44 27 35 41 92 99 97 96 99 100 96 87 90 78 66
96 96 75 39 30 38 34 35 19 9 8 9 9 8 8 10 11 10 7 5 4 4 2 13 56 83 84 68 58 33 15 16 23 27 39 41 38 70 84 97 98 97 90 96 96 96 94 81 76
98 94 85 83 57 43 45 40 18 14 10 10 10 9 9 18 16 12 8 5 4 3 2 8 56 91 88 81 66 30 16 17 20 20 35 42 38 87 91 98 96 97 91 96 88 90 88 88 88
97 83 70 42 71 79 72 50 45 40 36 16 11 10 21 18 14 13 7 4 3 3 3 14 61 92 92 86 65 27 17 19 20 18 30 36 42 71 96 96 96 96 97 83 79 95 92 92 90
88 100 67 62 85 83 58 49 38 27 19 18 21 18 14 14 15 9 6 4 3 3 3 24 68 88 97 87 58 25 27 20 19 19 22 35 40 43 94 97 96 96 97 94 91 90 90 93 92
100 100 100 88 64 78 69 58 40 33 31 20 16 16 16 16 11 8 7 4 3 2 5 23 53 93 87 85 58 32 20 22 21 19 22 30 34 50 68 95 97 97 96 95 94 96 69 77 84
99 99 96 92 80 67 49 35 40 43 44 34 23 18 16 14 11 10 6 5 3 2 9 20 53 87 72 73 54 39 20 22 24 21 23 24 32 44 55 86 96 97 97 96 96 96 94 90 70
100 95 97 92 92 91 73 46 47 41 38 34 27 26 17 14 11 8 6 5 3 3 7 20 68 83 68 63 55 52 21 24 27 24 21 22 30 55 59 82 86 96 97 97 97 96 71 74 82
98 98 92 92 89 79 70 66 66 60 46 39 43 23 16 12 10 8 7 5 3 3 14 25 81 83 68 66 65 58 20 26 30 29 21 21 29 60 68 75 88 90 92 97 97 94 92 94 95
100 100 100 99 97 87 71 61 54 48 47 48 31 29 29 14 13 12 6 4 3 2 21 39 80 89 81 65 67 61 20 26 32 33 24 22 25 56 73 76 82 89 80 77 95 96 97 96 98
100 100 100 99 94 89 75 65 57 51 51 43 36 37 22 13 10 7 6 4 3 3 13 38 82 97 79 62 72 62 19 25 33 36 25 23 23 52 64 71 92 95 97 94 83 87 95 94 96
100 100 100 100 95 94 93 73 65 59 53 47 42 36 22 11 6 6 5 3 3 4 8 57 88 89 80 82 69 70 19 25 32 37 29 17 24 23 33 53 89 96 97 96 100 97 97 95 96

GFSSGP_500_rhum_120.txt.gz
RH
8 8 10 8 6 5 4 5 4 3 3 3 3 4 3 4 4 5 3 3 4 4 4 4 4 4 5 5 4 4 5 5 9 15 14 17 15 18 17 17 19 24 33 27 17 15 39 62 63
8 5 7 9 6 6 9 4 3 2 3 2 3 3 3 3 3 3 3 3 4 4 3 3 4 4 4 5 5 5 7 7 11 8 15 22 30 25 17 16 17 28 51 56 29 31 50 64 72
8 4 5 7 6 6 7 4 3 3 2 3 3 3 4 4 4 4 4 3 3 4 5 5 4 4 4 4 5 5 7 11 7 10 8 12 19 20 41 56 21 43 70 67 48 32 37 66 98
9 5 3 5 6 6 6 4 3 3 3 4 4 3 5 4 4 4 4 4 3 5 5 5 6 7 4 3 4 5 6 10 7 10 9 11 22 39 50 96 95 96 70 77 92 66 38 42 70
11 7 3 3 6 7 6 5 4 3 3 4 5 5 6 5 4 4 6 5 5 5 6 7 7 8 9 4 5 6 7 7 11 8 10 14 16 14 17 64 92 96 96 92 96 83 59 39 50
12 11 5 3 5 5 5 4 4 5 4 4 5 5 6 4 4 5 6 5 6 6 7 5 4 5 6 10 5 7 9 8 7 7 28 56 12 12 20 28 62 94 96 87 94 93 79 42 57
15 12 8 4 5 4 4 3 4 4 4 4 4 5 6 4 4 4 5 5 5 5 5 4 4 6 5 8 10 7 11 9 8 11 15 30 23 14 18 25 32 94 96 96 97 86 65 62 51
16 13 9 7 7 10 5 3 4 4 4 4 4 5 6 5 5 4 4 4 5 5 3 3 3 4 6 9 11 10 10 11 10 10 9 17 22 27 31 27 32 90 88 87 91 45 50 71 47
18 12 10 11 12 16 12 6 4 3 3 3 3 4 5 6 6 5 5 5 5 3 2 3 3 4 6 6 10 15 12 14 11 12 12 13 19 31 41 32 33 61 77 94 81 61 58 76 44
19 15 13 15 16 18 15 14 7 4 3 3 3 4 4 5 5 6 5 7 4 3 3 4 3 4 4 4 7 17 18 18 13 14 14 16 23 46 55 49 38 64 72 99 92 89 75 93 61
22 16 19 14 21 19 14 13 13 9 8 7 6 5 4 5 5 6 7 7 4 3 4 4 3 3 3 3 6 21 29 22 20 15 15 17 35 60 57 44 30 61 94 91 97 96 99 65 76
26 23 20 17 18 19 17 15 10 10 11 12 9 7 4 4 5 7 7 7 3 3 3 4 2 3 3 3 8 20 37 27 27 16 16 29 43 45 56 46 48 60 92 98 96 95 97 84 86
36 33 28 26 22 21 19 16 15 14 12 14 11 8 6 5 5 7 8 7 3 4 3 3 3 3 4 4 17 34 45 37 36 21 18 26 40 37 41 60 72 92 94 98 93 99 96 85 66
51 44 41 39 36 30 26 24 20 17 18 14 11 8 6 6 6 8 8 4 4 4 4 3 3 4 3 5 19 39 49 42 44 25 19 29 35 41 53 64 86 97 98 91 93 98 89 83 64
60 50 50 45 42 40 33 29 22 18 17 15 12 9 7 7 7 8 7 6 5 6 4 3 4 3 3 7 23 43 52 44 47 23 22 35 32 52 76 88 86 98 96 100 93 98 100 98 88
70 64 57 54 47 44 38 30 28 22 15 12 9 8 8 9 7 7 7 6 6 6 3 4 5 3 3 7 24 48 54 53 52 27 35 31 34 32 83 90 87 96 97 98 99 95 96 95 97
68 66 68 62 53 47 39 34 30 24 20 17 13 9 7 12 10 8 6 8 8 5 4 8 5 3 3 7 27 53 55 59 56 34 44 33 44 28 41 52 66 84 98 97 98 94 96 86 96
83 76 83 81 60 51 41 36 30 28 22 18 16 12 11 8 9 7 9 12 8 6 9 7 4 3 2 6 24 59 61 59 53 32 39 30 44 36 41 47 62 87 98 97 98 97 87 86 90
100 89 77 80 79 63 41 33 32 29 24 23 16 14 12 14 22 13 12 10 8 10 9 6 4 3 2 10 41 66 65 61 51 25 21 27 37 42 46 54 56 87 94 97 98 96 88 74 79
96 93 84 93 86 75 62 50 34 30 23 15 16 25 51 19 16 18 10 8 9 10 7 6 4 3 2 16 64 72 69 64 60 21 18 19 32 38 41 54 68 95 99 98 90 95 90 79 71
94 92 99 97 97 94 86 70 54 54 46 26 17 12 11 11 11 10 9 8 11 14 10 5 4 2 3 22 63 73 72 74 64 21 17 17 31 36 44 61 84 100 96 96 97 96 94 79 70
94 100 100 99 96 85 86 63 58 56 41 33 22 17 13 10 8 8 8 14 20 16 9 6 4 3 3 26 79 87 89 78 62 22 18 17 26 35 42 62 91 94 96 97 90 97 93 82 79
80 100 98 98 95 99 85 84 90 71 68 47 40 33 21 14 12 10 14 29 24 14 8 4 3 3 4 44 85 98 98 76 54 23 20 17 23 32 40 64 98 91 97 97 95 97 92 94 87
99 100 100 99 96 83 74 56 68 66 59 64 55 45 32 25 20 24 43 32 22 13 5 4 4 2 7 43 83 100 100 77 44 25 21 18 22 29 35 58 96 97 97 97 97 93 98 96 93
99 100 100 100 100 65 94 64 62 76 72 64 50 30 42 46 55 52 24 17 18 10 7 4 3 2 8 36 75 97 100 76 47 27 22 21 21 25 36 54 95 96 96 97 96 97 94 100 95
100 100 100 98 100 100 100 82 76 64 58 59 54 52 45 38 26 19 17 21 18 12 7 4 3 2 10 32 75 98 98 68 63 26 23 23 20 21 36 52 76 95 97 96 96 97 99 99 94
98 93 93 100 98 97 100 100 97 83 74 69 57 40 76 79 61 30 23 18 15 13 7 5 3 2 11 34 86 98 83 66 68 26 25 24 20 20 37 58 70 91 96 97 97 96 96 96 95
92 100 100 99 98 100 100 100 100 84 71 67 66 63 59 50 35 36 30 20 16 12 7 7 3 3 8 35 83 97 76 70 68 25 26 25 23 24 31 76 81 85 91 95 98 97 96 95 95
100 96 96 100 99 100 100 100 100 97 83 73 68 59 54 50 46 44 31 21 17 13 11 5 4 3 9 43 87 86 72 81 69 28 28 25 24 25 43 74 82 91 89 96 91 95 97 96 94
100 100 100 100 99 99 100 100 100 97 94 86 72 57 51 46 45 41 35 34 24 18 12 5 4 3 9 42 89 81 86 92 74 33 28 25 27 24 24 44 54 80 74 94 97 82 70 91 96